<?xml version="1.0" encoding="UTF-8" standalone="no" ?>
<gpx xmlns="http://www.topografix.com/GPX/1/1" xmlns:xsi="http://www.w3.org/2001/XMLSchema-instance" xsi:schemaLocation="http://www.topografix.com/GPX/1/1 http://www.topografix.com/GPX/1/1/gpx.xsd" version="1.1" creator="VisuGPX - https://www.visugpx.com">
  <metadata>
    <name>Néoules - pilon Saint Clément</name>
    <desc><![CDATA[partie est avec montée au pilon (708 mètres : ça vaut le coup d%u2019%u0153il !).]]></desc>
  </metadata>
  <trk>
    <name><![CDATA[2014-06-14 Néoules]]></name>
    <trkseg>
      <trkpt lat="43.30939" lon="6.01277">
        <ele>334</ele>
        <time>2014-06-14T07:06:44Z</time>
      </trkpt>
      <trkpt lat="43.30939" lon="6.01277">
        <ele>334</ele>
        <time>2014-06-14T07:06:45Z</time>
      </trkpt>
      <trkpt lat="43.30939" lon="6.01277">
        <ele>334</ele>
        <time>2014-06-14T07:06:47Z</time>
      </trkpt>
      <trkpt lat="43.30944" lon="6.01278">
        <ele>334</ele>
        <time>2014-06-14T07:07:03Z</time>
      </trkpt>
      <trkpt lat="43.30942" lon="6.01277">
        <ele>334</ele>
        <time>2014-06-14T07:07:29Z</time>
      </trkpt>
      <trkpt lat="43.30938" lon="6.01276">
        <ele>334</ele>
        <time>2014-06-14T07:07:41Z</time>
      </trkpt>
      <trkpt lat="43.30939" lon="6.0128">
        <ele>334</ele>
        <time>2014-06-14T07:08:09Z</time>
      </trkpt>
      <trkpt lat="43.30942" lon="6.01278">
        <ele>334</ele>
        <time>2014-06-14T07:08:41Z</time>
      </trkpt>
      <trkpt lat="43.30941" lon="6.01277">
        <ele>334</ele>
        <time>2014-06-14T07:09:15Z</time>
      </trkpt>
      <trkpt lat="43.30943" lon="6.01279">
        <ele>334</ele>
        <time>2014-06-14T07:09:25Z</time>
      </trkpt>
      <trkpt lat="43.30944" lon="6.01294">
        <ele>334</ele>
        <time>2014-06-14T07:09:32Z</time>
      </trkpt>
      <trkpt lat="43.30943" lon="6.01299">
        <ele>334</ele>
        <time>2014-06-14T07:09:34Z</time>
      </trkpt>
      <trkpt lat="43.30939" lon="6.01303">
        <ele>334</ele>
        <time>2014-06-14T07:09:42Z</time>
      </trkpt>
      <trkpt lat="43.30936" lon="6.01313">
        <ele>334</ele>
        <time>2014-06-14T07:09:48Z</time>
      </trkpt>
      <trkpt lat="43.30937" lon="6.01325">
        <ele>334</ele>
        <time>2014-06-14T07:09:52Z</time>
      </trkpt>
      <trkpt lat="43.30936" lon="6.01327">
        <ele>334</ele>
        <time>2014-06-14T07:09:53Z</time>
      </trkpt>
      <trkpt lat="43.30934" lon="6.01329">
        <ele>334</ele>
        <time>2014-06-14T07:09:54Z</time>
      </trkpt>
      <trkpt lat="43.30932" lon="6.01331">
        <ele>334</ele>
        <time>2014-06-14T07:09:55Z</time>
      </trkpt>
      <trkpt lat="43.30929" lon="6.01332">
        <ele>334</ele>
        <time>2014-06-14T07:09:56Z</time>
      </trkpt>
      <trkpt lat="43.30926" lon="6.01333">
        <ele>334</ele>
        <time>2014-06-14T07:09:57Z</time>
      </trkpt>
      <trkpt lat="43.30924" lon="6.01333">
        <ele>334</ele>
        <time>2014-06-14T07:09:58Z</time>
      </trkpt>
      <trkpt lat="43.30881" lon="6.01344">
        <ele>334.703125</ele>
        <time>2014-06-14T07:10:12Z</time>
      </trkpt>
      <trkpt lat="43.30834" lon="6.01361">
        <ele>335.18359375</ele>
        <time>2014-06-14T07:10:27Z</time>
      </trkpt>
      <trkpt lat="43.30817" lon="6.0137">
        <ele>335.5078125</ele>
        <time>2014-06-14T07:10:40Z</time>
      </trkpt>
      <trkpt lat="43.30797" lon="6.01387">
        <ele>336.3828125</ele>
        <time>2014-06-14T07:10:53Z</time>
      </trkpt>
      <trkpt lat="43.30762" lon="6.01417">
        <ele>337.65625</ele>
        <time>2014-06-14T07:11:09Z</time>
      </trkpt>
      <trkpt lat="43.30731" lon="6.01438">
        <ele>338.66796875</ele>
        <time>2014-06-14T07:11:21Z</time>
      </trkpt>
      <trkpt lat="43.30693" lon="6.0146">
        <ele>339.83984375</ele>
        <time>2014-06-14T07:11:35Z</time>
      </trkpt>
      <trkpt lat="43.30655" lon="6.01484">
        <ele>341.4453125</ele>
        <time>2014-06-14T07:11:50Z</time>
      </trkpt>
      <trkpt lat="43.30619" lon="6.01508">
        <ele>343.5625</ele>
        <time>2014-06-14T07:12:06Z</time>
      </trkpt>
      <trkpt lat="43.30589" lon="6.01523">
        <ele>344.8359375</ele>
        <time>2014-06-14T07:12:20Z</time>
      </trkpt>
      <trkpt lat="43.30552" lon="6.01539">
        <ele>347.2578125</ele>
        <time>2014-06-14T07:12:36Z</time>
      </trkpt>
      <trkpt lat="43.30544" lon="6.01577">
        <ele>347.875</ele>
        <time>2014-06-14T07:12:49Z</time>
      </trkpt>
      <trkpt lat="43.30545" lon="6.01603">
        <ele>347.4375</ele>
        <time>2014-06-14T07:12:56Z</time>
      </trkpt>
      <trkpt lat="43.30545" lon="6.01606">
        <ele>347.3984375</ele>
        <time>2014-06-14T07:12:57Z</time>
      </trkpt>
      <trkpt lat="43.30546" lon="6.0161">
        <ele>347.36328125</ele>
        <time>2014-06-14T07:12:58Z</time>
      </trkpt>
      <trkpt lat="43.30547" lon="6.01614">
        <ele>347.32421875</ele>
        <time>2014-06-14T07:12:59Z</time>
      </trkpt>
      <trkpt lat="43.30547" lon="6.01617">
        <ele>347.3125</ele>
        <time>2014-06-14T07:13:00Z</time>
      </trkpt>
      <trkpt lat="43.30548" lon="6.01621">
        <ele>347.30078125</ele>
        <time>2014-06-14T07:13:01Z</time>
      </trkpt>
      <trkpt lat="43.30548" lon="6.01625">
        <ele>347.28125</ele>
        <time>2014-06-14T07:13:02Z</time>
      </trkpt>
      <trkpt lat="43.30548" lon="6.01629">
        <ele>347.28125</ele>
        <time>2014-06-14T07:13:03Z</time>
      </trkpt>
      <trkpt lat="43.30548" lon="6.01634">
        <ele>347.28515625</ele>
        <time>2014-06-14T07:13:04Z</time>
      </trkpt>
      <trkpt lat="43.30528" lon="6.0169">
        <ele>348.04296875</ele>
        <time>2014-06-14T07:13:19Z</time>
      </trkpt>
      <trkpt lat="43.30512" lon="6.01727">
        <ele>350.30859375</ele>
        <time>2014-06-14T07:13:30Z</time>
      </trkpt>
      <trkpt lat="43.30512" lon="6.01735">
        <ele>350.421875</ele>
        <time>2014-06-14T07:13:41Z</time>
      </trkpt>
      <trkpt lat="43.30513" lon="6.01737">
        <ele>350.44921875</ele>
        <time>2014-06-14T07:13:43Z</time>
      </trkpt>
      <trkpt lat="43.30513" lon="6.0174">
        <ele>350.4609375</ele>
        <time>2014-06-14T07:13:44Z</time>
      </trkpt>
      <trkpt lat="43.30515" lon="6.01777">
        <ele>352.23046875</ele>
        <time>2014-06-14T07:13:55Z</time>
      </trkpt>
      <trkpt lat="43.30524" lon="6.01819">
        <ele>354.421875</ele>
        <time>2014-06-14T07:14:07Z</time>
      </trkpt>
      <trkpt lat="43.30547" lon="6.01856">
        <ele>358.4140625</ele>
        <time>2014-06-14T07:14:22Z</time>
      </trkpt>
      <trkpt lat="43.30566" lon="6.01894">
        <ele>361.93359375</ele>
        <time>2014-06-14T07:14:37Z</time>
      </trkpt>
      <trkpt lat="43.30568" lon="6.0193">
        <ele>365.44921875</ele>
        <time>2014-06-14T07:14:51Z</time>
      </trkpt>
      <trkpt lat="43.30557" lon="6.01978">
        <ele>368.9140625</ele>
        <time>2014-06-14T07:15:10Z</time>
      </trkpt>
      <trkpt lat="43.30542" lon="6.02017">
        <ele>371.015625</ele>
        <time>2014-06-14T07:15:26Z</time>
      </trkpt>
      <trkpt lat="43.30541" lon="6.02019">
        <ele>371.16796875</ele>
        <time>2014-06-14T07:15:27Z</time>
      </trkpt>
      <trkpt lat="43.30524" lon="6.02067">
        <ele>373.8046875</ele>
        <time>2014-06-14T07:15:44Z</time>
      </trkpt>
      <trkpt lat="43.30504" lon="6.02113">
        <ele>373.19921875</ele>
        <time>2014-06-14T07:15:59Z</time>
      </trkpt>
      <trkpt lat="43.3047" lon="6.02148">
        <ele>371.16015625</ele>
        <time>2014-06-14T07:16:15Z</time>
      </trkpt>
      <trkpt lat="43.30441" lon="6.02146">
        <ele>373.8203125</ele>
        <time>2014-06-14T07:16:28Z</time>
      </trkpt>
      <trkpt lat="43.30403" lon="6.02144">
        <ele>378.06640625</ele>
        <time>2014-06-14T07:16:46Z</time>
      </trkpt>
      <trkpt lat="43.30378" lon="6.02136">
        <ele>380.96484375</ele>
        <time>2014-06-14T07:16:59Z</time>
      </trkpt>
      <trkpt lat="43.30339" lon="6.02125">
        <ele>385.3359375</ele>
        <time>2014-06-14T07:17:18Z</time>
      </trkpt>
      <trkpt lat="43.30304" lon="6.0211">
        <ele>389.1640625</ele>
        <time>2014-06-14T07:17:36Z</time>
      </trkpt>
      <trkpt lat="43.30294" lon="6.02082">
        <ele>388.18359375</ele>
        <time>2014-06-14T07:17:48Z</time>
      </trkpt>
      <trkpt lat="43.30292" lon="6.02051">
        <ele>385.69921875</ele>
        <time>2014-06-14T07:18:00Z</time>
      </trkpt>
      <trkpt lat="43.30285" lon="6.02015">
        <ele>387.390625</ele>
        <time>2014-06-14T07:18:14Z</time>
      </trkpt>
      <trkpt lat="43.30275" lon="6.01986">
        <ele>389.75390625</ele>
        <time>2014-06-14T07:18:27Z</time>
      </trkpt>
      <trkpt lat="43.30259" lon="6.0195">
        <ele>394.13671875</ele>
        <time>2014-06-14T07:18:43Z</time>
      </trkpt>
      <trkpt lat="43.30247" lon="6.01913">
        <ele>396.99609375</ele>
        <time>2014-06-14T07:18:58Z</time>
      </trkpt>
      <trkpt lat="43.30243" lon="6.01874">
        <ele>401.74609375</ele>
        <time>2014-06-14T07:19:13Z</time>
      </trkpt>
      <trkpt lat="43.30236" lon="6.01872">
        <ele>403.58984375</ele>
        <time>2014-06-14T07:19:17Z</time>
      </trkpt>
      <trkpt lat="43.30234" lon="6.01873">
        <ele>403.7890625</ele>
        <time>2014-06-14T07:19:18Z</time>
      </trkpt>
      <trkpt lat="43.30232" lon="6.01875">
        <ele>403.9453125</ele>
        <time>2014-06-14T07:19:19Z</time>
      </trkpt>
      <trkpt lat="43.3023" lon="6.01877">
        <ele>404.0234375</ele>
        <time>2014-06-14T07:19:20Z</time>
      </trkpt>
      <trkpt lat="43.30229" lon="6.0188">
        <ele>403.9140625</ele>
        <time>2014-06-14T07:19:21Z</time>
      </trkpt>
      <trkpt lat="43.30229" lon="6.01883">
        <ele>403.8046875</ele>
        <time>2014-06-14T07:19:22Z</time>
      </trkpt>
      <trkpt lat="43.30229" lon="6.01925">
        <ele>401.484375</ele>
        <time>2014-06-14T07:19:37Z</time>
      </trkpt>
      <trkpt lat="43.30216" lon="6.01963">
        <ele>405.63671875</ele>
        <time>2014-06-14T07:19:53Z</time>
      </trkpt>
      <trkpt lat="43.30198" lon="6.01994">
        <ele>410.234375</ele>
        <time>2014-06-14T07:20:08Z</time>
      </trkpt>
      <trkpt lat="43.30191" lon="6.02032">
        <ele>411.9609375</ele>
        <time>2014-06-14T07:20:24Z</time>
      </trkpt>
      <trkpt lat="43.30188" lon="6.02081">
        <ele>412.00390625</ele>
        <time>2014-06-14T07:20:42Z</time>
      </trkpt>
      <trkpt lat="43.30176" lon="6.02126">
        <ele>415.01953125</ele>
        <time>2014-06-14T07:21:00Z</time>
      </trkpt>
      <trkpt lat="43.3015" lon="6.02165">
        <ele>421.34375</ele>
        <time>2014-06-14T07:21:20Z</time>
      </trkpt>
      <trkpt lat="43.30129" lon="6.02199">
        <ele>427.09375</ele>
        <time>2014-06-14T07:21:37Z</time>
      </trkpt>
      <trkpt lat="43.30109" lon="6.02231">
        <ele>432.85546875</ele>
        <time>2014-06-14T07:21:54Z</time>
      </trkpt>
      <trkpt lat="43.30089" lon="6.02263">
        <ele>437.76171875</ele>
        <time>2014-06-14T07:22:10Z</time>
      </trkpt>
      <trkpt lat="43.30079" lon="6.02295">
        <ele>442.40234375</ele>
        <time>2014-06-14T07:22:24Z</time>
      </trkpt>
      <trkpt lat="43.30099" lon="6.02316">
        <ele>445.671875</ele>
        <time>2014-06-14T07:22:37Z</time>
      </trkpt>
      <trkpt lat="43.30112" lon="6.02321">
        <ele>446.8046875</ele>
        <time>2014-06-14T07:22:45Z</time>
      </trkpt>
      <trkpt lat="43.30113" lon="6.02323">
        <ele>447.19140625</ele>
        <time>2014-06-14T07:22:46Z</time>
      </trkpt>
      <trkpt lat="43.30113" lon="6.02325">
        <ele>447.6015625</ele>
        <time>2014-06-14T07:22:47Z</time>
      </trkpt>
      <trkpt lat="43.30112" lon="6.02327">
        <ele>447.98828125</ele>
        <time>2014-06-14T07:22:48Z</time>
      </trkpt>
      <trkpt lat="43.30111" lon="6.02329">
        <ele>448.1953125</ele>
        <time>2014-06-14T07:22:49Z</time>
      </trkpt>
      <trkpt lat="43.30109" lon="6.0233">
        <ele>448.33203125</ele>
        <time>2014-06-14T07:22:50Z</time>
      </trkpt>
      <trkpt lat="43.30107" lon="6.02331">
        <ele>448.41015625</ele>
        <time>2014-06-14T07:22:51Z</time>
      </trkpt>
      <trkpt lat="43.30105" lon="6.02332">
        <ele>448.4921875</ele>
        <time>2014-06-14T07:22:52Z</time>
      </trkpt>
      <trkpt lat="43.30103" lon="6.02333">
        <ele>448.59375</ele>
        <time>2014-06-14T07:22:53Z</time>
      </trkpt>
      <trkpt lat="43.30101" lon="6.02334">
        <ele>448.70703125</ele>
        <time>2014-06-14T07:22:54Z</time>
      </trkpt>
      <trkpt lat="43.30099" lon="6.02336">
        <ele>448.87109375</ele>
        <time>2014-06-14T07:22:55Z</time>
      </trkpt>
      <trkpt lat="43.30071" lon="6.02355">
        <ele>450.9609375</ele>
        <time>2014-06-14T07:23:12Z</time>
      </trkpt>
      <trkpt lat="43.3004" lon="6.02372">
        <ele>452.07421875</ele>
        <time>2014-06-14T07:23:30Z</time>
      </trkpt>
      <trkpt lat="43.30011" lon="6.02388">
        <ele>451.9609375</ele>
        <time>2014-06-14T07:23:46Z</time>
      </trkpt>
      <trkpt lat="43.29976" lon="6.02398">
        <ele>453.75390625</ele>
        <time>2014-06-14T07:24:03Z</time>
      </trkpt>
      <trkpt lat="43.29944" lon="6.02434">
        <ele>455.19921875</ele>
        <time>2014-06-14T07:24:21Z</time>
      </trkpt>
      <trkpt lat="43.29922" lon="6.02485">
        <ele>452.33984375</ele>
        <time>2014-06-14T07:24:36Z</time>
      </trkpt>
      <trkpt lat="43.2989" lon="6.02515">
        <ele>453.75</ele>
        <time>2014-06-14T07:24:51Z</time>
      </trkpt>
      <trkpt lat="43.29857" lon="6.02523">
        <ele>457.38671875</ele>
        <time>2014-06-14T07:25:06Z</time>
      </trkpt>
      <trkpt lat="43.29812" lon="6.02521">
        <ele>461.62890625</ele>
        <time>2014-06-14T07:25:26Z</time>
      </trkpt>
      <trkpt lat="43.29777" lon="6.02519">
        <ele>463.33203125</ele>
        <time>2014-06-14T07:25:42Z</time>
      </trkpt>
      <trkpt lat="43.29767" lon="6.02518">
        <ele>463.84375</ele>
        <time>2014-06-14T07:25:48Z</time>
      </trkpt>
      <trkpt lat="43.29766" lon="6.02519">
        <ele>463.80859375</ele>
        <time>2014-06-14T07:25:49Z</time>
      </trkpt>
      <trkpt lat="43.29766" lon="6.0252">
        <ele>463.67578125</ele>
        <time>2014-06-14T07:25:50Z</time>
      </trkpt>
      <trkpt lat="43.29768" lon="6.02523">
        <ele>463.33203125</ele>
        <time>2014-06-14T07:25:52Z</time>
      </trkpt>
      <trkpt lat="43.29814" lon="6.02525">
        <ele>461.06640625</ele>
        <time>2014-06-14T07:26:04Z</time>
      </trkpt>
      <trkpt lat="43.29864" lon="6.02528">
        <ele>455.88671875</ele>
        <time>2014-06-14T07:26:12Z</time>
      </trkpt>
      <trkpt lat="43.29875" lon="6.02526">
        <ele>454.40234375</ele>
        <time>2014-06-14T07:26:14Z</time>
      </trkpt>
      <trkpt lat="43.29879" lon="6.02524">
        <ele>454.0546875</ele>
        <time>2014-06-14T07:26:15Z</time>
      </trkpt>
      <trkpt lat="43.29883" lon="6.02522">
        <ele>453.875</ele>
        <time>2014-06-14T07:26:16Z</time>
      </trkpt>
      <trkpt lat="43.29889" lon="6.0252">
        <ele>453.37109375</ele>
        <time>2014-06-14T07:26:18Z</time>
      </trkpt>
      <trkpt lat="43.29891" lon="6.02524">
        <ele>452.265625</ele>
        <time>2014-06-14T07:26:20Z</time>
      </trkpt>
      <trkpt lat="43.29891" lon="6.02527">
        <ele>451.67578125</ele>
        <time>2014-06-14T07:26:21Z</time>
      </trkpt>
      <trkpt lat="43.29889" lon="6.0253">
        <ele>451.28125</ele>
        <time>2014-06-14T07:26:22Z</time>
      </trkpt>
      <trkpt lat="43.29887" lon="6.02533">
        <ele>451.0078125</ele>
        <time>2014-06-14T07:26:23Z</time>
      </trkpt>
      <trkpt lat="43.29885" lon="6.02535">
        <ele>451.015625</ele>
        <time>2014-06-14T07:26:24Z</time>
      </trkpt>
      <trkpt lat="43.29882" lon="6.02536">
        <ele>451.28125</ele>
        <time>2014-06-14T07:26:25Z</time>
      </trkpt>
      <trkpt lat="43.2988" lon="6.02537">
        <ele>451.50390625</ele>
        <time>2014-06-14T07:26:26Z</time>
      </trkpt>
      <trkpt lat="43.29877" lon="6.02539">
        <ele>451.6796875</ele>
        <time>2014-06-14T07:26:27Z</time>
      </trkpt>
      <trkpt lat="43.29856" lon="6.02554">
        <ele>453.19921875</ele>
        <time>2014-06-14T07:26:37Z</time>
      </trkpt>
      <trkpt lat="43.29824" lon="6.02563">
        <ele>456.0546875</ele>
        <time>2014-06-14T07:26:50Z</time>
      </trkpt>
      <trkpt lat="43.29801" lon="6.02581">
        <ele>457.296875</ele>
        <time>2014-06-14T07:27:02Z</time>
      </trkpt>
      <trkpt lat="43.2978" lon="6.02598">
        <ele>458.85546875</ele>
        <time>2014-06-14T07:27:13Z</time>
      </trkpt>
      <trkpt lat="43.29765" lon="6.02626">
        <ele>459.99609375</ele>
        <time>2014-06-14T07:27:26Z</time>
      </trkpt>
      <trkpt lat="43.2976" lon="6.02655">
        <ele>460.12109375</ele>
        <time>2014-06-14T07:27:36Z</time>
      </trkpt>
      <trkpt lat="43.29739" lon="6.0267">
        <ele>460.5546875</ele>
        <time>2014-06-14T07:27:47Z</time>
      </trkpt>
      <trkpt lat="43.29738" lon="6.02669">
        <ele>460.8671875</ele>
        <time>2014-06-14T07:27:48Z</time>
      </trkpt>
      <trkpt lat="43.29737" lon="6.02667">
        <ele>461.171875</ele>
        <time>2014-06-14T07:27:49Z</time>
      </trkpt>
      <trkpt lat="43.29736" lon="6.02665">
        <ele>461.48046875</ele>
        <time>2014-06-14T07:27:50Z</time>
      </trkpt>
      <trkpt lat="43.29734" lon="6.02665">
        <ele>461.734375</ele>
        <time>2014-06-14T07:27:51Z</time>
      </trkpt>
      <trkpt lat="43.2973" lon="6.02665">
        <ele>462.07421875</ele>
        <time>2014-06-14T07:27:53Z</time>
      </trkpt>
      <trkpt lat="43.29716" lon="6.02669">
        <ele>462.7421875</ele>
        <time>2014-06-14T07:28:01Z</time>
      </trkpt>
      <trkpt lat="43.2971" lon="6.02672">
        <ele>462.84765625</ele>
        <time>2014-06-14T07:28:04Z</time>
      </trkpt>
      <trkpt lat="43.29691" lon="6.02684">
        <ele>463.2890625</ele>
        <time>2014-06-14T07:28:15Z</time>
      </trkpt>
      <trkpt lat="43.29681" lon="6.02725">
        <ele>461.5390625</ele>
        <time>2014-06-14T07:28:29Z</time>
      </trkpt>
      <trkpt lat="43.29676" lon="6.02777">
        <ele>457.35546875</ele>
        <time>2014-06-14T07:28:44Z</time>
      </trkpt>
      <trkpt lat="43.29661" lon="6.02823">
        <ele>458.1875</ele>
        <time>2014-06-14T07:29:00Z</time>
      </trkpt>
      <trkpt lat="43.29656" lon="6.02878">
        <ele>458.796875</ele>
        <time>2014-06-14T07:29:15Z</time>
      </trkpt>
      <trkpt lat="43.29636" lon="6.02947">
        <ele>462.79296875</ele>
        <time>2014-06-14T07:29:34Z</time>
      </trkpt>
      <trkpt lat="43.29603" lon="6.03003">
        <ele>465.08984375</ele>
        <time>2014-06-14T07:29:52Z</time>
      </trkpt>
      <trkpt lat="43.29552" lon="6.03051">
        <ele>468.453125</ele>
        <time>2014-06-14T07:30:10Z</time>
      </trkpt>
      <trkpt lat="43.29504" lon="6.03098">
        <ele>470.265625</ele>
        <time>2014-06-14T07:30:28Z</time>
      </trkpt>
      <trkpt lat="43.29481" lon="6.03117">
        <ele>470.984375</ele>
        <time>2014-06-14T07:30:38Z</time>
      </trkpt>
      <trkpt lat="43.2948" lon="6.03117">
        <ele>471.09765625</ele>
        <time>2014-06-14T07:30:39Z</time>
      </trkpt>
      <trkpt lat="43.29479" lon="6.03116">
        <ele>471.20703125</ele>
        <time>2014-06-14T07:30:40Z</time>
      </trkpt>
      <trkpt lat="43.29477" lon="6.03115">
        <ele>471.31640625</ele>
        <time>2014-06-14T07:30:41Z</time>
      </trkpt>
      <trkpt lat="43.29476" lon="6.03115">
        <ele>471.44140625</ele>
        <time>2014-06-14T07:30:42Z</time>
      </trkpt>
      <trkpt lat="43.29474" lon="6.03115">
        <ele>471.578125</ele>
        <time>2014-06-14T07:30:43Z</time>
      </trkpt>
      <trkpt lat="43.29473" lon="6.03115">
        <ele>471.69140625</ele>
        <time>2014-06-14T07:30:44Z</time>
      </trkpt>
      <trkpt lat="43.29471" lon="6.03115">
        <ele>471.796875</ele>
        <time>2014-06-14T07:30:45Z</time>
      </trkpt>
      <trkpt lat="43.29445" lon="6.03119">
        <ele>473.53515625</ele>
        <time>2014-06-14T07:30:58Z</time>
      </trkpt>
      <trkpt lat="43.29418" lon="6.03113">
        <ele>474.68359375</ele>
        <time>2014-06-14T07:31:10Z</time>
      </trkpt>
      <trkpt lat="43.29402" lon="6.03112">
        <ele>474.7265625</ele>
        <time>2014-06-14T07:31:16Z</time>
      </trkpt>
      <trkpt lat="43.294" lon="6.03115">
        <ele>474.625</ele>
        <time>2014-06-14T07:31:17Z</time>
      </trkpt>
      <trkpt lat="43.29398" lon="6.03119">
        <ele>474.5</ele>
        <time>2014-06-14T07:31:18Z</time>
      </trkpt>
      <trkpt lat="43.29396" lon="6.03123">
        <ele>474.359375</ele>
        <time>2014-06-14T07:31:19Z</time>
      </trkpt>
      <trkpt lat="43.29393" lon="6.03126">
        <ele>474.21875</ele>
        <time>2014-06-14T07:31:20Z</time>
      </trkpt>
      <trkpt lat="43.2939" lon="6.03129">
        <ele>474.109375</ele>
        <time>2014-06-14T07:31:21Z</time>
      </trkpt>
      <trkpt lat="43.29386" lon="6.03131">
        <ele>474.0546875</ele>
        <time>2014-06-14T07:31:22Z</time>
      </trkpt>
      <trkpt lat="43.29383" lon="6.03132">
        <ele>474.03515625</ele>
        <time>2014-06-14T07:31:23Z</time>
      </trkpt>
      <trkpt lat="43.29352" lon="6.03134">
        <ele>474</ele>
        <time>2014-06-14T07:31:33Z</time>
      </trkpt>
      <trkpt lat="43.29326" lon="6.03147">
        <ele>474</ele>
        <time>2014-06-14T07:31:44Z</time>
      </trkpt>
      <trkpt lat="43.29291" lon="6.03157">
        <ele>474</ele>
        <time>2014-06-14T07:31:56Z</time>
      </trkpt>
      <trkpt lat="43.29265" lon="6.03163">
        <ele>474.05078125</ele>
        <time>2014-06-14T07:32:06Z</time>
      </trkpt>
      <trkpt lat="43.29231" lon="6.03173">
        <ele>474</ele>
        <time>2014-06-14T07:32:19Z</time>
      </trkpt>
      <trkpt lat="43.29203" lon="6.03198">
        <ele>474.34375</ele>
        <time>2014-06-14T07:32:32Z</time>
      </trkpt>
      <trkpt lat="43.29178" lon="6.03209">
        <ele>474.90625</ele>
        <time>2014-06-14T07:32:42Z</time>
      </trkpt>
      <trkpt lat="43.2914" lon="6.03206">
        <ele>475.99609375</ele>
        <time>2014-06-14T07:32:57Z</time>
      </trkpt>
      <trkpt lat="43.29113" lon="6.03222">
        <ele>477.98046875</ele>
        <time>2014-06-14T07:33:09Z</time>
      </trkpt>
      <trkpt lat="43.29098" lon="6.03232">
        <ele>478.796875</ele>
        <time>2014-06-14T07:33:16Z</time>
      </trkpt>
      <trkpt lat="43.29096" lon="6.03233">
        <ele>478.9453125</ele>
        <time>2014-06-14T07:33:17Z</time>
      </trkpt>
      <trkpt lat="43.29094" lon="6.03235">
        <ele>479.11328125</ele>
        <time>2014-06-14T07:33:18Z</time>
      </trkpt>
      <trkpt lat="43.29092" lon="6.03238">
        <ele>479.29296875</ele>
        <time>2014-06-14T07:33:19Z</time>
      </trkpt>
      <trkpt lat="43.29091" lon="6.0324">
        <ele>479.4765625</ele>
        <time>2014-06-14T07:33:20Z</time>
      </trkpt>
      <trkpt lat="43.29089" lon="6.03243">
        <ele>479.65625</ele>
        <time>2014-06-14T07:33:21Z</time>
      </trkpt>
      <trkpt lat="43.29087" lon="6.03245">
        <ele>479.9296875</ele>
        <time>2014-06-14T07:33:22Z</time>
      </trkpt>
      <trkpt lat="43.29064" lon="6.03263">
        <ele>482.3828125</ele>
        <time>2014-06-14T07:33:34Z</time>
      </trkpt>
      <trkpt lat="43.29031" lon="6.03272">
        <ele>483.96875</ele>
        <time>2014-06-14T07:33:48Z</time>
      </trkpt>
      <trkpt lat="43.28999" lon="6.03281">
        <ele>485.46484375</ele>
        <time>2014-06-14T07:34:02Z</time>
      </trkpt>
      <trkpt lat="43.28973" lon="6.03287">
        <ele>487.55859375</ele>
        <time>2014-06-14T07:34:14Z</time>
      </trkpt>
      <trkpt lat="43.28955" lon="6.0329">
        <ele>488.5546875</ele>
        <time>2014-06-14T07:34:23Z</time>
      </trkpt>
      <trkpt lat="43.28953" lon="6.03292">
        <ele>488.65234375</ele>
        <time>2014-06-14T07:34:24Z</time>
      </trkpt>
      <trkpt lat="43.28948" lon="6.03296">
        <ele>488.890625</ele>
        <time>2014-06-14T07:34:27Z</time>
      </trkpt>
      <trkpt lat="43.28947" lon="6.03298">
        <ele>488.94140625</ele>
        <time>2014-06-14T07:34:28Z</time>
      </trkpt>
      <trkpt lat="43.28946" lon="6.03299">
        <ele>489.01953125</ele>
        <time>2014-06-14T07:34:29Z</time>
      </trkpt>
      <trkpt lat="43.28944" lon="6.03301">
        <ele>489.3203125</ele>
        <time>2014-06-14T07:34:30Z</time>
      </trkpt>
      <trkpt lat="43.28942" lon="6.03303">
        <ele>489.59765625</ele>
        <time>2014-06-14T07:34:31Z</time>
      </trkpt>
      <trkpt lat="43.28941" lon="6.03305">
        <ele>489.86328125</ele>
        <time>2014-06-14T07:34:38Z</time>
      </trkpt>
      <trkpt lat="43.28941" lon="6.03304">
        <ele>489.85546875</ele>
        <time>2014-06-14T07:34:59Z</time>
      </trkpt>
      <trkpt lat="43.28941" lon="6.03305">
        <ele>489.92578125</ele>
        <time>2014-06-14T07:35:26Z</time>
      </trkpt>
      <trkpt lat="43.28942" lon="6.03304">
        <ele>489.68359375</ele>
        <time>2014-06-14T07:35:54Z</time>
      </trkpt>
      <trkpt lat="43.28943" lon="6.03301">
        <ele>489.45703125</ele>
        <time>2014-06-14T07:36:08Z</time>
      </trkpt>
      <trkpt lat="43.2894" lon="6.03304">
        <ele>489.9375</ele>
        <time>2014-06-14T07:36:49Z</time>
      </trkpt>
      <trkpt lat="43.28931" lon="6.03311">
        <ele>491.19140625</ele>
        <time>2014-06-14T07:37:03Z</time>
      </trkpt>
      <trkpt lat="43.28924" lon="6.0332">
        <ele>492.25390625</ele>
        <time>2014-06-14T07:37:17Z</time>
      </trkpt>
      <trkpt lat="43.28915" lon="6.0333">
        <ele>493.5546875</ele>
        <time>2014-06-14T07:37:31Z</time>
      </trkpt>
      <trkpt lat="43.28908" lon="6.03344">
        <ele>494.8515625</ele>
        <time>2014-06-14T07:37:44Z</time>
      </trkpt>
      <trkpt lat="43.28907" lon="6.03345">
        <ele>494.9609375</ele>
        <time>2014-06-14T07:38:11Z</time>
      </trkpt>
      <trkpt lat="43.28907" lon="6.03347">
        <ele>495.06640625</ele>
        <time>2014-06-14T07:38:41Z</time>
      </trkpt>
      <trkpt lat="43.28899" lon="6.03362">
        <ele>496</ele>
        <time>2014-06-14T07:38:54Z</time>
      </trkpt>
      <trkpt lat="43.289" lon="6.03384">
        <ele>495.99609375</ele>
        <time>2014-06-14T07:39:09Z</time>
      </trkpt>
      <trkpt lat="43.28896" lon="6.0339">
        <ele>496.4765625</ele>
        <time>2014-06-14T07:39:23Z</time>
      </trkpt>
      <trkpt lat="43.28896" lon="6.03393">
        <ele>496.46484375</ele>
        <time>2014-06-14T07:39:33Z</time>
      </trkpt>
      <trkpt lat="43.28897" lon="6.03395">
        <ele>496.3515625</ele>
        <time>2014-06-14T07:39:43Z</time>
      </trkpt>
      <trkpt lat="43.28897" lon="6.03394">
        <ele>496.375</ele>
        <time>2014-06-14T07:39:57Z</time>
      </trkpt>
      <trkpt lat="43.28896" lon="6.03395">
        <ele>496.5</ele>
        <time>2014-06-14T07:40:20Z</time>
      </trkpt>
      <trkpt lat="43.28896" lon="6.03395">
        <ele>496.51171875</ele>
        <time>2014-06-14T07:40:21Z</time>
      </trkpt>
      <trkpt lat="43.28896" lon="6.03394">
        <ele>496.4453125</ele>
        <time>2014-06-14T07:40:47Z</time>
      </trkpt>
      <trkpt lat="43.28896" lon="6.03392">
        <ele>496.4609375</ele>
        <time>2014-06-14T07:41:13Z</time>
      </trkpt>
      <trkpt lat="43.28895" lon="6.03394">
        <ele>496.5703125</ele>
        <time>2014-06-14T07:41:42Z</time>
      </trkpt>
      <trkpt lat="43.28899" lon="6.03395">
        <ele>496.23046875</ele>
        <time>2014-06-14T07:41:59Z</time>
      </trkpt>
      <trkpt lat="43.28897" lon="6.03391">
        <ele>496.328125</ele>
        <time>2014-06-14T07:42:07Z</time>
      </trkpt>
      <trkpt lat="43.28898" lon="6.0339">
        <ele>496.2578125</ele>
        <time>2014-06-14T07:42:08Z</time>
      </trkpt>
      <trkpt lat="43.28899" lon="6.03389">
        <ele>496.16015625</ele>
        <time>2014-06-14T07:42:09Z</time>
      </trkpt>
      <trkpt lat="43.289" lon="6.03384">
        <ele>495.93359375</ele>
        <time>2014-06-14T07:42:12Z</time>
      </trkpt>
      <trkpt lat="43.289" lon="6.03382">
        <ele>495.92578125</ele>
        <time>2014-06-14T07:42:13Z</time>
      </trkpt>
      <trkpt lat="43.289" lon="6.03379">
        <ele>495.95703125</ele>
        <time>2014-06-14T07:42:14Z</time>
      </trkpt>
      <trkpt lat="43.289" lon="6.03377">
        <ele>495.98828125</ele>
        <time>2014-06-14T07:42:15Z</time>
      </trkpt>
      <trkpt lat="43.28899" lon="6.03374">
        <ele>496.0234375</ele>
        <time>2014-06-14T07:42:16Z</time>
      </trkpt>
      <trkpt lat="43.28899" lon="6.03372">
        <ele>496.046875</ele>
        <time>2014-06-14T07:42:17Z</time>
      </trkpt>
      <trkpt lat="43.28899" lon="6.03368">
        <ele>496.04296875</ele>
        <time>2014-06-14T07:42:18Z</time>
      </trkpt>
      <trkpt lat="43.28902" lon="6.0335">
        <ele>495.64453125</ele>
        <time>2014-06-14T07:42:27Z</time>
      </trkpt>
      <trkpt lat="43.28917" lon="6.03328">
        <ele>493.10546875</ele>
        <time>2014-06-14T07:42:36Z</time>
      </trkpt>
      <trkpt lat="43.28923" lon="6.0332">
        <ele>492.36328125</ele>
        <time>2014-06-14T07:42:46Z</time>
      </trkpt>
      <trkpt lat="43.28923" lon="6.03321">
        <ele>492.390625</ele>
        <time>2014-06-14T07:43:02Z</time>
      </trkpt>
      <trkpt lat="43.28923" lon="6.03321">
        <ele>492.41796875</ele>
        <time>2014-06-14T07:43:40Z</time>
      </trkpt>
      <trkpt lat="43.28924" lon="6.03321">
        <ele>492.296875</ele>
        <time>2014-06-14T07:44:12Z</time>
      </trkpt>
      <trkpt lat="43.28924" lon="6.03317">
        <ele>492.16015625</ele>
        <time>2014-06-14T07:44:36Z</time>
      </trkpt>
      <trkpt lat="43.28925" lon="6.03315">
        <ele>491.9140625</ele>
        <time>2014-06-14T07:44:39Z</time>
      </trkpt>
      <trkpt lat="43.28927" lon="6.03314">
        <ele>491.734375</ele>
        <time>2014-06-14T07:44:40Z</time>
      </trkpt>
      <trkpt lat="43.28928" lon="6.03312">
        <ele>491.5078125</ele>
        <time>2014-06-14T07:44:41Z</time>
      </trkpt>
      <trkpt lat="43.28931" lon="6.0331">
        <ele>491.15234375</ele>
        <time>2014-06-14T07:44:53Z</time>
      </trkpt>
      <trkpt lat="43.28931" lon="6.03309">
        <ele>491.09375</ele>
        <time>2014-06-14T07:45:07Z</time>
      </trkpt>
      <trkpt lat="43.28933" lon="6.03308">
        <ele>490.86328125</ele>
        <time>2014-06-14T07:45:08Z</time>
      </trkpt>
      <trkpt lat="43.28935" lon="6.03307">
        <ele>490.62890625</ele>
        <time>2014-06-14T07:45:09Z</time>
      </trkpt>
      <trkpt lat="43.28937" lon="6.03306">
        <ele>490.37890625</ele>
        <time>2014-06-14T07:45:10Z</time>
      </trkpt>
      <trkpt lat="43.28939" lon="6.03305">
        <ele>490.09765625</ele>
        <time>2014-06-14T07:45:11Z</time>
      </trkpt>
      <trkpt lat="43.28945" lon="6.033">
        <ele>489.0625</ele>
        <time>2014-06-14T07:45:19Z</time>
      </trkpt>
      <trkpt lat="43.28951" lon="6.03295">
        <ele>488.78515625</ele>
        <time>2014-06-14T07:45:22Z</time>
      </trkpt>
      <trkpt lat="43.28953" lon="6.03294">
        <ele>488.671875</ele>
        <time>2014-06-14T07:45:23Z</time>
      </trkpt>
      <trkpt lat="43.28955" lon="6.03292">
        <ele>488.56640625</ele>
        <time>2014-06-14T07:45:24Z</time>
      </trkpt>
      <trkpt lat="43.28957" lon="6.03291">
        <ele>488.48046875</ele>
        <time>2014-06-14T07:45:25Z</time>
      </trkpt>
      <trkpt lat="43.28958" lon="6.0329">
        <ele>488.40234375</ele>
        <time>2014-06-14T07:45:26Z</time>
      </trkpt>
      <trkpt lat="43.2896" lon="6.03289">
        <ele>488.3203125</ele>
        <time>2014-06-14T07:45:27Z</time>
      </trkpt>
      <trkpt lat="43.28961" lon="6.03289">
        <ele>488.234375</ele>
        <time>2014-06-14T07:45:28Z</time>
      </trkpt>
      <trkpt lat="43.28964" lon="6.03289">
        <ele>488.11328125</ele>
        <time>2014-06-14T07:45:29Z</time>
      </trkpt>
      <trkpt lat="43.28966" lon="6.03289">
        <ele>487.984375</ele>
        <time>2014-06-14T07:45:30Z</time>
      </trkpt>
      <trkpt lat="43.28968" lon="6.03289">
        <ele>487.87890625</ele>
        <time>2014-06-14T07:45:31Z</time>
      </trkpt>
      <trkpt lat="43.28971" lon="6.03288">
        <ele>487.74609375</ele>
        <time>2014-06-14T07:45:32Z</time>
      </trkpt>
      <trkpt lat="43.28973" lon="6.03287">
        <ele>487.578125</ele>
        <time>2014-06-14T07:45:33Z</time>
      </trkpt>
      <trkpt lat="43.28975" lon="6.03286">
        <ele>487.3828125</ele>
        <time>2014-06-14T07:45:34Z</time>
      </trkpt>
      <trkpt lat="43.28978" lon="6.03285">
        <ele>487.1875</ele>
        <time>2014-06-14T07:45:35Z</time>
      </trkpt>
      <trkpt lat="43.2898" lon="6.03285">
        <ele>487.01171875</ele>
        <time>2014-06-14T07:45:36Z</time>
      </trkpt>
      <trkpt lat="43.28983" lon="6.03285">
        <ele>486.8125</ele>
        <time>2014-06-14T07:45:37Z</time>
      </trkpt>
      <trkpt lat="43.28986" lon="6.03285">
        <ele>486.59375</ele>
        <time>2014-06-14T07:45:38Z</time>
      </trkpt>
      <trkpt lat="43.29017" lon="6.03279">
        <ele>484.71875</ele>
        <time>2014-06-14T07:45:49Z</time>
      </trkpt>
      <trkpt lat="43.29028" lon="6.03275">
        <ele>484.16796875</ele>
        <time>2014-06-14T07:45:59Z</time>
      </trkpt>
      <trkpt lat="43.29067" lon="6.03261">
        <ele>482.140625</ele>
        <time>2014-06-14T07:46:10Z</time>
      </trkpt>
      <trkpt lat="43.29081" lon="6.03254">
        <ele>481</ele>
        <time>2014-06-14T07:46:16Z</time>
      </trkpt>
      <trkpt lat="43.29102" lon="6.03233">
        <ele>478.6015625</ele>
        <time>2014-06-14T07:46:27Z</time>
      </trkpt>
      <trkpt lat="43.2911" lon="6.03226">
        <ele>478.10546875</ele>
        <time>2014-06-14T07:46:35Z</time>
      </trkpt>
      <trkpt lat="43.29111" lon="6.03225">
        <ele>478.0390625</ele>
        <time>2014-06-14T07:46:36Z</time>
      </trkpt>
      <trkpt lat="43.29113" lon="6.03222">
        <ele>477.984375</ele>
        <time>2014-06-14T07:46:44Z</time>
      </trkpt>
      <trkpt lat="43.29114" lon="6.0322">
        <ele>477.88671875</ele>
        <time>2014-06-14T07:46:45Z</time>
      </trkpt>
      <trkpt lat="43.29115" lon="6.03218">
        <ele>477.78125</ele>
        <time>2014-06-14T07:46:46Z</time>
      </trkpt>
      <trkpt lat="43.29118" lon="6.03215">
        <ele>477.62109375</ele>
        <time>2014-06-14T07:46:47Z</time>
      </trkpt>
      <trkpt lat="43.29121" lon="6.03213">
        <ele>477.40234375</ele>
        <time>2014-06-14T07:46:48Z</time>
      </trkpt>
      <trkpt lat="43.29124" lon="6.03212">
        <ele>477.171875</ele>
        <time>2014-06-14T07:46:49Z</time>
      </trkpt>
      <trkpt lat="43.29147" lon="6.03204">
        <ele>475.74609375</ele>
        <time>2014-06-14T07:46:55Z</time>
      </trkpt>
      <trkpt lat="43.29151" lon="6.03203">
        <ele>475.59375</ele>
        <time>2014-06-14T07:46:56Z</time>
      </trkpt>
      <trkpt lat="43.29156" lon="6.03203">
        <ele>475.4375</ele>
        <time>2014-06-14T07:46:57Z</time>
      </trkpt>
      <trkpt lat="43.2916" lon="6.03204">
        <ele>475.2890625</ele>
        <time>2014-06-14T07:46:58Z</time>
      </trkpt>
      <trkpt lat="43.29164" lon="6.03206">
        <ele>475.15234375</ele>
        <time>2014-06-14T07:46:59Z</time>
      </trkpt>
      <trkpt lat="43.29167" lon="6.03208">
        <ele>475.015625</ele>
        <time>2014-06-14T07:47:00Z</time>
      </trkpt>
      <trkpt lat="43.29171" lon="6.03209">
        <ele>474.96875</ele>
        <time>2014-06-14T07:47:01Z</time>
      </trkpt>
      <trkpt lat="43.29176" lon="6.0321">
        <ele>474.94140625</ele>
        <time>2014-06-14T07:47:02Z</time>
      </trkpt>
      <trkpt lat="43.2918" lon="6.03211">
        <ele>474.9296875</ele>
        <time>2014-06-14T07:47:03Z</time>
      </trkpt>
      <trkpt lat="43.29184" lon="6.03212">
        <ele>474.91015625</ele>
        <time>2014-06-14T07:47:04Z</time>
      </trkpt>
      <trkpt lat="43.2921" lon="6.03191">
        <ele>474.109375</ele>
        <time>2014-06-14T07:47:13Z</time>
      </trkpt>
      <trkpt lat="43.29239" lon="6.03169">
        <ele>474</ele>
        <time>2014-06-14T07:47:21Z</time>
      </trkpt>
      <trkpt lat="43.29244" lon="6.03168">
        <ele>474</ele>
        <time>2014-06-14T07:47:22Z</time>
      </trkpt>
      <trkpt lat="43.29249" lon="6.03167">
        <ele>474</ele>
        <time>2014-06-14T07:47:23Z</time>
      </trkpt>
      <trkpt lat="43.29254" lon="6.03165">
        <ele>474.015625</ele>
        <time>2014-06-14T07:47:24Z</time>
      </trkpt>
      <trkpt lat="43.29259" lon="6.03165">
        <ele>474.046875</ele>
        <time>2014-06-14T07:47:25Z</time>
      </trkpt>
      <trkpt lat="43.29264" lon="6.03165">
        <ele>474.07421875</ele>
        <time>2014-06-14T07:47:26Z</time>
      </trkpt>
      <trkpt lat="43.29269" lon="6.03164">
        <ele>474.0859375</ele>
        <time>2014-06-14T07:47:27Z</time>
      </trkpt>
      <trkpt lat="43.29273" lon="6.03162">
        <ele>474.05859375</ele>
        <time>2014-06-14T07:47:28Z</time>
      </trkpt>
      <trkpt lat="43.29286" lon="6.03157">
        <ele>474</ele>
        <time>2014-06-14T07:47:31Z</time>
      </trkpt>
      <trkpt lat="43.2929" lon="6.03156">
        <ele>474</ele>
        <time>2014-06-14T07:47:32Z</time>
      </trkpt>
      <trkpt lat="43.29314" lon="6.03147">
        <ele>474</ele>
        <time>2014-06-14T07:47:38Z</time>
      </trkpt>
      <trkpt lat="43.29319" lon="6.03147">
        <ele>474</ele>
        <time>2014-06-14T07:47:39Z</time>
      </trkpt>
      <trkpt lat="43.29351" lon="6.03134">
        <ele>474</ele>
        <time>2014-06-14T07:47:48Z</time>
      </trkpt>
      <trkpt lat="43.29359" lon="6.0313">
        <ele>474.07421875</ele>
        <time>2014-06-14T07:47:50Z</time>
      </trkpt>
      <trkpt lat="43.29363" lon="6.03131">
        <ele>474.05859375</ele>
        <time>2014-06-14T07:47:51Z</time>
      </trkpt>
      <trkpt lat="43.29397" lon="6.03121">
        <ele>474.41015625</ele>
        <time>2014-06-14T07:48:02Z</time>
      </trkpt>
      <trkpt lat="43.29402" lon="6.03113">
        <ele>474.70703125</ele>
        <time>2014-06-14T07:48:07Z</time>
      </trkpt>
      <trkpt lat="43.29404" lon="6.03113">
        <ele>474.69921875</ele>
        <time>2014-06-14T07:48:08Z</time>
      </trkpt>
      <trkpt lat="43.29405" lon="6.03114">
        <ele>474.67578125</ele>
        <time>2014-06-14T07:48:09Z</time>
      </trkpt>
      <trkpt lat="43.2943" lon="6.03119">
        <ele>474.0546875</ele>
        <time>2014-06-14T07:48:20Z</time>
      </trkpt>
      <trkpt lat="43.29457" lon="6.03118">
        <ele>472.7109375</ele>
        <time>2014-06-14T07:48:31Z</time>
      </trkpt>
      <trkpt lat="43.29477" lon="6.03114">
        <ele>471.34375</ele>
        <time>2014-06-14T07:48:39Z</time>
      </trkpt>
      <trkpt lat="43.29479" lon="6.03117">
        <ele>471.12109375</ele>
        <time>2014-06-14T07:48:40Z</time>
      </trkpt>
      <trkpt lat="43.29481" lon="6.0312">
        <ele>470.921875</ele>
        <time>2014-06-14T07:48:41Z</time>
      </trkpt>
      <trkpt lat="43.29481" lon="6.03124">
        <ele>470.76953125</ele>
        <time>2014-06-14T07:48:42Z</time>
      </trkpt>
      <trkpt lat="43.2948" lon="6.03129">
        <ele>470.62109375</ele>
        <time>2014-06-14T07:48:43Z</time>
      </trkpt>
      <trkpt lat="43.2948" lon="6.03134">
        <ele>470.5546875</ele>
        <time>2014-06-14T07:48:44Z</time>
      </trkpt>
      <trkpt lat="43.29479" lon="6.03139">
        <ele>470.625</ele>
        <time>2014-06-14T07:48:45Z</time>
      </trkpt>
      <trkpt lat="43.29479" lon="6.03145">
        <ele>470.65234375</ele>
        <time>2014-06-14T07:48:46Z</time>
      </trkpt>
      <trkpt lat="43.29481" lon="6.0315">
        <ele>470.62890625</ele>
        <time>2014-06-14T07:48:47Z</time>
      </trkpt>
      <trkpt lat="43.29483" lon="6.03155">
        <ele>470.56640625</ele>
        <time>2014-06-14T07:48:48Z</time>
      </trkpt>
      <trkpt lat="43.29487" lon="6.03158">
        <ele>470.4765625</ele>
        <time>2014-06-14T07:48:49Z</time>
      </trkpt>
      <trkpt lat="43.29491" lon="6.03161">
        <ele>470.37890625</ele>
        <time>2014-06-14T07:48:50Z</time>
      </trkpt>
      <trkpt lat="43.29495" lon="6.03162">
        <ele>470.28125</ele>
        <time>2014-06-14T07:48:51Z</time>
      </trkpt>
      <trkpt lat="43.29528" lon="6.0319">
        <ele>470.16015625</ele>
        <time>2014-06-14T07:49:03Z</time>
      </trkpt>
      <trkpt lat="43.29531" lon="6.03196">
        <ele>470.75390625</ele>
        <time>2014-06-14T07:49:04Z</time>
      </trkpt>
      <trkpt lat="43.29533" lon="6.03204">
        <ele>471.48046875</ele>
        <time>2014-06-14T07:49:05Z</time>
      </trkpt>
      <trkpt lat="43.29534" lon="6.03212">
        <ele>472.1171875</ele>
        <time>2014-06-14T07:49:06Z</time>
      </trkpt>
      <trkpt lat="43.29534" lon="6.0322">
        <ele>472.640625</ele>
        <time>2014-06-14T07:49:07Z</time>
      </trkpt>
      <trkpt lat="43.29533" lon="6.03227">
        <ele>473.05859375</ele>
        <time>2014-06-14T07:49:08Z</time>
      </trkpt>
      <trkpt lat="43.29531" lon="6.03234">
        <ele>473.375</ele>
        <time>2014-06-14T07:49:09Z</time>
      </trkpt>
      <trkpt lat="43.29506" lon="6.03287">
        <ele>474.84375</ele>
        <time>2014-06-14T07:49:22Z</time>
      </trkpt>
      <trkpt lat="43.29486" lon="6.03338">
        <ele>476.6328125</ele>
        <time>2014-06-14T07:49:36Z</time>
      </trkpt>
      <trkpt lat="43.29492" lon="6.03395">
        <ele>479.9453125</ele>
        <time>2014-06-14T07:49:50Z</time>
      </trkpt>
      <trkpt lat="43.29492" lon="6.03399">
        <ele>480.24609375</ele>
        <time>2014-06-14T07:49:51Z</time>
      </trkpt>
      <trkpt lat="43.29478" lon="6.03434">
        <ele>480.58203125</ele>
        <time>2014-06-14T07:50:03Z</time>
      </trkpt>
      <trkpt lat="43.2946" lon="6.03471">
        <ele>481.1484375</ele>
        <time>2014-06-14T07:50:16Z</time>
      </trkpt>
      <trkpt lat="43.29469" lon="6.03517">
        <ele>482.68359375</ele>
        <time>2014-06-14T07:50:30Z</time>
      </trkpt>
      <trkpt lat="43.29487" lon="6.03568">
        <ele>486.54296875</ele>
        <time>2014-06-14T07:50:45Z</time>
      </trkpt>
      <trkpt lat="43.29505" lon="6.03642">
        <ele>489.07421875</ele>
        <time>2014-06-14T07:51:05Z</time>
      </trkpt>
      <trkpt lat="43.29515" lon="6.03692">
        <ele>491.05078125</ele>
        <time>2014-06-14T07:51:19Z</time>
      </trkpt>
      <trkpt lat="43.29515" lon="6.03745">
        <ele>491.5546875</ele>
        <time>2014-06-14T07:51:34Z</time>
      </trkpt>
      <trkpt lat="43.29513" lon="6.03792">
        <ele>491.58984375</ele>
        <time>2014-06-14T07:51:48Z</time>
      </trkpt>
      <trkpt lat="43.29507" lon="6.03807">
        <ele>490.90234375</ele>
        <time>2014-06-14T07:51:56Z</time>
      </trkpt>
      <trkpt lat="43.29505" lon="6.03811">
        <ele>490.58203125</ele>
        <time>2014-06-14T07:52:10Z</time>
      </trkpt>
      <trkpt lat="43.29505" lon="6.03809">
        <ele>490.5390625</ele>
        <time>2014-06-14T07:52:41Z</time>
      </trkpt>
      <trkpt lat="43.29507" lon="6.0381">
        <ele>490.84375</ele>
        <time>2014-06-14T07:53:03Z</time>
      </trkpt>
      <trkpt lat="43.29505" lon="6.03811">
        <ele>490.63671875</ele>
        <time>2014-06-14T07:53:25Z</time>
      </trkpt>
      <trkpt lat="43.29506" lon="6.03812">
        <ele>490.73046875</ele>
        <time>2014-06-14T07:53:52Z</time>
      </trkpt>
      <trkpt lat="43.29504" lon="6.03813">
        <ele>490.3984375</ele>
        <time>2014-06-14T07:54:25Z</time>
      </trkpt>
      <trkpt lat="43.29504" lon="6.03815">
        <ele>490.46484375</ele>
        <time>2014-06-14T07:54:54Z</time>
      </trkpt>
      <trkpt lat="43.29505" lon="6.03809">
        <ele>490.515625</ele>
        <time>2014-06-14T07:55:28Z</time>
      </trkpt>
      <trkpt lat="43.29505" lon="6.03814">
        <ele>490.5625</ele>
        <time>2014-06-14T07:56:02Z</time>
      </trkpt>
      <trkpt lat="43.29503" lon="6.03814">
        <ele>490.3203125</ele>
        <time>2014-06-14T07:56:28Z</time>
      </trkpt>
      <trkpt lat="43.29502" lon="6.03812">
        <ele>490.19921875</ele>
        <time>2014-06-14T07:57:06Z</time>
      </trkpt>
      <trkpt lat="43.29504" lon="6.03814">
        <ele>490.44921875</ele>
        <time>2014-06-14T07:57:38Z</time>
      </trkpt>
      <trkpt lat="43.29504" lon="6.03812">
        <ele>490.453125</ele>
        <time>2014-06-14T07:58:07Z</time>
      </trkpt>
      <trkpt lat="43.29503" lon="6.03813">
        <ele>490.359375</ele>
        <time>2014-06-14T07:58:33Z</time>
      </trkpt>
      <trkpt lat="43.29502" lon="6.0381">
        <ele>490.1015625</ele>
        <time>2014-06-14T07:58:58Z</time>
      </trkpt>
      <trkpt lat="43.29501" lon="6.03813">
        <ele>489.97265625</ele>
        <time>2014-06-14T07:59:10Z</time>
      </trkpt>
      <trkpt lat="43.295" lon="6.03814">
        <ele>489.875</ele>
        <time>2014-06-14T07:59:11Z</time>
      </trkpt>
      <trkpt lat="43.29498" lon="6.03815">
        <ele>489.76171875</ele>
        <time>2014-06-14T07:59:12Z</time>
      </trkpt>
      <trkpt lat="43.29496" lon="6.03815">
        <ele>489.609375</ele>
        <time>2014-06-14T07:59:13Z</time>
      </trkpt>
      <trkpt lat="43.29495" lon="6.03817">
        <ele>489.4609375</ele>
        <time>2014-06-14T07:59:14Z</time>
      </trkpt>
      <trkpt lat="43.29493" lon="6.03818">
        <ele>489.35546875</ele>
        <time>2014-06-14T07:59:15Z</time>
      </trkpt>
      <trkpt lat="43.29481" lon="6.03828">
        <ele>488.6015625</ele>
        <time>2014-06-14T07:59:27Z</time>
      </trkpt>
      <trkpt lat="43.29481" lon="6.03829">
        <ele>488.625</ele>
        <time>2014-06-14T07:59:32Z</time>
      </trkpt>
      <trkpt lat="43.29479" lon="6.0383">
        <ele>488.56640625</ele>
        <time>2014-06-14T07:59:33Z</time>
      </trkpt>
      <trkpt lat="43.29478" lon="6.03832">
        <ele>488.50390625</ele>
        <time>2014-06-14T07:59:34Z</time>
      </trkpt>
      <trkpt lat="43.29476" lon="6.03834">
        <ele>488.46484375</ele>
        <time>2014-06-14T07:59:35Z</time>
      </trkpt>
      <trkpt lat="43.29474" lon="6.03836">
        <ele>488.4296875</ele>
        <time>2014-06-14T07:59:36Z</time>
      </trkpt>
      <trkpt lat="43.29473" lon="6.03839">
        <ele>488.4453125</ele>
        <time>2014-06-14T07:59:37Z</time>
      </trkpt>
      <trkpt lat="43.29471" lon="6.03842">
        <ele>488.5390625</ele>
        <time>2014-06-14T07:59:38Z</time>
      </trkpt>
      <trkpt lat="43.2947" lon="6.03845">
        <ele>488.65234375</ele>
        <time>2014-06-14T07:59:39Z</time>
      </trkpt>
      <trkpt lat="43.29469" lon="6.03848">
        <ele>488.765625</ele>
        <time>2014-06-14T07:59:40Z</time>
      </trkpt>
      <trkpt lat="43.2947" lon="6.03895">
        <ele>490.4765625</ele>
        <time>2014-06-14T07:59:54Z</time>
      </trkpt>
      <trkpt lat="43.2946" lon="6.03943">
        <ele>492.3125</ele>
        <time>2014-06-14T08:00:08Z</time>
      </trkpt>
      <trkpt lat="43.29425" lon="6.03967">
        <ele>495.59765625</ele>
        <time>2014-06-14T08:00:21Z</time>
      </trkpt>
      <trkpt lat="43.29391" lon="6.03979">
        <ele>498.9375</ele>
        <time>2014-06-14T08:00:34Z</time>
      </trkpt>
      <trkpt lat="43.29358" lon="6.03994">
        <ele>501.28515625</ele>
        <time>2014-06-14T08:00:49Z</time>
      </trkpt>
      <trkpt lat="43.29336" lon="6.04018">
        <ele>504.5703125</ele>
        <time>2014-06-14T08:01:02Z</time>
      </trkpt>
      <trkpt lat="43.29316" lon="6.04044">
        <ele>506</ele>
        <time>2014-06-14T08:01:14Z</time>
      </trkpt>
      <trkpt lat="43.29285" lon="6.04076">
        <ele>508.99609375</ele>
        <time>2014-06-14T08:01:31Z</time>
      </trkpt>
      <trkpt lat="43.29256" lon="6.041">
        <ele>510.7109375</ele>
        <time>2014-06-14T08:01:45Z</time>
      </trkpt>
      <trkpt lat="43.29223" lon="6.04104">
        <ele>512.0234375</ele>
        <time>2014-06-14T08:01:59Z</time>
      </trkpt>
      <trkpt lat="43.29195" lon="6.04077">
        <ele>510.05859375</ele>
        <time>2014-06-14T08:02:13Z</time>
      </trkpt>
      <trkpt lat="43.29157" lon="6.04067">
        <ele>511.0546875</ele>
        <time>2014-06-14T08:02:29Z</time>
      </trkpt>
      <trkpt lat="43.29131" lon="6.04096">
        <ele>514.234375</ele>
        <time>2014-06-14T08:02:44Z</time>
      </trkpt>
      <trkpt lat="43.29109" lon="6.04137">
        <ele>517.37890625</ele>
        <time>2014-06-14T08:02:58Z</time>
      </trkpt>
      <trkpt lat="43.29105" lon="6.04142">
        <ele>517.7734375</ele>
        <time>2014-06-14T08:03:01Z</time>
      </trkpt>
      <trkpt lat="43.29079" lon="6.04156">
        <ele>518.2421875</ele>
        <time>2014-06-14T08:03:15Z</time>
      </trkpt>
      <trkpt lat="43.29049" lon="6.04161">
        <ele>517.44140625</ele>
        <time>2014-06-14T08:03:31Z</time>
      </trkpt>
      <trkpt lat="43.29023" lon="6.04195">
        <ele>519.46875</ele>
        <time>2014-06-14T08:03:43Z</time>
      </trkpt>
      <trkpt lat="43.28983" lon="6.04236">
        <ele>520.08984375</ele>
        <time>2014-06-14T08:03:58Z</time>
      </trkpt>
      <trkpt lat="43.28955" lon="6.04262">
        <ele>520.6953125</ele>
        <time>2014-06-14T08:04:11Z</time>
      </trkpt>
      <trkpt lat="43.28902" lon="6.04231">
        <ele>521.72265625</ele>
        <time>2014-06-14T08:04:31Z</time>
      </trkpt>
      <trkpt lat="43.28855" lon="6.0421">
        <ele>523.2578125</ele>
        <time>2014-06-14T08:04:48Z</time>
      </trkpt>
      <trkpt lat="43.28829" lon="6.04236">
        <ele>525.00390625</ele>
        <time>2014-06-14T08:05:02Z</time>
      </trkpt>
      <trkpt lat="43.28818" lon="6.04289">
        <ele>529.0625</ele>
        <time>2014-06-14T08:05:16Z</time>
      </trkpt>
      <trkpt lat="43.28782" lon="6.04336">
        <ele>530.40234375</ele>
        <time>2014-06-14T08:05:33Z</time>
      </trkpt>
      <trkpt lat="43.28756" lon="6.04359">
        <ele>532.05078125</ele>
        <time>2014-06-14T08:05:45Z</time>
      </trkpt>
      <trkpt lat="43.28716" lon="6.04374">
        <ele>533.5</ele>
        <time>2014-06-14T08:06:01Z</time>
      </trkpt>
      <trkpt lat="43.28677" lon="6.04373">
        <ele>534.34375</ele>
        <time>2014-06-14T08:06:16Z</time>
      </trkpt>
      <trkpt lat="43.28636" lon="6.04393">
        <ele>537.37890625</ele>
        <time>2014-06-14T08:06:34Z</time>
      </trkpt>
      <trkpt lat="43.28612" lon="6.04429">
        <ele>539.6875</ele>
        <time>2014-06-14T08:06:49Z</time>
      </trkpt>
      <trkpt lat="43.28605" lon="6.04486">
        <ele>541.984375</ele>
        <time>2014-06-14T08:07:06Z</time>
      </trkpt>
      <trkpt lat="43.28595" lon="6.0454">
        <ele>543.44140625</ele>
        <time>2014-06-14T08:07:22Z</time>
      </trkpt>
      <trkpt lat="43.28579" lon="6.04582">
        <ele>545.5703125</ele>
        <time>2014-06-14T08:07:36Z</time>
      </trkpt>
      <trkpt lat="43.28553" lon="6.0462">
        <ele>547.6328125</ele>
        <time>2014-06-14T08:07:51Z</time>
      </trkpt>
      <trkpt lat="43.2853" lon="6.04667">
        <ele>550.33203125</ele>
        <time>2014-06-14T08:08:08Z</time>
      </trkpt>
      <trkpt lat="43.28514" lon="6.0469">
        <ele>550.5625</ele>
        <time>2014-06-14T08:08:19Z</time>
      </trkpt>
      <trkpt lat="43.28504" lon="6.04718">
        <ele>551.0859375</ele>
        <time>2014-06-14T08:08:35Z</time>
      </trkpt>
      <trkpt lat="43.28495" lon="6.04734">
        <ele>551.4140625</ele>
        <time>2014-06-14T08:08:45Z</time>
      </trkpt>
      <trkpt lat="43.28494" lon="6.04736">
        <ele>551.48828125</ele>
        <time>2014-06-14T08:08:46Z</time>
      </trkpt>
      <trkpt lat="43.28482" lon="6.04759">
        <ele>553.03515625</ele>
        <time>2014-06-14T08:09:00Z</time>
      </trkpt>
      <trkpt lat="43.28482" lon="6.04761">
        <ele>553.07421875</ele>
        <time>2014-06-14T08:09:01Z</time>
      </trkpt>
      <trkpt lat="43.28483" lon="6.04764">
        <ele>553.10546875</ele>
        <time>2014-06-14T08:09:02Z</time>
      </trkpt>
      <trkpt lat="43.28484" lon="6.04766">
        <ele>553.125</ele>
        <time>2014-06-14T08:09:03Z</time>
      </trkpt>
      <trkpt lat="43.28485" lon="6.04769">
        <ele>553.12109375</ele>
        <time>2014-06-14T08:09:04Z</time>
      </trkpt>
      <trkpt lat="43.28487" lon="6.04772">
        <ele>553.109375</ele>
        <time>2014-06-14T08:09:05Z</time>
      </trkpt>
      <trkpt lat="43.28489" lon="6.04774">
        <ele>553.078125</ele>
        <time>2014-06-14T08:09:06Z</time>
      </trkpt>
      <trkpt lat="43.28514" lon="6.04797">
        <ele>554.234375</ele>
        <time>2014-06-14T08:09:15Z</time>
      </trkpt>
      <trkpt lat="43.28518" lon="6.04796">
        <ele>554.67578125</ele>
        <time>2014-06-14T08:09:16Z</time>
      </trkpt>
      <trkpt lat="43.28522" lon="6.04794">
        <ele>554.9765625</ele>
        <time>2014-06-14T08:09:17Z</time>
      </trkpt>
      <trkpt lat="43.28525" lon="6.04791">
        <ele>555.11328125</ele>
        <time>2014-06-14T08:09:18Z</time>
      </trkpt>
      <trkpt lat="43.28528" lon="6.04788">
        <ele>555.1640625</ele>
        <time>2014-06-14T08:09:19Z</time>
      </trkpt>
      <trkpt lat="43.2853" lon="6.04785">
        <ele>555.1171875</ele>
        <time>2014-06-14T08:09:20Z</time>
      </trkpt>
      <trkpt lat="43.28531" lon="6.04782">
        <ele>555</ele>
        <time>2014-06-14T08:09:21Z</time>
      </trkpt>
      <trkpt lat="43.28551" lon="6.04738">
        <ele>553.74609375</ele>
        <time>2014-06-14T08:09:36Z</time>
      </trkpt>
      <trkpt lat="43.28568" lon="6.04694">
        <ele>553.734375</ele>
        <time>2014-06-14T08:09:51Z</time>
      </trkpt>
      <trkpt lat="43.28599" lon="6.0468">
        <ele>554.140625</ele>
        <time>2014-06-14T08:10:05Z</time>
      </trkpt>
      <trkpt lat="43.28628" lon="6.0468">
        <ele>554.0703125</ele>
        <time>2014-06-14T08:10:18Z</time>
      </trkpt>
      <trkpt lat="43.28663" lon="6.047">
        <ele>554.1015625</ele>
        <time>2014-06-14T08:10:33Z</time>
      </trkpt>
      <trkpt lat="43.28695" lon="6.04724">
        <ele>554.6640625</ele>
        <time>2014-06-14T08:10:45Z</time>
      </trkpt>
      <trkpt lat="43.28737" lon="6.04752">
        <ele>552.83203125</ele>
        <time>2014-06-14T08:11:00Z</time>
      </trkpt>
      <trkpt lat="43.28758" lon="6.04785">
        <ele>553.5</ele>
        <time>2014-06-14T08:11:11Z</time>
      </trkpt>
      <trkpt lat="43.28775" lon="6.04825">
        <ele>555.2734375</ele>
        <time>2014-06-14T08:11:23Z</time>
      </trkpt>
      <trkpt lat="43.28777" lon="6.04865">
        <ele>558.984375</ele>
        <time>2014-06-14T08:11:36Z</time>
      </trkpt>
      <trkpt lat="43.28782" lon="6.04876">
        <ele>559.51171875</ele>
        <time>2014-06-14T08:11:42Z</time>
      </trkpt>
      <trkpt lat="43.28789" lon="6.0488">
        <ele>559.5625</ele>
        <time>2014-06-14T08:11:46Z</time>
      </trkpt>
      <trkpt lat="43.2879" lon="6.04881">
        <ele>559.5390625</ele>
        <time>2014-06-14T08:11:47Z</time>
      </trkpt>
      <trkpt lat="43.28819" lon="6.04898">
        <ele>559.765625</ele>
        <time>2014-06-14T08:12:03Z</time>
      </trkpt>
      <trkpt lat="43.28838" lon="6.04921">
        <ele>560.44140625</ele>
        <time>2014-06-14T08:12:17Z</time>
      </trkpt>
      <trkpt lat="43.28851" lon="6.04959">
        <ele>562.578125</ele>
        <time>2014-06-14T08:12:32Z</time>
      </trkpt>
      <trkpt lat="43.28853" lon="6.05">
        <ele>565.5078125</ele>
        <time>2014-06-14T08:12:46Z</time>
      </trkpt>
      <trkpt lat="43.28861" lon="6.05019">
        <ele>566.94140625</ele>
        <time>2014-06-14T08:12:52Z</time>
      </trkpt>
      <trkpt lat="43.28864" lon="6.0502">
        <ele>566.984375</ele>
        <time>2014-06-14T08:12:53Z</time>
      </trkpt>
      <trkpt lat="43.28867" lon="6.05019">
        <ele>566.92578125</ele>
        <time>2014-06-14T08:12:54Z</time>
      </trkpt>
      <trkpt lat="43.28894" lon="6.04998">
        <ele>565.26171875</ele>
        <time>2014-06-14T08:13:07Z</time>
      </trkpt>
      <trkpt lat="43.28904" lon="6.04994">
        <ele>564.6484375</ele>
        <time>2014-06-14T08:13:12Z</time>
      </trkpt>
      <trkpt lat="43.28905" lon="6.04994">
        <ele>564.57421875</ele>
        <time>2014-06-14T08:13:13Z</time>
      </trkpt>
      <trkpt lat="43.28907" lon="6.04994">
        <ele>564.5078125</ele>
        <time>2014-06-14T08:13:14Z</time>
      </trkpt>
      <trkpt lat="43.28909" lon="6.04994">
        <ele>564.4609375</ele>
        <time>2014-06-14T08:13:15Z</time>
      </trkpt>
      <trkpt lat="43.28911" lon="6.04994">
        <ele>564.390625</ele>
        <time>2014-06-14T08:13:16Z</time>
      </trkpt>
      <trkpt lat="43.28936" lon="6.05006">
        <ele>566.27734375</ele>
        <time>2014-06-14T08:13:31Z</time>
      </trkpt>
      <trkpt lat="43.28942" lon="6.05016">
        <ele>567.4453125</ele>
        <time>2014-06-14T08:13:36Z</time>
      </trkpt>
      <trkpt lat="43.28945" lon="6.05026">
        <ele>568.1796875</ele>
        <time>2014-06-14T08:13:40Z</time>
      </trkpt>
      <trkpt lat="43.28946" lon="6.05029">
        <ele>568.2890625</ele>
        <time>2014-06-14T08:13:41Z</time>
      </trkpt>
      <trkpt lat="43.2895" lon="6.05065">
        <ele>570.4453125</ele>
        <time>2014-06-14T08:13:57Z</time>
      </trkpt>
      <trkpt lat="43.28956" lon="6.05097">
        <ele>572.640625</ele>
        <time>2014-06-14T08:14:12Z</time>
      </trkpt>
      <trkpt lat="43.28972" lon="6.05125">
        <ele>575.27734375</ele>
        <time>2014-06-14T08:14:25Z</time>
      </trkpt>
      <trkpt lat="43.28994" lon="6.05138">
        <ele>577.92578125</ele>
        <time>2014-06-14T08:14:35Z</time>
      </trkpt>
      <trkpt lat="43.28997" lon="6.05136">
        <ele>578.03125</ele>
        <time>2014-06-14T08:14:36Z</time>
      </trkpt>
      <trkpt lat="43.28999" lon="6.05134">
        <ele>578.0625</ele>
        <time>2014-06-14T08:14:37Z</time>
      </trkpt>
      <trkpt lat="43.29007" lon="6.05106">
        <ele>577.921875</ele>
        <time>2014-06-14T08:14:47Z</time>
      </trkpt>
      <trkpt lat="43.2901" lon="6.05066">
        <ele>577.6640625</ele>
        <time>2014-06-14T08:15:01Z</time>
      </trkpt>
      <trkpt lat="43.29019" lon="6.05022">
        <ele>579.93359375</ele>
        <time>2014-06-14T08:15:15Z</time>
      </trkpt>
      <trkpt lat="43.29033" lon="6.04978">
        <ele>581.375</ele>
        <time>2014-06-14T08:15:30Z</time>
      </trkpt>
      <trkpt lat="43.29047" lon="6.04947">
        <ele>582.59375</ele>
        <time>2014-06-14T08:15:42Z</time>
      </trkpt>
      <trkpt lat="43.29072" lon="6.04899">
        <ele>583.109375</ele>
        <time>2014-06-14T08:16:00Z</time>
      </trkpt>
      <trkpt lat="43.29085" lon="6.04894">
        <ele>584.4296875</ele>
        <time>2014-06-14T08:16:06Z</time>
      </trkpt>
      <trkpt lat="43.29086" lon="6.04897">
        <ele>584.97265625</ele>
        <time>2014-06-14T08:16:07Z</time>
      </trkpt>
      <trkpt lat="43.29088" lon="6.04899">
        <ele>585.453125</ele>
        <time>2014-06-14T08:16:08Z</time>
      </trkpt>
      <trkpt lat="43.29088" lon="6.04902">
        <ele>585.84765625</ele>
        <time>2014-06-14T08:16:09Z</time>
      </trkpt>
      <trkpt lat="43.29088" lon="6.04905">
        <ele>586.0859375</ele>
        <time>2014-06-14T08:16:10Z</time>
      </trkpt>
      <trkpt lat="43.29088" lon="6.04908">
        <ele>586.265625</ele>
        <time>2014-06-14T08:16:11Z</time>
      </trkpt>
      <trkpt lat="43.29086" lon="6.0491">
        <ele>586.28515625</ele>
        <time>2014-06-14T08:16:12Z</time>
      </trkpt>
      <trkpt lat="43.29084" lon="6.04912">
        <ele>586.16015625</ele>
        <time>2014-06-14T08:16:13Z</time>
      </trkpt>
      <trkpt lat="43.29083" lon="6.04913">
        <ele>586.02734375</ele>
        <time>2014-06-14T08:16:14Z</time>
      </trkpt>
      <trkpt lat="43.29081" lon="6.04915">
        <ele>585.89453125</ele>
        <time>2014-06-14T08:16:15Z</time>
      </trkpt>
      <trkpt lat="43.29079" lon="6.04917">
        <ele>585.79296875</ele>
        <time>2014-06-14T08:16:16Z</time>
      </trkpt>
      <trkpt lat="43.29071" lon="6.04952">
        <ele>586.78125</ele>
        <time>2014-06-14T08:16:29Z</time>
      </trkpt>
      <trkpt lat="43.2907" lon="6.04985">
        <ele>588.09375</ele>
        <time>2014-06-14T08:16:41Z</time>
      </trkpt>
      <trkpt lat="43.29076" lon="6.05016">
        <ele>589.7109375</ele>
        <time>2014-06-14T08:16:55Z</time>
      </trkpt>
      <trkpt lat="43.29085" lon="6.05041">
        <ele>591.0234375</ele>
        <time>2014-06-14T08:17:09Z</time>
      </trkpt>
      <trkpt lat="43.29087" lon="6.05053">
        <ele>591.0625</ele>
        <time>2014-06-14T08:17:15Z</time>
      </trkpt>
      <trkpt lat="43.29087" lon="6.05055">
        <ele>591.046875</ele>
        <time>2014-06-14T08:17:16Z</time>
      </trkpt>
      <trkpt lat="43.29088" lon="6.05057">
        <ele>591.07421875</ele>
        <time>2014-06-14T08:17:17Z</time>
      </trkpt>
      <trkpt lat="43.29106" lon="6.0509">
        <ele>592.359375</ele>
        <time>2014-06-14T08:17:34Z</time>
      </trkpt>
      <trkpt lat="43.29127" lon="6.05111">
        <ele>593.53125</ele>
        <time>2014-06-14T08:17:48Z</time>
      </trkpt>
      <trkpt lat="43.2913" lon="6.05114">
        <ele>593.6484375</ele>
        <time>2014-06-14T08:17:50Z</time>
      </trkpt>
      <trkpt lat="43.29132" lon="6.05116">
        <ele>593.6953125</ele>
        <time>2014-06-14T08:17:51Z</time>
      </trkpt>
      <trkpt lat="43.29133" lon="6.05118">
        <ele>593.734375</ele>
        <time>2014-06-14T08:17:52Z</time>
      </trkpt>
      <trkpt lat="43.29134" lon="6.05119">
        <ele>593.77734375</ele>
        <time>2014-06-14T08:17:53Z</time>
      </trkpt>
      <trkpt lat="43.29135" lon="6.0512">
        <ele>593.82421875</ele>
        <time>2014-06-14T08:17:54Z</time>
      </trkpt>
      <trkpt lat="43.29137" lon="6.05122">
        <ele>593.8828125</ele>
        <time>2014-06-14T08:17:55Z</time>
      </trkpt>
      <trkpt lat="43.29166" lon="6.05137">
        <ele>594.93359375</ele>
        <time>2014-06-14T08:18:10Z</time>
      </trkpt>
      <trkpt lat="43.29176" lon="6.05143">
        <ele>594.70703125</ele>
        <time>2014-06-14T08:18:21Z</time>
      </trkpt>
      <trkpt lat="43.29178" lon="6.05142">
        <ele>594.63671875</ele>
        <time>2014-06-14T08:18:37Z</time>
      </trkpt>
      <trkpt lat="43.29173" lon="6.05143">
        <ele>594.80859375</ele>
        <time>2014-06-14T08:18:58Z</time>
      </trkpt>
      <trkpt lat="43.29172" lon="6.05146">
        <ele>594.83203125</ele>
        <time>2014-06-14T08:19:44Z</time>
      </trkpt>
      <trkpt lat="43.29173" lon="6.05142">
        <ele>594.80078125</ele>
        <time>2014-06-14T08:20:19Z</time>
      </trkpt>
      <trkpt lat="43.29173" lon="6.05139">
        <ele>594.8203125</ele>
        <time>2014-06-14T08:21:00Z</time>
      </trkpt>
      <trkpt lat="43.29174" lon="6.05137">
        <ele>594.76953125</ele>
        <time>2014-06-14T08:21:42Z</time>
      </trkpt>
      <trkpt lat="43.29175" lon="6.05133">
        <ele>594.73046875</ele>
        <time>2014-06-14T08:22:21Z</time>
      </trkpt>
      <trkpt lat="43.29167" lon="6.05135">
        <ele>594.9609375</ele>
        <time>2014-06-14T08:22:55Z</time>
      </trkpt>
      <trkpt lat="43.29174" lon="6.05139">
        <ele>594.7890625</ele>
        <time>2014-06-14T08:23:32Z</time>
      </trkpt>
      <trkpt lat="43.29178" lon="6.05143">
        <ele>594.6328125</ele>
        <time>2014-06-14T08:24:12Z</time>
      </trkpt>
      <trkpt lat="43.29175" lon="6.05145">
        <ele>594.7421875</ele>
        <time>2014-06-14T08:24:46Z</time>
      </trkpt>
      <trkpt lat="43.29176" lon="6.05142">
        <ele>594.69140625</ele>
        <time>2014-06-14T08:25:30Z</time>
      </trkpt>
      <trkpt lat="43.29175" lon="6.05142">
        <ele>594.734375</ele>
        <time>2014-06-14T08:26:12Z</time>
      </trkpt>
      <trkpt lat="43.29173" lon="6.05141">
        <ele>594.83203125</ele>
        <time>2014-06-14T08:26:56Z</time>
      </trkpt>
      <trkpt lat="43.29172" lon="6.05138">
        <ele>594.84765625</ele>
        <time>2014-06-14T08:27:21Z</time>
      </trkpt>
      <trkpt lat="43.29178" lon="6.05143">
        <ele>594.625</ele>
        <time>2014-06-14T08:27:42Z</time>
      </trkpt>
      <trkpt lat="43.2918" lon="6.05144">
        <ele>594.5625</ele>
        <time>2014-06-14T08:28:01Z</time>
      </trkpt>
      <trkpt lat="43.29192" lon="6.05151">
        <ele>594.12890625</ele>
        <time>2014-06-14T08:28:16Z</time>
      </trkpt>
      <trkpt lat="43.29213" lon="6.05164">
        <ele>592.7109375</ele>
        <time>2014-06-14T08:28:30Z</time>
      </trkpt>
      <trkpt lat="43.29241" lon="6.05195">
        <ele>589.92578125</ele>
        <time>2014-06-14T08:28:46Z</time>
      </trkpt>
      <trkpt lat="43.29248" lon="6.05206">
        <ele>588.77734375</ele>
        <time>2014-06-14T08:28:58Z</time>
      </trkpt>
      <trkpt lat="43.29253" lon="6.05227">
        <ele>587.57421875</ele>
        <time>2014-06-14T08:29:10Z</time>
      </trkpt>
      <trkpt lat="43.29253" lon="6.05236">
        <ele>587.56640625</ele>
        <time>2014-06-14T08:29:13Z</time>
      </trkpt>
      <trkpt lat="43.29252" lon="6.05238">
        <ele>587.765625</ele>
        <time>2014-06-14T08:29:14Z</time>
      </trkpt>
      <trkpt lat="43.29251" lon="6.0524">
        <ele>588.03515625</ele>
        <time>2014-06-14T08:29:15Z</time>
      </trkpt>
      <trkpt lat="43.29249" lon="6.05242">
        <ele>588.23828125</ele>
        <time>2014-06-14T08:29:16Z</time>
      </trkpt>
      <trkpt lat="43.29248" lon="6.05244">
        <ele>588.44140625</ele>
        <time>2014-06-14T08:29:17Z</time>
      </trkpt>
      <trkpt lat="43.29246" lon="6.05245">
        <ele>588.67578125</ele>
        <time>2014-06-14T08:29:18Z</time>
      </trkpt>
      <trkpt lat="43.29244" lon="6.05246">
        <ele>588.98046875</ele>
        <time>2014-06-14T08:29:19Z</time>
      </trkpt>
      <trkpt lat="43.29242" lon="6.05246">
        <ele>589.30859375</ele>
        <time>2014-06-14T08:29:20Z</time>
      </trkpt>
      <trkpt lat="43.29238" lon="6.05246">
        <ele>589.8671875</ele>
        <time>2014-06-14T08:29:22Z</time>
      </trkpt>
      <trkpt lat="43.29237" lon="6.05247">
        <ele>590.0859375</ele>
        <time>2014-06-14T08:29:23Z</time>
      </trkpt>
      <trkpt lat="43.29235" lon="6.05247">
        <ele>590.27734375</ele>
        <time>2014-06-14T08:29:24Z</time>
      </trkpt>
      <trkpt lat="43.29234" lon="6.05248">
        <ele>590.4453125</ele>
        <time>2014-06-14T08:29:25Z</time>
      </trkpt>
      <trkpt lat="43.29233" lon="6.05249">
        <ele>590.63671875</ele>
        <time>2014-06-14T08:29:26Z</time>
      </trkpt>
      <trkpt lat="43.29231" lon="6.0525">
        <ele>590.84765625</ele>
        <time>2014-06-14T08:29:27Z</time>
      </trkpt>
      <trkpt lat="43.2923" lon="6.05251">
        <ele>591.0546875</ele>
        <time>2014-06-14T08:29:28Z</time>
      </trkpt>
      <trkpt lat="43.29228" lon="6.05251">
        <ele>591.26171875</ele>
        <time>2014-06-14T08:29:29Z</time>
      </trkpt>
      <trkpt lat="43.29227" lon="6.05252">
        <ele>591.51171875</ele>
        <time>2014-06-14T08:29:30Z</time>
      </trkpt>
      <trkpt lat="43.29197" lon="6.05274">
        <ele>595.90625</ele>
        <time>2014-06-14T08:29:47Z</time>
      </trkpt>
      <trkpt lat="43.29186" lon="6.0531">
        <ele>598.55078125</ele>
        <time>2014-06-14T08:29:59Z</time>
      </trkpt>
      <trkpt lat="43.29177" lon="6.05341">
        <ele>601.29296875</ele>
        <time>2014-06-14T08:30:12Z</time>
      </trkpt>
      <trkpt lat="43.29169" lon="6.05373">
        <ele>604.26953125</ele>
        <time>2014-06-14T08:30:26Z</time>
      </trkpt>
      <trkpt lat="43.29156" lon="6.05391">
        <ele>606.58984375</ele>
        <time>2014-06-14T08:30:39Z</time>
      </trkpt>
      <trkpt lat="43.29142" lon="6.0541">
        <ele>608.96875</ele>
        <time>2014-06-14T08:30:50Z</time>
      </trkpt>
      <trkpt lat="43.29131" lon="6.05448">
        <ele>612.00390625</ele>
        <time>2014-06-14T08:31:07Z</time>
      </trkpt>
      <trkpt lat="43.2913" lon="6.0546">
        <ele>612.7421875</ele>
        <time>2014-06-14T08:31:18Z</time>
      </trkpt>
      <trkpt lat="43.2913" lon="6.05462">
        <ele>612.8515625</ele>
        <time>2014-06-14T08:31:19Z</time>
      </trkpt>
      <trkpt lat="43.2913" lon="6.05464">
        <ele>612.96875</ele>
        <time>2014-06-14T08:31:20Z</time>
      </trkpt>
      <trkpt lat="43.2913" lon="6.05466">
        <ele>613.1015625</ele>
        <time>2014-06-14T08:31:21Z</time>
      </trkpt>
      <trkpt lat="43.2913" lon="6.05468">
        <ele>613.23828125</ele>
        <time>2014-06-14T08:31:22Z</time>
      </trkpt>
      <trkpt lat="43.2913" lon="6.0547">
        <ele>613.3828125</ele>
        <time>2014-06-14T08:31:23Z</time>
      </trkpt>
      <trkpt lat="43.2913" lon="6.05472">
        <ele>613.52734375</ele>
        <time>2014-06-14T08:31:24Z</time>
      </trkpt>
      <trkpt lat="43.29129" lon="6.05481">
        <ele>614.19140625</ele>
        <time>2014-06-14T08:31:29Z</time>
      </trkpt>
      <trkpt lat="43.29127" lon="6.05514">
        <ele>612.328125</ele>
        <time>2014-06-14T08:31:45Z</time>
      </trkpt>
      <trkpt lat="43.29129" lon="6.05541">
        <ele>608.25</ele>
        <time>2014-06-14T08:31:59Z</time>
      </trkpt>
      <trkpt lat="43.29137" lon="6.05549">
        <ele>607.1875</ele>
        <time>2014-06-14T08:32:10Z</time>
      </trkpt>
      <trkpt lat="43.2914" lon="6.05553">
        <ele>606.25</ele>
        <time>2014-06-14T08:32:14Z</time>
      </trkpt>
      <trkpt lat="43.29148" lon="6.05558">
        <ele>604.171875</ele>
        <time>2014-06-14T08:32:20Z</time>
      </trkpt>
      <trkpt lat="43.2915" lon="6.05574">
        <ele>598.578125</ele>
        <time>2014-06-14T08:32:29Z</time>
      </trkpt>
      <trkpt lat="43.29151" lon="6.05587">
        <ele>592.58203125</ele>
        <time>2014-06-14T08:32:43Z</time>
      </trkpt>
      <trkpt lat="43.29151" lon="6.05587">
        <ele>592.19140625</ele>
        <time>2014-06-14T08:33:08Z</time>
      </trkpt>
      <trkpt lat="43.29153" lon="6.05584">
        <ele>593.65234375</ele>
        <time>2014-06-14T08:33:38Z</time>
      </trkpt>
      <trkpt lat="43.29153" lon="6.05586">
        <ele>592.87890625</ele>
        <time>2014-06-14T08:34:03Z</time>
      </trkpt>
      <trkpt lat="43.29152" lon="6.05585">
        <ele>593.3125</ele>
        <time>2014-06-14T08:34:18Z</time>
      </trkpt>
      <trkpt lat="43.29153" lon="6.05579">
        <ele>596.39453125</ele>
        <time>2014-06-14T08:34:24Z</time>
      </trkpt>
      <trkpt lat="43.29137" lon="6.05548">
        <ele>607.8125</ele>
        <time>2014-06-14T08:34:36Z</time>
      </trkpt>
      <trkpt lat="43.29117" lon="6.05534">
        <ele>608.75390625</ele>
        <time>2014-06-14T08:34:46Z</time>
      </trkpt>
      <trkpt lat="43.29097" lon="6.05526">
        <ele>606.73046875</ele>
        <time>2014-06-14T08:34:58Z</time>
      </trkpt>
      <trkpt lat="43.29065" lon="6.05523">
        <ele>601.390625</ele>
        <time>2014-06-14T08:35:12Z</time>
      </trkpt>
      <trkpt lat="43.29045" lon="6.05517">
        <ele>600.18359375</ele>
        <time>2014-06-14T08:35:17Z</time>
      </trkpt>
      <trkpt lat="43.29035" lon="6.05512">
        <ele>600.12890625</ele>
        <time>2014-06-14T08:35:19Z</time>
      </trkpt>
      <trkpt lat="43.29031" lon="6.05511">
        <ele>599.80859375</ele>
        <time>2014-06-14T08:35:20Z</time>
      </trkpt>
      <trkpt lat="43.29026" lon="6.05511">
        <ele>599.23828125</ele>
        <time>2014-06-14T08:35:21Z</time>
      </trkpt>
      <trkpt lat="43.29022" lon="6.05512">
        <ele>598.5078125</ele>
        <time>2014-06-14T08:35:22Z</time>
      </trkpt>
      <trkpt lat="43.29018" lon="6.05514">
        <ele>597.671875</ele>
        <time>2014-06-14T08:35:23Z</time>
      </trkpt>
      <trkpt lat="43.28992" lon="6.05518">
        <ele>594.1796875</ele>
        <time>2014-06-14T08:35:30Z</time>
      </trkpt>
      <trkpt lat="43.28984" lon="6.05517">
        <ele>594.3359375</ele>
        <time>2014-06-14T08:35:32Z</time>
      </trkpt>
      <trkpt lat="43.2898" lon="6.05516">
        <ele>594.37109375</ele>
        <time>2014-06-14T08:35:33Z</time>
      </trkpt>
      <trkpt lat="43.28976" lon="6.05515">
        <ele>594.6640625</ele>
        <time>2014-06-14T08:35:34Z</time>
      </trkpt>
      <trkpt lat="43.28944" lon="6.05502">
        <ele>599.33203125</ele>
        <time>2014-06-14T08:35:45Z</time>
      </trkpt>
      <trkpt lat="43.28936" lon="6.05505">
        <ele>598.8515625</ele>
        <time>2014-06-14T08:35:57Z</time>
      </trkpt>
      <trkpt lat="43.28934" lon="6.05504">
        <ele>599.2578125</ele>
        <time>2014-06-14T08:36:22Z</time>
      </trkpt>
      <trkpt lat="43.28931" lon="6.05505">
        <ele>599.1796875</ele>
        <time>2014-06-14T08:36:32Z</time>
      </trkpt>
      <trkpt lat="43.28914" lon="6.05511">
        <ele>599.25390625</ele>
        <time>2014-06-14T08:36:46Z</time>
      </trkpt>
      <trkpt lat="43.28912" lon="6.05512">
        <ele>599.48046875</ele>
        <time>2014-06-14T08:36:47Z</time>
      </trkpt>
      <trkpt lat="43.28908" lon="6.05514">
        <ele>600.05859375</ele>
        <time>2014-06-14T08:36:53Z</time>
      </trkpt>
      <trkpt lat="43.289" lon="6.05517">
        <ele>601.5234375</ele>
        <time>2014-06-14T08:37:04Z</time>
      </trkpt>
      <trkpt lat="43.28889" lon="6.0552">
        <ele>604.28125</ele>
        <time>2014-06-14T08:37:17Z</time>
      </trkpt>
      <trkpt lat="43.2888" lon="6.05519">
        <ele>607.0703125</ele>
        <time>2014-06-14T08:37:31Z</time>
      </trkpt>
      <trkpt lat="43.28874" lon="6.05524">
        <ele>608.1015625</ele>
        <time>2014-06-14T08:37:44Z</time>
      </trkpt>
      <trkpt lat="43.28864" lon="6.05528">
        <ele>610.81640625</ele>
        <time>2014-06-14T08:38:06Z</time>
      </trkpt>
      <trkpt lat="43.28864" lon="6.05531">
        <ele>610.77734375</ele>
        <time>2014-06-14T08:38:20Z</time>
      </trkpt>
      <trkpt lat="43.28855" lon="6.05534">
        <ele>613.29296875</ele>
        <time>2014-06-14T08:38:33Z</time>
      </trkpt>
      <trkpt lat="43.28848" lon="6.05535">
        <ele>615.78515625</ele>
        <time>2014-06-14T08:38:46Z</time>
      </trkpt>
      <trkpt lat="43.28843" lon="6.05536">
        <ele>617.19140625</ele>
        <time>2014-06-14T08:38:58Z</time>
      </trkpt>
      <trkpt lat="43.28833" lon="6.05536">
        <ele>620.5078125</ele>
        <time>2014-06-14T08:39:13Z</time>
      </trkpt>
      <trkpt lat="43.28829" lon="6.05544">
        <ele>621.953125</ele>
        <time>2014-06-14T08:39:29Z</time>
      </trkpt>
      <trkpt lat="43.28824" lon="6.0555">
        <ele>623.515625</ele>
        <time>2014-06-14T08:39:43Z</time>
      </trkpt>
      <trkpt lat="43.28821" lon="6.05551">
        <ele>624.38671875</ele>
        <time>2014-06-14T08:40:05Z</time>
      </trkpt>
      <trkpt lat="43.28816" lon="6.05558">
        <ele>625.66796875</ele>
        <time>2014-06-14T08:40:21Z</time>
      </trkpt>
      <trkpt lat="43.28808" lon="6.05557">
        <ele>628.703125</ele>
        <time>2014-06-14T08:40:35Z</time>
      </trkpt>
      <trkpt lat="43.28803" lon="6.05562">
        <ele>630.06640625</ele>
        <time>2014-06-14T08:40:50Z</time>
      </trkpt>
      <trkpt lat="43.28798" lon="6.05567">
        <ele>631.890625</ele>
        <time>2014-06-14T08:41:02Z</time>
      </trkpt>
      <trkpt lat="43.28789" lon="6.05572">
        <ele>634.625</ele>
        <time>2014-06-14T08:41:19Z</time>
      </trkpt>
      <trkpt lat="43.28777" lon="6.05572">
        <ele>638.44140625</ele>
        <time>2014-06-14T08:41:34Z</time>
      </trkpt>
      <trkpt lat="43.28773" lon="6.05572">
        <ele>639.625</ele>
        <time>2014-06-14T08:41:48Z</time>
      </trkpt>
      <trkpt lat="43.28774" lon="6.05573">
        <ele>639.35546875</ele>
        <time>2014-06-14T08:42:12Z</time>
      </trkpt>
      <trkpt lat="43.28773" lon="6.05573">
        <ele>639.68359375</ele>
        <time>2014-06-14T08:42:42Z</time>
      </trkpt>
      <trkpt lat="43.28771" lon="6.05582">
        <ele>640.65625</ele>
        <time>2014-06-14T08:42:53Z</time>
      </trkpt>
      <trkpt lat="43.2877" lon="6.05588">
        <ele>640.96484375</ele>
        <time>2014-06-14T08:43:06Z</time>
      </trkpt>
      <trkpt lat="43.28764" lon="6.05611">
        <ele>643.37109375</ele>
        <time>2014-06-14T08:43:21Z</time>
      </trkpt>
      <trkpt lat="43.28763" lon="6.05612">
        <ele>643.63671875</ele>
        <time>2014-06-14T08:43:22Z</time>
      </trkpt>
      <trkpt lat="43.28762" lon="6.05613">
        <ele>643.86328125</ele>
        <time>2014-06-14T08:43:23Z</time>
      </trkpt>
      <trkpt lat="43.28761" lon="6.05615">
        <ele>644.0390625</ele>
        <time>2014-06-14T08:43:24Z</time>
      </trkpt>
      <trkpt lat="43.2876" lon="6.05616">
        <ele>644.28125</ele>
        <time>2014-06-14T08:43:25Z</time>
      </trkpt>
      <trkpt lat="43.28759" lon="6.05617">
        <ele>644.5390625</ele>
        <time>2014-06-14T08:43:26Z</time>
      </trkpt>
      <trkpt lat="43.28756" lon="6.05618">
        <ele>645.55078125</ele>
        <time>2014-06-14T08:43:30Z</time>
      </trkpt>
      <trkpt lat="43.28752" lon="6.05621">
        <ele>646.79296875</ele>
        <time>2014-06-14T08:43:34Z</time>
      </trkpt>
      <trkpt lat="43.28751" lon="6.05622">
        <ele>647.140625</ele>
        <time>2014-06-14T08:43:35Z</time>
      </trkpt>
      <trkpt lat="43.28746" lon="6.05625">
        <ele>648.51171875</ele>
        <time>2014-06-14T08:43:39Z</time>
      </trkpt>
      <trkpt lat="43.28745" lon="6.05627">
        <ele>648.78515625</ele>
        <time>2014-06-14T08:43:40Z</time>
      </trkpt>
      <trkpt lat="43.28745" lon="6.05629">
        <ele>648.96875</ele>
        <time>2014-06-14T08:43:41Z</time>
      </trkpt>
      <trkpt lat="43.28744" lon="6.05631">
        <ele>649.203125</ele>
        <time>2014-06-14T08:43:42Z</time>
      </trkpt>
      <trkpt lat="43.28743" lon="6.05632">
        <ele>649.4765625</ele>
        <time>2014-06-14T08:43:43Z</time>
      </trkpt>
      <trkpt lat="43.28742" lon="6.05634">
        <ele>649.71875</ele>
        <time>2014-06-14T08:43:44Z</time>
      </trkpt>
      <trkpt lat="43.28741" lon="6.05635">
        <ele>649.91796875</ele>
        <time>2014-06-14T08:43:45Z</time>
      </trkpt>
      <trkpt lat="43.2874" lon="6.05636">
        <ele>650.265625</ele>
        <time>2014-06-14T08:43:46Z</time>
      </trkpt>
      <trkpt lat="43.28739" lon="6.05637">
        <ele>650.67578125</ele>
        <time>2014-06-14T08:43:47Z</time>
      </trkpt>
      <trkpt lat="43.28737" lon="6.05638">
        <ele>651.0390625</ele>
        <time>2014-06-14T08:43:48Z</time>
      </trkpt>
      <trkpt lat="43.28736" lon="6.05639">
        <ele>651.328125</ele>
        <time>2014-06-14T08:43:49Z</time>
      </trkpt>
      <trkpt lat="43.28736" lon="6.0564">
        <ele>651.5859375</ele>
        <time>2014-06-14T08:43:50Z</time>
      </trkpt>
      <trkpt lat="43.28727" lon="6.0565">
        <ele>654.6015625</ele>
        <time>2014-06-14T08:44:05Z</time>
      </trkpt>
      <trkpt lat="43.28726" lon="6.05651">
        <ele>654.94921875</ele>
        <time>2014-06-14T08:44:17Z</time>
      </trkpt>
      <trkpt lat="43.28727" lon="6.0565">
        <ele>654.6484375</ele>
        <time>2014-06-14T08:44:48Z</time>
      </trkpt>
      <trkpt lat="43.28723" lon="6.05655">
        <ele>655.9921875</ele>
        <time>2014-06-14T08:45:18Z</time>
      </trkpt>
      <trkpt lat="43.28722" lon="6.05657">
        <ele>656.17578125</ele>
        <time>2014-06-14T08:45:19Z</time>
      </trkpt>
      <trkpt lat="43.28714" lon="6.05665">
        <ele>657.69921875</ele>
        <time>2014-06-14T08:45:27Z</time>
      </trkpt>
      <trkpt lat="43.28713" lon="6.05667">
        <ele>657.87109375</ele>
        <time>2014-06-14T08:45:28Z</time>
      </trkpt>
      <trkpt lat="43.28711" lon="6.05672">
        <ele>658.26171875</ele>
        <time>2014-06-14T08:45:31Z</time>
      </trkpt>
      <trkpt lat="43.28711" lon="6.05674">
        <ele>658.30859375</ele>
        <time>2014-06-14T08:45:32Z</time>
      </trkpt>
      <trkpt lat="43.2871" lon="6.05676">
        <ele>658.4375</ele>
        <time>2014-06-14T08:45:33Z</time>
      </trkpt>
      <trkpt lat="43.28709" lon="6.05678">
        <ele>658.58203125</ele>
        <time>2014-06-14T08:45:34Z</time>
      </trkpt>
      <trkpt lat="43.28709" lon="6.0568">
        <ele>658.7421875</ele>
        <time>2014-06-14T08:45:35Z</time>
      </trkpt>
      <trkpt lat="43.28708" lon="6.05682">
        <ele>658.89453125</ele>
        <time>2014-06-14T08:45:36Z</time>
      </trkpt>
      <trkpt lat="43.28695" lon="6.05702">
        <ele>662.0703125</ele>
        <time>2014-06-14T08:45:51Z</time>
      </trkpt>
      <trkpt lat="43.28695" lon="6.05704">
        <ele>662.15625</ele>
        <time>2014-06-14T08:45:52Z</time>
      </trkpt>
      <trkpt lat="43.28694" lon="6.05705">
        <ele>662.2265625</ele>
        <time>2014-06-14T08:45:53Z</time>
      </trkpt>
      <trkpt lat="43.28694" lon="6.05707">
        <ele>662.26953125</ele>
        <time>2014-06-14T08:45:54Z</time>
      </trkpt>
      <trkpt lat="43.28694" lon="6.05709">
        <ele>662.30859375</ele>
        <time>2014-06-14T08:45:55Z</time>
      </trkpt>
      <trkpt lat="43.28693" lon="6.05711">
        <ele>662.3515625</ele>
        <time>2014-06-14T08:45:56Z</time>
      </trkpt>
      <trkpt lat="43.28693" lon="6.05719">
        <ele>662.421875</ele>
        <time>2014-06-14T08:46:00Z</time>
      </trkpt>
      <trkpt lat="43.28693" lon="6.05721">
        <ele>662.53125</ele>
        <time>2014-06-14T08:46:01Z</time>
      </trkpt>
      <trkpt lat="43.28687" lon="6.05729">
        <ele>663.5546875</ele>
        <time>2014-06-14T08:46:07Z</time>
      </trkpt>
      <trkpt lat="43.28687" lon="6.0573">
        <ele>663.7265625</ele>
        <time>2014-06-14T08:46:08Z</time>
      </trkpt>
      <trkpt lat="43.28686" lon="6.05732">
        <ele>663.95703125</ele>
        <time>2014-06-14T08:46:09Z</time>
      </trkpt>
      <trkpt lat="43.28685" lon="6.05733">
        <ele>664.140625</ele>
        <time>2014-06-14T08:46:10Z</time>
      </trkpt>
      <trkpt lat="43.28684" lon="6.05734">
        <ele>664.29296875</ele>
        <time>2014-06-14T08:46:11Z</time>
      </trkpt>
      <trkpt lat="43.2868" lon="6.05743">
        <ele>665.51953125</ele>
        <time>2014-06-14T08:46:17Z</time>
      </trkpt>
      <trkpt lat="43.2868" lon="6.05745">
        <ele>665.55859375</ele>
        <time>2014-06-14T08:46:18Z</time>
      </trkpt>
      <trkpt lat="43.28679" lon="6.05747">
        <ele>665.59765625</ele>
        <time>2014-06-14T08:46:19Z</time>
      </trkpt>
      <trkpt lat="43.28679" lon="6.05749">
        <ele>665.63671875</ele>
        <time>2014-06-14T08:46:20Z</time>
      </trkpt>
      <trkpt lat="43.28679" lon="6.05751">
        <ele>665.671875</ele>
        <time>2014-06-14T08:46:21Z</time>
      </trkpt>
      <trkpt lat="43.28672" lon="6.05779">
        <ele>667.91796875</ele>
        <time>2014-06-14T08:46:37Z</time>
      </trkpt>
      <trkpt lat="43.2867" lon="6.05786">
        <ele>668.4921875</ele>
        <time>2014-06-14T08:46:41Z</time>
      </trkpt>
      <trkpt lat="43.28669" lon="6.05787">
        <ele>668.72265625</ele>
        <time>2014-06-14T08:46:42Z</time>
      </trkpt>
      <trkpt lat="43.28668" lon="6.05789">
        <ele>668.93359375</ele>
        <time>2014-06-14T08:46:43Z</time>
      </trkpt>
      <trkpt lat="43.28668" lon="6.0579">
        <ele>669.12109375</ele>
        <time>2014-06-14T08:46:44Z</time>
      </trkpt>
      <trkpt lat="43.28667" lon="6.05792">
        <ele>669.296875</ele>
        <time>2014-06-14T08:46:45Z</time>
      </trkpt>
      <trkpt lat="43.28666" lon="6.05793">
        <ele>669.49609375</ele>
        <time>2014-06-14T08:46:46Z</time>
      </trkpt>
      <trkpt lat="43.28662" lon="6.05806">
        <ele>670.75</ele>
        <time>2014-06-14T08:46:54Z</time>
      </trkpt>
      <trkpt lat="43.28662" lon="6.05827">
        <ele>670.8359375</ele>
        <time>2014-06-14T08:47:08Z</time>
      </trkpt>
      <trkpt lat="43.28663" lon="6.05845">
        <ele>668.609375</ele>
        <time>2014-06-14T08:47:22Z</time>
      </trkpt>
      <trkpt lat="43.28652" lon="6.05857">
        <ele>671.9140625</ele>
        <time>2014-06-14T08:47:37Z</time>
      </trkpt>
      <trkpt lat="43.28645" lon="6.05865">
        <ele>674.140625</ele>
        <time>2014-06-14T08:47:51Z</time>
      </trkpt>
      <trkpt lat="43.28645" lon="6.05863">
        <ele>674.27734375</ele>
        <time>2014-06-14T08:48:11Z</time>
      </trkpt>
      <trkpt lat="43.28645" lon="6.05865">
        <ele>674.12890625</ele>
        <time>2014-06-14T08:48:40Z</time>
      </trkpt>
      <trkpt lat="43.28644" lon="6.05868">
        <ele>674.55078125</ele>
        <time>2014-06-14T08:48:58Z</time>
      </trkpt>
      <trkpt lat="43.28643" lon="6.0587">
        <ele>674.82421875</ele>
        <time>2014-06-14T08:49:01Z</time>
      </trkpt>
      <trkpt lat="43.28631" lon="6.0589">
        <ele>676.9140625</ele>
        <time>2014-06-14T08:49:15Z</time>
      </trkpt>
      <trkpt lat="43.28622" lon="6.05903">
        <ele>678.96484375</ele>
        <time>2014-06-14T08:49:29Z</time>
      </trkpt>
      <trkpt lat="43.28613" lon="6.05921">
        <ele>680.11328125</ele>
        <time>2014-06-14T08:49:49Z</time>
      </trkpt>
      <trkpt lat="43.28604" lon="6.05926">
        <ele>682.984375</ele>
        <time>2014-06-14T08:50:05Z</time>
      </trkpt>
      <trkpt lat="43.28598" lon="6.05932">
        <ele>684.8203125</ele>
        <time>2014-06-14T08:50:18Z</time>
      </trkpt>
      <trkpt lat="43.28591" lon="6.05937">
        <ele>687.015625</ele>
        <time>2014-06-14T08:50:26Z</time>
      </trkpt>
      <trkpt lat="43.28584" lon="6.05948">
        <ele>688.80859375</ele>
        <time>2014-06-14T08:50:39Z</time>
      </trkpt>
      <trkpt lat="43.28584" lon="6.05948">
        <ele>688.72265625</ele>
        <time>2014-06-14T08:50:59Z</time>
      </trkpt>
      <trkpt lat="43.28584" lon="6.05947">
        <ele>688.875</ele>
        <time>2014-06-14T08:51:38Z</time>
      </trkpt>
      <trkpt lat="43.28581" lon="6.05948">
        <ele>688.87109375</ele>
        <time>2014-06-14T08:52:22Z</time>
      </trkpt>
      <trkpt lat="43.28581" lon="6.05947">
        <ele>688.8828125</ele>
        <time>2014-06-14T08:53:07Z</time>
      </trkpt>
      <trkpt lat="43.28582" lon="6.05945">
        <ele>689.08984375</ele>
        <time>2014-06-14T08:53:51Z</time>
      </trkpt>
      <trkpt lat="43.28583" lon="6.05947">
        <ele>688.91015625</ele>
        <time>2014-06-14T08:54:43Z</time>
      </trkpt>
      <trkpt lat="43.28584" lon="6.05947">
        <ele>688.84765625</ele>
        <time>2014-06-14T08:55:36Z</time>
      </trkpt>
      <trkpt lat="43.28582" lon="6.05946">
        <ele>688.98046875</ele>
        <time>2014-06-14T08:56:21Z</time>
      </trkpt>
      <trkpt lat="43.28582" lon="6.05947">
        <ele>688.9609375</ele>
        <time>2014-06-14T08:56:58Z</time>
      </trkpt>
      <trkpt lat="43.28583" lon="6.05945">
        <ele>689.09765625</ele>
        <time>2014-06-14T08:57:32Z</time>
      </trkpt>
      <trkpt lat="43.28584" lon="6.05947">
        <ele>688.87109375</ele>
        <time>2014-06-14T08:58:03Z</time>
      </trkpt>
      <trkpt lat="43.28584" lon="6.05947">
        <ele>688.875</ele>
        <time>2014-06-14T08:58:35Z</time>
      </trkpt>
      <trkpt lat="43.28584" lon="6.05947">
        <ele>688.86328125</ele>
        <time>2014-06-14T08:59:10Z</time>
      </trkpt>
      <trkpt lat="43.28585" lon="6.05947">
        <ele>688.82421875</ele>
        <time>2014-06-14T08:59:28Z</time>
      </trkpt>
      <trkpt lat="43.28587" lon="6.05956">
        <ele>686.953125</ele>
        <time>2014-06-14T08:59:47Z</time>
      </trkpt>
      <trkpt lat="43.28581" lon="6.05963">
        <ele>687.09765625</ele>
        <time>2014-06-14T08:59:59Z</time>
      </trkpt>
      <trkpt lat="43.28577" lon="6.05965">
        <ele>686.58984375</ele>
        <time>2014-06-14T09:00:15Z</time>
      </trkpt>
      <trkpt lat="43.28575" lon="6.05963">
        <ele>687.09765625</ele>
        <time>2014-06-14T09:00:19Z</time>
      </trkpt>
      <trkpt lat="43.28574" lon="6.05962">
        <ele>687.29296875</ele>
        <time>2014-06-14T09:00:20Z</time>
      </trkpt>
      <trkpt lat="43.28574" lon="6.0596">
        <ele>687.515625</ele>
        <time>2014-06-14T09:00:21Z</time>
      </trkpt>
      <trkpt lat="43.28573" lon="6.05958">
        <ele>687.75390625</ele>
        <time>2014-06-14T09:00:22Z</time>
      </trkpt>
      <trkpt lat="43.28571" lon="6.05957">
        <ele>687.94140625</ele>
        <time>2014-06-14T09:00:23Z</time>
      </trkpt>
      <trkpt lat="43.28568" lon="6.05955">
        <ele>688.23828125</ele>
        <time>2014-06-14T09:00:27Z</time>
      </trkpt>
      <trkpt lat="43.28563" lon="6.05948">
        <ele>689.24609375</ele>
        <time>2014-06-14T09:00:35Z</time>
      </trkpt>
      <trkpt lat="43.2856" lon="6.05944">
        <ele>689.83984375</ele>
        <time>2014-06-14T09:00:41Z</time>
      </trkpt>
      <trkpt lat="43.28559" lon="6.05942">
        <ele>690.125</ele>
        <time>2014-06-14T09:00:42Z</time>
      </trkpt>
      <trkpt lat="43.28559" lon="6.0594">
        <ele>690.48046875</ele>
        <time>2014-06-14T09:00:43Z</time>
      </trkpt>
      <trkpt lat="43.28559" lon="6.05937">
        <ele>690.85546875</ele>
        <time>2014-06-14T09:00:44Z</time>
      </trkpt>
      <trkpt lat="43.28559" lon="6.05934">
        <ele>691.01171875</ele>
        <time>2014-06-14T09:00:45Z</time>
      </trkpt>
      <trkpt lat="43.28557" lon="6.05932">
        <ele>691.12890625</ele>
        <time>2014-06-14T09:00:46Z</time>
      </trkpt>
      <trkpt lat="43.28556" lon="6.05931">
        <ele>691.08984375</ele>
        <time>2014-06-14T09:00:47Z</time>
      </trkpt>
      <trkpt lat="43.28555" lon="6.05929">
        <ele>691.01171875</ele>
        <time>2014-06-14T09:00:51Z</time>
      </trkpt>
      <trkpt lat="43.28554" lon="6.05928">
        <ele>691.01953125</ele>
        <time>2014-06-14T09:00:52Z</time>
      </trkpt>
      <trkpt lat="43.28553" lon="6.05927">
        <ele>690.984375</ele>
        <time>2014-06-14T09:00:53Z</time>
      </trkpt>
      <trkpt lat="43.28548" lon="6.05923">
        <ele>690.671875</ele>
        <time>2014-06-14T09:01:01Z</time>
      </trkpt>
      <trkpt lat="43.28546" lon="6.05921">
        <ele>690.5859375</ele>
        <time>2014-06-14T09:01:02Z</time>
      </trkpt>
      <trkpt lat="43.28544" lon="6.05918">
        <ele>690.5625</ele>
        <time>2014-06-14T09:01:03Z</time>
      </trkpt>
      <trkpt lat="43.28543" lon="6.05916">
        <ele>690.58203125</ele>
        <time>2014-06-14T09:01:04Z</time>
      </trkpt>
      <trkpt lat="43.28541" lon="6.05914">
        <ele>690.55859375</ele>
        <time>2014-06-14T09:01:05Z</time>
      </trkpt>
      <trkpt lat="43.28539" lon="6.05913">
        <ele>690.4296875</ele>
        <time>2014-06-14T09:01:06Z</time>
      </trkpt>
      <trkpt lat="43.28536" lon="6.05913">
        <ele>690.23046875</ele>
        <time>2014-06-14T09:01:07Z</time>
      </trkpt>
      <trkpt lat="43.28533" lon="6.05912">
        <ele>690.05078125</ele>
        <time>2014-06-14T09:01:08Z</time>
      </trkpt>
      <trkpt lat="43.28532" lon="6.05911">
        <ele>690.00390625</ele>
        <time>2014-06-14T09:01:09Z</time>
      </trkpt>
      <trkpt lat="43.2853" lon="6.05909">
        <ele>689.9765625</ele>
        <time>2014-06-14T09:01:10Z</time>
      </trkpt>
      <trkpt lat="43.28528" lon="6.05909">
        <ele>689.63671875</ele>
        <time>2014-06-14T09:01:11Z</time>
      </trkpt>
      <trkpt lat="43.28526" lon="6.05908">
        <ele>689.16015625</ele>
        <time>2014-06-14T09:01:12Z</time>
      </trkpt>
      <trkpt lat="43.28524" lon="6.05907">
        <ele>688.70703125</ele>
        <time>2014-06-14T09:01:13Z</time>
      </trkpt>
      <trkpt lat="43.28522" lon="6.05906">
        <ele>688.28125</ele>
        <time>2014-06-14T09:01:14Z</time>
      </trkpt>
      <trkpt lat="43.2851" lon="6.05898">
        <ele>686.3203125</ele>
        <time>2014-06-14T09:01:19Z</time>
      </trkpt>
      <trkpt lat="43.28508" lon="6.05899">
        <ele>685.8203125</ele>
        <time>2014-06-14T09:01:20Z</time>
      </trkpt>
      <trkpt lat="43.28507" lon="6.059">
        <ele>685.3125</ele>
        <time>2014-06-14T09:01:21Z</time>
      </trkpt>
      <trkpt lat="43.28505" lon="6.059">
        <ele>684.9765625</ele>
        <time>2014-06-14T09:01:22Z</time>
      </trkpt>
      <trkpt lat="43.28504" lon="6.05899">
        <ele>684.7890625</ele>
        <time>2014-06-14T09:01:23Z</time>
      </trkpt>
      <trkpt lat="43.28502" lon="6.05897">
        <ele>684.7421875</ele>
        <time>2014-06-14T09:01:24Z</time>
      </trkpt>
      <trkpt lat="43.285" lon="6.05895">
        <ele>684.51953125</ele>
        <time>2014-06-14T09:01:25Z</time>
      </trkpt>
      <trkpt lat="43.28499" lon="6.05893">
        <ele>684.38671875</ele>
        <time>2014-06-14T09:01:26Z</time>
      </trkpt>
      <trkpt lat="43.28491" lon="6.05882">
        <ele>683.2578125</ele>
        <time>2014-06-14T09:01:34Z</time>
      </trkpt>
      <trkpt lat="43.28484" lon="6.05873">
        <ele>681.69140625</ele>
        <time>2014-06-14T09:01:37Z</time>
      </trkpt>
      <trkpt lat="43.28483" lon="6.05871">
        <ele>681.50390625</ele>
        <time>2014-06-14T09:01:38Z</time>
      </trkpt>
      <trkpt lat="43.28481" lon="6.05869">
        <ele>681.0234375</ele>
        <time>2014-06-14T09:01:39Z</time>
      </trkpt>
      <trkpt lat="43.28478" lon="6.05868">
        <ele>680.62109375</ele>
        <time>2014-06-14T09:01:40Z</time>
      </trkpt>
      <trkpt lat="43.28477" lon="6.05865">
        <ele>680.4296875</ele>
        <time>2014-06-14T09:01:41Z</time>
      </trkpt>
      <trkpt lat="43.28475" lon="6.05863">
        <ele>680.25390625</ele>
        <time>2014-06-14T09:01:42Z</time>
      </trkpt>
      <trkpt lat="43.28473" lon="6.05863">
        <ele>679.89453125</ele>
        <time>2014-06-14T09:01:43Z</time>
      </trkpt>
      <trkpt lat="43.28471" lon="6.05861">
        <ele>679.30859375</ele>
        <time>2014-06-14T09:01:44Z</time>
      </trkpt>
      <trkpt lat="43.28467" lon="6.05859">
        <ele>678.74609375</ele>
        <time>2014-06-14T09:01:45Z</time>
      </trkpt>
      <trkpt lat="43.28464" lon="6.05857">
        <ele>678.21484375</ele>
        <time>2014-06-14T09:01:46Z</time>
      </trkpt>
      <trkpt lat="43.28461" lon="6.05855">
        <ele>677.93359375</ele>
        <time>2014-06-14T09:01:47Z</time>
      </trkpt>
      <trkpt lat="43.28458" lon="6.05852">
        <ele>677.81640625</ele>
        <time>2014-06-14T09:01:48Z</time>
      </trkpt>
      <trkpt lat="43.28456" lon="6.05849">
        <ele>677.63671875</ele>
        <time>2014-06-14T09:01:49Z</time>
      </trkpt>
      <trkpt lat="43.28453" lon="6.05846">
        <ele>677.56640625</ele>
        <time>2014-06-14T09:01:50Z</time>
      </trkpt>
      <trkpt lat="43.28451" lon="6.05843">
        <ele>677.546875</ele>
        <time>2014-06-14T09:01:51Z</time>
      </trkpt>
      <trkpt lat="43.28449" lon="6.05842">
        <ele>677.41015625</ele>
        <time>2014-06-14T09:01:52Z</time>
      </trkpt>
      <trkpt lat="43.28447" lon="6.05842">
        <ele>677.1640625</ele>
        <time>2014-06-14T09:01:53Z</time>
      </trkpt>
      <trkpt lat="43.28443" lon="6.05839">
        <ele>675.62109375</ele>
        <time>2014-06-14T09:01:55Z</time>
      </trkpt>
      <trkpt lat="43.28443" lon="6.05837">
        <ele>675.53515625</ele>
        <time>2014-06-14T09:01:56Z</time>
      </trkpt>
      <trkpt lat="43.28441" lon="6.05835">
        <ele>675.23046875</ele>
        <time>2014-06-14T09:02:10Z</time>
      </trkpt>
      <trkpt lat="43.28442" lon="6.0583">
        <ele>676.45703125</ele>
        <time>2014-06-14T09:02:18Z</time>
      </trkpt>
      <trkpt lat="43.28441" lon="6.05827">
        <ele>676.484375</ele>
        <time>2014-06-14T09:02:19Z</time>
      </trkpt>
      <trkpt lat="43.2843" lon="6.05807">
        <ele>671.26953125</ele>
        <time>2014-06-14T09:02:24Z</time>
      </trkpt>
      <trkpt lat="43.28418" lon="6.05798">
        <ele>667.73046875</ele>
        <time>2014-06-14T09:02:29Z</time>
      </trkpt>
      <trkpt lat="43.28416" lon="6.05796">
        <ele>667.05078125</ele>
        <time>2014-06-14T09:02:30Z</time>
      </trkpt>
      <trkpt lat="43.28416" lon="6.05793">
        <ele>666.9453125</ele>
        <time>2014-06-14T09:02:31Z</time>
      </trkpt>
      <trkpt lat="43.28416" lon="6.0579">
        <ele>667.05078125</ele>
        <time>2014-06-14T09:02:32Z</time>
      </trkpt>
      <trkpt lat="43.28416" lon="6.05787">
        <ele>666.97265625</ele>
        <time>2014-06-14T09:02:33Z</time>
      </trkpt>
      <trkpt lat="43.28415" lon="6.05785">
        <ele>666.7109375</ele>
        <time>2014-06-14T09:02:34Z</time>
      </trkpt>
      <trkpt lat="43.28414" lon="6.05783">
        <ele>666.296875</ele>
        <time>2014-06-14T09:02:35Z</time>
      </trkpt>
      <trkpt lat="43.28413" lon="6.0578">
        <ele>665.95703125</ele>
        <time>2014-06-14T09:02:36Z</time>
      </trkpt>
      <trkpt lat="43.28412" lon="6.05776">
        <ele>665.76953125</ele>
        <time>2014-06-14T09:02:37Z</time>
      </trkpt>
      <trkpt lat="43.28407" lon="6.05764">
        <ele>663.69921875</ele>
        <time>2014-06-14T09:02:41Z</time>
      </trkpt>
      <trkpt lat="43.28398" lon="6.0575">
        <ele>660.6953125</ele>
        <time>2014-06-14T09:02:46Z</time>
      </trkpt>
      <trkpt lat="43.28398" lon="6.05748">
        <ele>660.5625</ele>
        <time>2014-06-14T09:02:47Z</time>
      </trkpt>
      <trkpt lat="43.28398" lon="6.05746">
        <ele>660.4453125</ele>
        <time>2014-06-14T09:02:48Z</time>
      </trkpt>
      <trkpt lat="43.28396" lon="6.0574">
        <ele>659.80078125</ele>
        <time>2014-06-14T09:02:56Z</time>
      </trkpt>
      <trkpt lat="43.28395" lon="6.05739">
        <ele>659.34375</ele>
        <time>2014-06-14T09:02:57Z</time>
      </trkpt>
      <trkpt lat="43.28392" lon="6.05734">
        <ele>658.38671875</ele>
        <time>2014-06-14T09:02:59Z</time>
      </trkpt>
      <trkpt lat="43.28392" lon="6.05731">
        <ele>657.9921875</ele>
        <time>2014-06-14T09:03:00Z</time>
      </trkpt>
      <trkpt lat="43.28392" lon="6.05728">
        <ele>657.64453125</ele>
        <time>2014-06-14T09:03:01Z</time>
      </trkpt>
      <trkpt lat="43.28391" lon="6.05725">
        <ele>657.22265625</ele>
        <time>2014-06-14T09:03:02Z</time>
      </trkpt>
      <trkpt lat="43.2839" lon="6.05721">
        <ele>656.5703125</ele>
        <time>2014-06-14T09:03:03Z</time>
      </trkpt>
      <trkpt lat="43.28388" lon="6.05719">
        <ele>655.6484375</ele>
        <time>2014-06-14T09:03:04Z</time>
      </trkpt>
      <trkpt lat="43.28386" lon="6.05718">
        <ele>654.8203125</ele>
        <time>2014-06-14T09:03:05Z</time>
      </trkpt>
      <trkpt lat="43.28385" lon="6.05717">
        <ele>654.0546875</ele>
        <time>2014-06-14T09:03:06Z</time>
      </trkpt>
      <trkpt lat="43.28383" lon="6.05716">
        <ele>653.40625</ele>
        <time>2014-06-14T09:03:07Z</time>
      </trkpt>
      <trkpt lat="43.28382" lon="6.05714">
        <ele>652.89453125</ele>
        <time>2014-06-14T09:03:10Z</time>
      </trkpt>
      <trkpt lat="43.28382" lon="6.05711">
        <ele>652.74609375</ele>
        <time>2014-06-14T09:03:11Z</time>
      </trkpt>
      <trkpt lat="43.28383" lon="6.05708">
        <ele>652.6171875</ele>
        <time>2014-06-14T09:03:12Z</time>
      </trkpt>
      <trkpt lat="43.28385" lon="6.05699">
        <ele>652.15625</ele>
        <time>2014-06-14T09:03:15Z</time>
      </trkpt>
      <trkpt lat="43.28385" lon="6.0569">
        <ele>651.16796875</ele>
        <time>2014-06-14T09:03:18Z</time>
      </trkpt>
      <trkpt lat="43.28384" lon="6.05678">
        <ele>648.86328125</ele>
        <time>2014-06-14T09:03:22Z</time>
      </trkpt>
      <trkpt lat="43.28384" lon="6.05661">
        <ele>645.46484375</ele>
        <time>2014-06-14T09:03:28Z</time>
      </trkpt>
      <trkpt lat="43.28383" lon="6.05653">
        <ele>643.87890625</ele>
        <time>2014-06-14T09:03:31Z</time>
      </trkpt>
      <trkpt lat="43.28385" lon="6.0565">
        <ele>643.4921875</ele>
        <time>2014-06-14T09:03:33Z</time>
      </trkpt>
      <trkpt lat="43.28386" lon="6.05647">
        <ele>643.06640625</ele>
        <time>2014-06-14T09:03:35Z</time>
      </trkpt>
      <trkpt lat="43.28386" lon="6.05645">
        <ele>642.6328125</ele>
        <time>2014-06-14T09:03:36Z</time>
      </trkpt>
      <trkpt lat="43.28387" lon="6.05643">
        <ele>642.22265625</ele>
        <time>2014-06-14T09:03:37Z</time>
      </trkpt>
      <trkpt lat="43.28386" lon="6.05639">
        <ele>641.3515625</ele>
        <time>2014-06-14T09:03:39Z</time>
      </trkpt>
      <trkpt lat="43.28384" lon="6.05636">
        <ele>640.52734375</ele>
        <time>2014-06-14T09:03:42Z</time>
      </trkpt>
      <trkpt lat="43.28381" lon="6.05635">
        <ele>640.17578125</ele>
        <time>2014-06-14T09:03:58Z</time>
      </trkpt>
      <trkpt lat="43.28378" lon="6.05626">
        <ele>638.24609375</ele>
        <time>2014-06-14T09:04:08Z</time>
      </trkpt>
      <trkpt lat="43.28374" lon="6.05611">
        <ele>635.2578125</ele>
        <time>2014-06-14T09:04:19Z</time>
      </trkpt>
      <trkpt lat="43.28371" lon="6.05609">
        <ele>634.73046875</ele>
        <time>2014-06-14T09:04:24Z</time>
      </trkpt>
      <trkpt lat="43.2837" lon="6.05608">
        <ele>634.4296875</ele>
        <time>2014-06-14T09:04:25Z</time>
      </trkpt>
      <trkpt lat="43.28368" lon="6.05607">
        <ele>634.00390625</ele>
        <time>2014-06-14T09:04:26Z</time>
      </trkpt>
      <trkpt lat="43.28363" lon="6.05601">
        <ele>632.60546875</ele>
        <time>2014-06-14T09:04:36Z</time>
      </trkpt>
      <trkpt lat="43.28362" lon="6.05597">
        <ele>631.5234375</ele>
        <time>2014-06-14T09:05:04Z</time>
      </trkpt>
      <trkpt lat="43.28362" lon="6.05596">
        <ele>631.1953125</ele>
        <time>2014-06-14T09:05:05Z</time>
      </trkpt>
      <trkpt lat="43.28362" lon="6.05594">
        <ele>630.69140625</ele>
        <time>2014-06-14T09:05:06Z</time>
      </trkpt>
      <trkpt lat="43.28361" lon="6.05581">
        <ele>627.69921875</ele>
        <time>2014-06-14T09:05:12Z</time>
      </trkpt>
      <trkpt lat="43.28362" lon="6.0557">
        <ele>625.83984375</ele>
        <time>2014-06-14T09:05:17Z</time>
      </trkpt>
      <trkpt lat="43.28363" lon="6.05567">
        <ele>625.55859375</ele>
        <time>2014-06-14T09:05:18Z</time>
      </trkpt>
      <trkpt lat="43.28363" lon="6.05565">
        <ele>625.0546875</ele>
        <time>2014-06-14T09:05:19Z</time>
      </trkpt>
      <trkpt lat="43.28363" lon="6.05561">
        <ele>624.4609375</ele>
        <time>2014-06-14T09:05:20Z</time>
      </trkpt>
      <trkpt lat="43.28362" lon="6.05559">
        <ele>623.8828125</ele>
        <time>2014-06-14T09:05:21Z</time>
      </trkpt>
      <trkpt lat="43.28361" lon="6.05557">
        <ele>623.23828125</ele>
        <time>2014-06-14T09:05:22Z</time>
      </trkpt>
      <trkpt lat="43.2836" lon="6.05555">
        <ele>622.55859375</ele>
        <time>2014-06-14T09:05:23Z</time>
      </trkpt>
      <trkpt lat="43.28358" lon="6.05553">
        <ele>621.87109375</ele>
        <time>2014-06-14T09:05:24Z</time>
      </trkpt>
      <trkpt lat="43.28355" lon="6.05551">
        <ele>620.921875</ele>
        <time>2014-06-14T09:05:25Z</time>
      </trkpt>
      <trkpt lat="43.28353" lon="6.05549">
        <ele>620.09765625</ele>
        <time>2014-06-14T09:05:26Z</time>
      </trkpt>
      <trkpt lat="43.28351" lon="6.05546">
        <ele>619.3203125</ele>
        <time>2014-06-14T09:05:27Z</time>
      </trkpt>
      <trkpt lat="43.28339" lon="6.05533">
        <ele>615.08203125</ele>
        <time>2014-06-14T09:05:33Z</time>
      </trkpt>
      <trkpt lat="43.28337" lon="6.05533">
        <ele>614.75</ele>
        <time>2014-06-14T09:05:34Z</time>
      </trkpt>
      <trkpt lat="43.28335" lon="6.05534">
        <ele>614.40625</ele>
        <time>2014-06-14T09:05:35Z</time>
      </trkpt>
      <trkpt lat="43.28333" lon="6.05534">
        <ele>613.7578125</ele>
        <time>2014-06-14T09:05:36Z</time>
      </trkpt>
      <trkpt lat="43.28331" lon="6.05532">
        <ele>613.2734375</ele>
        <time>2014-06-14T09:05:37Z</time>
      </trkpt>
      <trkpt lat="43.28331" lon="6.05531">
        <ele>612.921875</ele>
        <time>2014-06-14T09:05:38Z</time>
      </trkpt>
      <trkpt lat="43.2833" lon="6.05529">
        <ele>612.59375</ele>
        <time>2014-06-14T09:05:39Z</time>
      </trkpt>
      <trkpt lat="43.28329" lon="6.05527">
        <ele>612.15625</ele>
        <time>2014-06-14T09:05:40Z</time>
      </trkpt>
      <trkpt lat="43.28327" lon="6.05526">
        <ele>611.5</ele>
        <time>2014-06-14T09:05:41Z</time>
      </trkpt>
      <trkpt lat="43.28326" lon="6.05524">
        <ele>611.04296875</ele>
        <time>2014-06-14T09:05:42Z</time>
      </trkpt>
      <trkpt lat="43.28326" lon="6.05521">
        <ele>610.83984375</ele>
        <time>2014-06-14T09:05:43Z</time>
      </trkpt>
      <trkpt lat="43.28326" lon="6.05518">
        <ele>610.6328125</ele>
        <time>2014-06-14T09:05:44Z</time>
      </trkpt>
      <trkpt lat="43.28326" lon="6.05516">
        <ele>610.36328125</ele>
        <time>2014-06-14T09:05:45Z</time>
      </trkpt>
      <trkpt lat="43.28325" lon="6.05515">
        <ele>609.96875</ele>
        <time>2014-06-14T09:05:46Z</time>
      </trkpt>
      <trkpt lat="43.28324" lon="6.05513">
        <ele>609.4453125</ele>
        <time>2014-06-14T09:05:47Z</time>
      </trkpt>
      <trkpt lat="43.28321" lon="6.05512">
        <ele>608.875</ele>
        <time>2014-06-14T09:05:48Z</time>
      </trkpt>
      <trkpt lat="43.28319" lon="6.05511">
        <ele>608.3046875</ele>
        <time>2014-06-14T09:05:49Z</time>
      </trkpt>
      <trkpt lat="43.28317" lon="6.05509">
        <ele>607.70703125</ele>
        <time>2014-06-14T09:05:50Z</time>
      </trkpt>
      <trkpt lat="43.28306" lon="6.05497">
        <ele>604.45703125</ele>
        <time>2014-06-14T09:05:59Z</time>
      </trkpt>
      <trkpt lat="43.28305" lon="6.05495">
        <ele>604.33203125</ele>
        <time>2014-06-14T09:06:00Z</time>
      </trkpt>
      <trkpt lat="43.28305" lon="6.05493">
        <ele>604.25390625</ele>
        <time>2014-06-14T09:06:01Z</time>
      </trkpt>
      <trkpt lat="43.28305" lon="6.05491">
        <ele>603.9453125</ele>
        <time>2014-06-14T09:06:02Z</time>
      </trkpt>
      <trkpt lat="43.28304" lon="6.05488">
        <ele>603.51171875</ele>
        <time>2014-06-14T09:06:03Z</time>
      </trkpt>
      <trkpt lat="43.28303" lon="6.05486">
        <ele>603.1953125</ele>
        <time>2014-06-14T09:06:04Z</time>
      </trkpt>
      <trkpt lat="43.28303" lon="6.05484">
        <ele>603.09375</ele>
        <time>2014-06-14T09:06:05Z</time>
      </trkpt>
      <trkpt lat="43.28304" lon="6.05474">
        <ele>602.68359375</ele>
        <time>2014-06-14T09:06:12Z</time>
      </trkpt>
      <trkpt lat="43.28302" lon="6.05472">
        <ele>602.19921875</ele>
        <time>2014-06-14T09:06:13Z</time>
      </trkpt>
      <trkpt lat="43.283" lon="6.0547">
        <ele>601.58984375</ele>
        <time>2014-06-14T09:06:14Z</time>
      </trkpt>
      <trkpt lat="43.28299" lon="6.05467">
        <ele>601.25</ele>
        <time>2014-06-14T09:06:15Z</time>
      </trkpt>
      <trkpt lat="43.28299" lon="6.05464">
        <ele>601.16796875</ele>
        <time>2014-06-14T09:06:16Z</time>
      </trkpt>
      <trkpt lat="43.28299" lon="6.05461">
        <ele>601.015625</ele>
        <time>2014-06-14T09:06:17Z</time>
      </trkpt>
      <trkpt lat="43.28299" lon="6.0546">
        <ele>600.78515625</ele>
        <time>2014-06-14T09:06:18Z</time>
      </trkpt>
      <trkpt lat="43.28297" lon="6.05458">
        <ele>600.41796875</ele>
        <time>2014-06-14T09:06:19Z</time>
      </trkpt>
      <trkpt lat="43.28295" lon="6.05457">
        <ele>599.9375</ele>
        <time>2014-06-14T09:06:20Z</time>
      </trkpt>
      <trkpt lat="43.28292" lon="6.05455">
        <ele>599.33203125</ele>
        <time>2014-06-14T09:06:21Z</time>
      </trkpt>
      <trkpt lat="43.28289" lon="6.05454">
        <ele>598.7109375</ele>
        <time>2014-06-14T09:06:22Z</time>
      </trkpt>
      <trkpt lat="43.28287" lon="6.05451">
        <ele>598.1796875</ele>
        <time>2014-06-14T09:06:23Z</time>
      </trkpt>
      <trkpt lat="43.28284" lon="6.05448">
        <ele>597.7421875</ele>
        <time>2014-06-14T09:06:24Z</time>
      </trkpt>
      <trkpt lat="43.28281" lon="6.05442">
        <ele>597.234375</ele>
        <time>2014-06-14T09:06:26Z</time>
      </trkpt>
      <trkpt lat="43.2828" lon="6.05435">
        <ele>596.875</ele>
        <time>2014-06-14T09:06:28Z</time>
      </trkpt>
      <trkpt lat="43.28278" lon="6.05433">
        <ele>596.43359375</ele>
        <time>2014-06-14T09:06:29Z</time>
      </trkpt>
      <trkpt lat="43.28276" lon="6.05431">
        <ele>595.98828125</ele>
        <time>2014-06-14T09:06:30Z</time>
      </trkpt>
      <trkpt lat="43.28274" lon="6.05428">
        <ele>595.52734375</ele>
        <time>2014-06-14T09:06:31Z</time>
      </trkpt>
      <trkpt lat="43.28272" lon="6.05425">
        <ele>595.13671875</ele>
        <time>2014-06-14T09:06:32Z</time>
      </trkpt>
      <trkpt lat="43.2827" lon="6.05423">
        <ele>594.81640625</ele>
        <time>2014-06-14T09:06:33Z</time>
      </trkpt>
      <trkpt lat="43.28268" lon="6.0542">
        <ele>594.53515625</ele>
        <time>2014-06-14T09:06:34Z</time>
      </trkpt>
      <trkpt lat="43.28266" lon="6.05417">
        <ele>594.3046875</ele>
        <time>2014-06-14T09:06:35Z</time>
      </trkpt>
      <trkpt lat="43.28254" lon="6.05404">
        <ele>593.671875</ele>
        <time>2014-06-14T09:06:41Z</time>
      </trkpt>
      <trkpt lat="43.28252" lon="6.05405">
        <ele>593.72265625</ele>
        <time>2014-06-14T09:06:42Z</time>
      </trkpt>
      <trkpt lat="43.28245" lon="6.05411">
        <ele>593.3046875</ele>
        <time>2014-06-14T09:06:47Z</time>
      </trkpt>
      <trkpt lat="43.2824" lon="6.05411">
        <ele>592.88671875</ele>
        <time>2014-06-14T09:06:50Z</time>
      </trkpt>
      <trkpt lat="43.28238" lon="6.05409">
        <ele>592.90625</ele>
        <time>2014-06-14T09:06:52Z</time>
      </trkpt>
      <trkpt lat="43.28236" lon="6.05409">
        <ele>592.859375</ele>
        <time>2014-06-14T09:06:53Z</time>
      </trkpt>
      <trkpt lat="43.28235" lon="6.05409">
        <ele>592.765625</ele>
        <time>2014-06-14T09:06:54Z</time>
      </trkpt>
      <trkpt lat="43.28227" lon="6.05408">
        <ele>592.25</ele>
        <time>2014-06-14T09:06:59Z</time>
      </trkpt>
      <trkpt lat="43.28226" lon="6.05407">
        <ele>592.1796875</ele>
        <time>2014-06-14T09:07:00Z</time>
      </trkpt>
      <trkpt lat="43.28224" lon="6.05406">
        <ele>592.1484375</ele>
        <time>2014-06-14T09:07:01Z</time>
      </trkpt>
      <trkpt lat="43.28223" lon="6.05404">
        <ele>592</ele>
        <time>2014-06-14T09:07:02Z</time>
      </trkpt>
      <trkpt lat="43.28222" lon="6.05402">
        <ele>591.82421875</ele>
        <time>2014-06-14T09:07:03Z</time>
      </trkpt>
      <trkpt lat="43.28221" lon="6.05401">
        <ele>591.71484375</ele>
        <time>2014-06-14T09:07:04Z</time>
      </trkpt>
      <trkpt lat="43.28218" lon="6.05398">
        <ele>591.55078125</ele>
        <time>2014-06-14T09:07:07Z</time>
      </trkpt>
      <trkpt lat="43.28218" lon="6.05397">
        <ele>591.62109375</ele>
        <time>2014-06-14T09:07:19Z</time>
      </trkpt>
      <trkpt lat="43.28219" lon="6.05398">
        <ele>591.62109375</ele>
        <time>2014-06-14T09:07:20Z</time>
      </trkpt>
      <trkpt lat="43.2822" lon="6.054">
        <ele>591.66015625</ele>
        <time>2014-06-14T09:07:21Z</time>
      </trkpt>
      <trkpt lat="43.28221" lon="6.05402">
        <ele>591.73828125</ele>
        <time>2014-06-14T09:07:22Z</time>
      </trkpt>
      <trkpt lat="43.28223" lon="6.05405">
        <ele>591.91015625</ele>
        <time>2014-06-14T09:07:23Z</time>
      </trkpt>
      <trkpt lat="43.28224" lon="6.05406">
        <ele>592.09375</ele>
        <time>2014-06-14T09:07:24Z</time>
      </trkpt>
      <trkpt lat="43.28235" lon="6.05411">
        <ele>592.39453125</ele>
        <time>2014-06-14T09:07:35Z</time>
      </trkpt>
      <trkpt lat="43.28241" lon="6.05414">
        <ele>592.5625</ele>
        <time>2014-06-14T09:07:38Z</time>
      </trkpt>
      <trkpt lat="43.28244" lon="6.05412">
        <ele>593.140625</ele>
        <time>2014-06-14T09:07:40Z</time>
      </trkpt>
      <trkpt lat="43.28246" lon="6.0541">
        <ele>593.515625</ele>
        <time>2014-06-14T09:07:41Z</time>
      </trkpt>
      <trkpt lat="43.28248" lon="6.05407">
        <ele>593.59765625</ele>
        <time>2014-06-14T09:07:42Z</time>
      </trkpt>
      <trkpt lat="43.2825" lon="6.05404">
        <ele>593.56640625</ele>
        <time>2014-06-14T09:07:43Z</time>
      </trkpt>
      <trkpt lat="43.28251" lon="6.05402">
        <ele>593.45703125</ele>
        <time>2014-06-14T09:07:44Z</time>
      </trkpt>
      <trkpt lat="43.28253" lon="6.05398">
        <ele>593.24609375</ele>
        <time>2014-06-14T09:07:52Z</time>
      </trkpt>
      <trkpt lat="43.28254" lon="6.05397">
        <ele>593.1328125</ele>
        <time>2014-06-14T09:07:53Z</time>
      </trkpt>
      <trkpt lat="43.28254" lon="6.05395">
        <ele>592.98828125</ele>
        <time>2014-06-14T09:07:54Z</time>
      </trkpt>
      <trkpt lat="43.28254" lon="6.05392">
        <ele>592.796875</ele>
        <time>2014-06-14T09:07:55Z</time>
      </trkpt>
      <trkpt lat="43.28255" lon="6.05389">
        <ele>592.59765625</ele>
        <time>2014-06-14T09:07:56Z</time>
      </trkpt>
      <trkpt lat="43.28255" lon="6.05387">
        <ele>592.41796875</ele>
        <time>2014-06-14T09:07:57Z</time>
      </trkpt>
      <trkpt lat="43.28255" lon="6.05385">
        <ele>592.3046875</ele>
        <time>2014-06-14T09:08:09Z</time>
      </trkpt>
      <trkpt lat="43.28254" lon="6.05396">
        <ele>593.03515625</ele>
        <time>2014-06-14T09:08:19Z</time>
      </trkpt>
      <trkpt lat="43.28255" lon="6.05403">
        <ele>593.58984375</ele>
        <time>2014-06-14T09:08:32Z</time>
      </trkpt>
      <trkpt lat="43.28257" lon="6.05404">
        <ele>593.66796875</ele>
        <time>2014-06-14T09:08:35Z</time>
      </trkpt>
      <trkpt lat="43.28258" lon="6.05406">
        <ele>593.80078125</ele>
        <time>2014-06-14T09:08:36Z</time>
      </trkpt>
      <trkpt lat="43.28269" lon="6.05421">
        <ele>594.66015625</ele>
        <time>2014-06-14T09:08:43Z</time>
      </trkpt>
      <trkpt lat="43.28271" lon="6.05419">
        <ele>594.60546875</ele>
        <time>2014-06-14T09:08:45Z</time>
      </trkpt>
      <trkpt lat="43.2827" lon="6.05415">
        <ele>594.328125</ele>
        <time>2014-06-14T09:08:57Z</time>
      </trkpt>
      <trkpt lat="43.28271" lon="6.05413">
        <ele>594.24609375</ele>
        <time>2014-06-14T09:08:59Z</time>
      </trkpt>
      <trkpt lat="43.28272" lon="6.0541">
        <ele>594.10546875</ele>
        <time>2014-06-14T09:09:00Z</time>
      </trkpt>
      <trkpt lat="43.28278" lon="6.054">
        <ele>593.32421875</ele>
        <time>2014-06-14T09:09:03Z</time>
      </trkpt>
      <trkpt lat="43.28281" lon="6.05395">
        <ele>593.03515625</ele>
        <time>2014-06-14T09:09:04Z</time>
      </trkpt>
      <trkpt lat="43.28296" lon="6.05382">
        <ele>591.484375</ele>
        <time>2014-06-14T09:09:09Z</time>
      </trkpt>
      <trkpt lat="43.283" lon="6.05376">
        <ele>590.75390625</ele>
        <time>2014-06-14T09:09:11Z</time>
      </trkpt>
      <trkpt lat="43.28301" lon="6.05373">
        <ele>590.359375</ele>
        <time>2014-06-14T09:09:12Z</time>
      </trkpt>
      <trkpt lat="43.28303" lon="6.05371">
        <ele>590.02734375</ele>
        <time>2014-06-14T09:09:13Z</time>
      </trkpt>
      <trkpt lat="43.28318" lon="6.05354">
        <ele>588.07421875</ele>
        <time>2014-06-14T09:09:19Z</time>
      </trkpt>
      <trkpt lat="43.28321" lon="6.05351">
        <ele>587.71875</ele>
        <time>2014-06-14T09:09:20Z</time>
      </trkpt>
      <trkpt lat="43.28323" lon="6.05346">
        <ele>587.23828125</ele>
        <time>2014-06-14T09:09:21Z</time>
      </trkpt>
      <trkpt lat="43.28323" lon="6.05341">
        <ele>586.6484375</ele>
        <time>2014-06-14T09:09:22Z</time>
      </trkpt>
      <trkpt lat="43.28323" lon="6.05335">
        <ele>586</ele>
        <time>2014-06-14T09:09:23Z</time>
      </trkpt>
      <trkpt lat="43.28324" lon="6.05329">
        <ele>585.32421875</ele>
        <time>2014-06-14T09:09:24Z</time>
      </trkpt>
      <trkpt lat="43.28326" lon="6.05322">
        <ele>584.65625</ele>
        <time>2014-06-14T09:09:25Z</time>
      </trkpt>
      <trkpt lat="43.28328" lon="6.05316">
        <ele>584</ele>
        <time>2014-06-14T09:09:26Z</time>
      </trkpt>
      <trkpt lat="43.28333" lon="6.05304">
        <ele>582.66015625</ele>
        <time>2014-06-14T09:09:28Z</time>
      </trkpt>
      <trkpt lat="43.28339" lon="6.05289">
        <ele>581.046875</ele>
        <time>2014-06-14T09:09:31Z</time>
      </trkpt>
      <trkpt lat="43.28341" lon="6.05285">
        <ele>580.6015625</ele>
        <time>2014-06-14T09:09:32Z</time>
      </trkpt>
      <trkpt lat="43.28343" lon="6.05281">
        <ele>580.2109375</ele>
        <time>2014-06-14T09:09:33Z</time>
      </trkpt>
      <trkpt lat="43.28346" lon="6.05278">
        <ele>579.859375</ele>
        <time>2014-06-14T09:09:34Z</time>
      </trkpt>
      <trkpt lat="43.28349" lon="6.05276">
        <ele>579.5859375</ele>
        <time>2014-06-14T09:09:35Z</time>
      </trkpt>
      <trkpt lat="43.28352" lon="6.05274">
        <ele>579.3984375</ele>
        <time>2014-06-14T09:09:36Z</time>
      </trkpt>
      <trkpt lat="43.28354" lon="6.05272">
        <ele>579.16015625</ele>
        <time>2014-06-14T09:09:37Z</time>
      </trkpt>
      <trkpt lat="43.28356" lon="6.05269">
        <ele>578.91015625</ele>
        <time>2014-06-14T09:09:38Z</time>
      </trkpt>
      <trkpt lat="43.28357" lon="6.05267">
        <ele>578.6875</ele>
        <time>2014-06-14T09:09:39Z</time>
      </trkpt>
      <trkpt lat="43.28359" lon="6.05264">
        <ele>578.43359375</ele>
        <time>2014-06-14T09:09:42Z</time>
      </trkpt>
      <trkpt lat="43.28361" lon="6.05264">
        <ele>578.328125</ele>
        <time>2014-06-14T09:09:43Z</time>
      </trkpt>
      <trkpt lat="43.28364" lon="6.05263">
        <ele>578.265625</ele>
        <time>2014-06-14T09:09:44Z</time>
      </trkpt>
      <trkpt lat="43.28376" lon="6.05257">
        <ele>577.57421875</ele>
        <time>2014-06-14T09:09:50Z</time>
      </trkpt>
      <trkpt lat="43.28371" lon="6.0526">
        <ele>577.8984375</ele>
        <time>2014-06-14T09:10:03Z</time>
      </trkpt>
      <trkpt lat="43.2837" lon="6.05261">
        <ele>578.0625</ele>
        <time>2014-06-14T09:10:05Z</time>
      </trkpt>
      <trkpt lat="43.28364" lon="6.05272">
        <ele>579.25390625</ele>
        <time>2014-06-14T09:10:15Z</time>
      </trkpt>
      <trkpt lat="43.28364" lon="6.05276">
        <ele>579.65625</ele>
        <time>2014-06-14T09:10:28Z</time>
      </trkpt>
      <trkpt lat="43.28364" lon="6.05275">
        <ele>579.52734375</ele>
        <time>2014-06-14T09:11:05Z</time>
      </trkpt>
      <trkpt lat="43.28365" lon="6.05275">
        <ele>579.5703125</ele>
        <time>2014-06-14T09:11:31Z</time>
      </trkpt>
      <trkpt lat="43.28365" lon="6.05276">
        <ele>579.62109375</ele>
        <time>2014-06-14T09:12:03Z</time>
      </trkpt>
      <trkpt lat="43.28365" lon="6.05275">
        <ele>579.515625</ele>
        <time>2014-06-14T09:12:39Z</time>
      </trkpt>
      <trkpt lat="43.28366" lon="6.05274">
        <ele>579.40234375</ele>
        <time>2014-06-14T09:13:24Z</time>
      </trkpt>
      <trkpt lat="43.28366" lon="6.05273">
        <ele>579.33984375</ele>
        <time>2014-06-14T09:13:58Z</time>
      </trkpt>
      <trkpt lat="43.28366" lon="6.05274">
        <ele>579.4375</ele>
        <time>2014-06-14T09:14:33Z</time>
      </trkpt>
      <trkpt lat="43.28365" lon="6.05274">
        <ele>579.45703125</ele>
        <time>2014-06-14T09:15:06Z</time>
      </trkpt>
      <trkpt lat="43.28366" lon="6.05275">
        <ele>579.4765625</ele>
        <time>2014-06-14T09:15:46Z</time>
      </trkpt>
      <trkpt lat="43.28365" lon="6.05277">
        <ele>579.6953125</ele>
        <time>2014-06-14T09:16:37Z</time>
      </trkpt>
      <trkpt lat="43.28364" lon="6.05275">
        <ele>579.5625</ele>
        <time>2014-06-14T09:17:22Z</time>
      </trkpt>
      <trkpt lat="43.28363" lon="6.05275">
        <ele>579.48828125</ele>
        <time>2014-06-14T09:18:07Z</time>
      </trkpt>
      <trkpt lat="43.28364" lon="6.05275">
        <ele>579.50390625</ele>
        <time>2014-06-14T09:18:34Z</time>
      </trkpt>
      <trkpt lat="43.28364" lon="6.05274">
        <ele>579.4609375</ele>
        <time>2014-06-14T09:18:58Z</time>
      </trkpt>
      <trkpt lat="43.28364" lon="6.05273">
        <ele>579.35546875</ele>
        <time>2014-06-14T09:19:29Z</time>
      </trkpt>
      <trkpt lat="43.28364" lon="6.05273">
        <ele>579.32421875</ele>
        <time>2014-06-14T09:20:06Z</time>
      </trkpt>
      <trkpt lat="43.28365" lon="6.05274">
        <ele>579.38671875</ele>
        <time>2014-06-14T09:20:41Z</time>
      </trkpt>
      <trkpt lat="43.28366" lon="6.05274">
        <ele>579.43359375</ele>
        <time>2014-06-14T09:21:28Z</time>
      </trkpt>
      <trkpt lat="43.28365" lon="6.05275">
        <ele>579.484375</ele>
        <time>2014-06-14T09:22:11Z</time>
      </trkpt>
      <trkpt lat="43.28363" lon="6.05274">
        <ele>579.46484375</ele>
        <time>2014-06-14T09:22:52Z</time>
      </trkpt>
      <trkpt lat="43.28364" lon="6.05273">
        <ele>579.30078125</ele>
        <time>2014-06-14T09:23:15Z</time>
      </trkpt>
      <trkpt lat="43.28364" lon="6.05272">
        <ele>579.234375</ele>
        <time>2014-06-14T09:23:46Z</time>
      </trkpt>
      <trkpt lat="43.28364" lon="6.0527">
        <ele>579.02734375</ele>
        <time>2014-06-14T09:24:20Z</time>
      </trkpt>
      <trkpt lat="43.28365" lon="6.05272">
        <ele>579.25</ele>
        <time>2014-06-14T09:24:49Z</time>
      </trkpt>
      <trkpt lat="43.28365" lon="6.05272">
        <ele>579.1640625</ele>
        <time>2014-06-14T09:25:05Z</time>
      </trkpt>
      <trkpt lat="43.28365" lon="6.05272">
        <ele>579.1640625</ele>
        <time>2014-06-14T09:25:06Z</time>
      </trkpt>
      <trkpt lat="43.28365" lon="6.05272">
        <ele>579.16015625</ele>
        <time>2014-06-14T09:25:08Z</time>
      </trkpt>
      <trkpt lat="43.28365" lon="6.05272">
        <ele>579.16015625</ele>
        <time>2014-06-14T09:25:09Z</time>
      </trkpt>
      <trkpt lat="43.28365" lon="6.05272">
        <ele>579.16015625</ele>
        <time>2014-06-14T09:25:10Z</time>
      </trkpt>
      <trkpt lat="43.28365" lon="6.05272">
        <ele>579.19921875</ele>
        <time>2014-06-14T09:25:12Z</time>
      </trkpt>
      <trkpt lat="43.28365" lon="6.05272">
        <ele>579.203125</ele>
        <time>2014-06-14T09:25:13Z</time>
      </trkpt>
      <trkpt lat="43.28365" lon="6.05269">
        <ele>578.83984375</ele>
        <time>2014-06-14T09:25:29Z</time>
      </trkpt>
      <trkpt lat="43.28365" lon="6.05267">
        <ele>578.68359375</ele>
        <time>2014-06-14T09:25:30Z</time>
      </trkpt>
      <trkpt lat="43.28366" lon="6.05266">
        <ele>578.51171875</ele>
        <time>2014-06-14T09:25:31Z</time>
      </trkpt>
      <trkpt lat="43.28366" lon="6.05264">
        <ele>578.30078125</ele>
        <time>2014-06-14T09:25:32Z</time>
      </trkpt>
      <trkpt lat="43.28367" lon="6.05262">
        <ele>578.10546875</ele>
        <time>2014-06-14T09:25:33Z</time>
      </trkpt>
      <trkpt lat="43.28368" lon="6.0526">
        <ele>577.9375</ele>
        <time>2014-06-14T09:25:34Z</time>
      </trkpt>
      <trkpt lat="43.2837" lon="6.05259">
        <ele>577.79296875</ele>
        <time>2014-06-14T09:25:35Z</time>
      </trkpt>
      <trkpt lat="43.28372" lon="6.05258">
        <ele>577.63671875</ele>
        <time>2014-06-14T09:25:36Z</time>
      </trkpt>
      <trkpt lat="43.28374" lon="6.05256">
        <ele>577.5078125</ele>
        <time>2014-06-14T09:25:37Z</time>
      </trkpt>
      <trkpt lat="43.28375" lon="6.05256">
        <ele>577.4296875</ele>
        <time>2014-06-14T09:25:38Z</time>
      </trkpt>
      <trkpt lat="43.28377" lon="6.05255">
        <ele>577.390625</ele>
        <time>2014-06-14T09:25:39Z</time>
      </trkpt>
      <trkpt lat="43.2838" lon="6.05255">
        <ele>577.328125</ele>
        <time>2014-06-14T09:25:40Z</time>
      </trkpt>
      <trkpt lat="43.28391" lon="6.05251">
        <ele>576.8984375</ele>
        <time>2014-06-14T09:25:43Z</time>
      </trkpt>
      <trkpt lat="43.28395" lon="6.05247">
        <ele>576.6875</ele>
        <time>2014-06-14T09:25:44Z</time>
      </trkpt>
      <trkpt lat="43.28398" lon="6.05243">
        <ele>576.34765625</ele>
        <time>2014-06-14T09:25:45Z</time>
      </trkpt>
      <trkpt lat="43.28413" lon="6.05221">
        <ele>574.4609375</ele>
        <time>2014-06-14T09:25:49Z</time>
      </trkpt>
      <trkpt lat="43.28419" lon="6.05208">
        <ele>573.5546875</ele>
        <time>2014-06-14T09:25:51Z</time>
      </trkpt>
      <trkpt lat="43.28436" lon="6.0518">
        <ele>572.2109375</ele>
        <time>2014-06-14T09:25:56Z</time>
      </trkpt>
      <trkpt lat="43.28441" lon="6.05175">
        <ele>572.01953125</ele>
        <time>2014-06-14T09:25:57Z</time>
      </trkpt>
      <trkpt lat="43.28455" lon="6.05162">
        <ele>571.93359375</ele>
        <time>2014-06-14T09:26:00Z</time>
      </trkpt>
      <trkpt lat="43.28477" lon="6.05123">
        <ele>570.69140625</ele>
        <time>2014-06-14T09:26:07Z</time>
      </trkpt>
      <trkpt lat="43.28494" lon="6.0509">
        <ele>569.578125</ele>
        <time>2014-06-14T09:26:12Z</time>
      </trkpt>
      <trkpt lat="43.285" lon="6.05064">
        <ele>568.11328125</ele>
        <time>2014-06-14T09:26:15Z</time>
      </trkpt>
      <trkpt lat="43.28503" lon="6.0504">
        <ele>566.59765625</ele>
        <time>2014-06-14T09:26:18Z</time>
      </trkpt>
      <trkpt lat="43.28517" lon="6.04993">
        <ele>565.69921875</ele>
        <time>2014-06-14T09:26:24Z</time>
      </trkpt>
      <trkpt lat="43.28522" lon="6.04952">
        <ele>563.3984375</ele>
        <time>2014-06-14T09:26:29Z</time>
      </trkpt>
      <trkpt lat="43.28526" lon="6.0492">
        <ele>562.171875</ele>
        <time>2014-06-14T09:26:33Z</time>
      </trkpt>
      <trkpt lat="43.28529" lon="6.04904">
        <ele>561.6328125</ele>
        <time>2014-06-14T09:26:35Z</time>
      </trkpt>
      <trkpt lat="43.28526" lon="6.04866">
        <ele>559.33203125</ele>
        <time>2014-06-14T09:26:40Z</time>
      </trkpt>
      <trkpt lat="43.28525" lon="6.04827">
        <ele>557.765625</ele>
        <time>2014-06-14T09:26:46Z</time>
      </trkpt>
      <trkpt lat="43.28512" lon="6.04796">
        <ele>553.9453125</ele>
        <time>2014-06-14T09:26:54Z</time>
      </trkpt>
      <trkpt lat="43.28505" lon="6.04791">
        <ele>553.140625</ele>
        <time>2014-06-14T09:26:58Z</time>
      </trkpt>
      <trkpt lat="43.28488" lon="6.04773">
        <ele>553.12109375</ele>
        <time>2014-06-14T09:27:10Z</time>
      </trkpt>
      <trkpt lat="43.28483" lon="6.04769">
        <ele>553.27734375</ele>
        <time>2014-06-14T09:27:14Z</time>
      </trkpt>
      <trkpt lat="43.28482" lon="6.04769">
        <ele>553.33984375</ele>
        <time>2014-06-14T09:27:15Z</time>
      </trkpt>
      <trkpt lat="43.28481" lon="6.04767">
        <ele>553.3515625</ele>
        <time>2014-06-14T09:27:16Z</time>
      </trkpt>
      <trkpt lat="43.2848" lon="6.04765">
        <ele>553.3203125</ele>
        <time>2014-06-14T09:27:17Z</time>
      </trkpt>
      <trkpt lat="43.2848" lon="6.04762">
        <ele>553.296875</ele>
        <time>2014-06-14T09:27:18Z</time>
      </trkpt>
      <trkpt lat="43.28478" lon="6.0476">
        <ele>553.3046875</ele>
        <time>2014-06-14T09:27:19Z</time>
      </trkpt>
      <trkpt lat="43.28477" lon="6.04758">
        <ele>553.30859375</ele>
        <time>2014-06-14T09:27:20Z</time>
      </trkpt>
      <trkpt lat="43.28476" lon="6.04755">
        <ele>553.29296875</ele>
        <time>2014-06-14T09:27:21Z</time>
      </trkpt>
      <trkpt lat="43.28475" lon="6.04753">
        <ele>553.28125</ele>
        <time>2014-06-14T09:27:22Z</time>
      </trkpt>
      <trkpt lat="43.28476" lon="6.04708">
        <ele>551.9140625</ele>
        <time>2014-06-14T09:27:36Z</time>
      </trkpt>
      <trkpt lat="43.28465" lon="6.04671">
        <ele>552.40625</ele>
        <time>2014-06-14T09:27:49Z</time>
      </trkpt>
      <trkpt lat="43.2845" lon="6.04631">
        <ele>553.54296875</ele>
        <time>2014-06-14T09:28:02Z</time>
      </trkpt>
      <trkpt lat="43.28446" lon="6.04596">
        <ele>554.29296875</ele>
        <time>2014-06-14T09:28:13Z</time>
      </trkpt>
      <trkpt lat="43.28435" lon="6.04571">
        <ele>556.4296875</ele>
        <time>2014-06-14T09:28:23Z</time>
      </trkpt>
      <trkpt lat="43.28433" lon="6.04569">
        <ele>556.71484375</ele>
        <time>2014-06-14T09:28:24Z</time>
      </trkpt>
      <trkpt lat="43.28431" lon="6.04566">
        <ele>557.02734375</ele>
        <time>2014-06-14T09:28:25Z</time>
      </trkpt>
      <trkpt lat="43.28394" lon="6.04517">
        <ele>560.49609375</ele>
        <time>2014-06-14T09:28:44Z</time>
      </trkpt>
      <trkpt lat="43.28367" lon="6.0448">
        <ele>562.4921875</ele>
        <time>2014-06-14T09:28:59Z</time>
      </trkpt>
      <trkpt lat="43.28339" lon="6.04453">
        <ele>565.16796875</ele>
        <time>2014-06-14T09:29:15Z</time>
      </trkpt>
      <trkpt lat="43.28315" lon="6.04436">
        <ele>567.80859375</ele>
        <time>2014-06-14T09:29:27Z</time>
      </trkpt>
      <trkpt lat="43.28283" lon="6.04413">
        <ele>570.5859375</ele>
        <time>2014-06-14T09:29:43Z</time>
      </trkpt>
      <trkpt lat="43.28267" lon="6.04382">
        <ele>571.32421875</ele>
        <time>2014-06-14T09:29:55Z</time>
      </trkpt>
      <trkpt lat="43.28259" lon="6.04326">
        <ele>571.9296875</ele>
        <time>2014-06-14T09:30:12Z</time>
      </trkpt>
      <trkpt lat="43.28245" lon="6.04279">
        <ele>574.51171875</ele>
        <time>2014-06-14T09:30:28Z</time>
      </trkpt>
      <trkpt lat="43.28226" lon="6.04238">
        <ele>576.82421875</ele>
        <time>2014-06-14T09:30:43Z</time>
      </trkpt>
      <trkpt lat="43.28206" lon="6.04204">
        <ele>579.15625</ele>
        <time>2014-06-14T09:30:56Z</time>
      </trkpt>
      <trkpt lat="43.28183" lon="6.04159">
        <ele>581.8984375</ele>
        <time>2014-06-14T09:31:13Z</time>
      </trkpt>
      <trkpt lat="43.28165" lon="6.04125">
        <ele>583.6875</ele>
        <time>2014-06-14T09:31:27Z</time>
      </trkpt>
      <trkpt lat="43.28132" lon="6.04091">
        <ele>584.73046875</ele>
        <time>2014-06-14T09:31:40Z</time>
      </trkpt>
      <trkpt lat="43.28099" lon="6.04073">
        <ele>582.421875</ele>
        <time>2014-06-14T09:31:49Z</time>
      </trkpt>
      <trkpt lat="43.28096" lon="6.04072">
        <ele>582.15625</ele>
        <time>2014-06-14T09:31:50Z</time>
      </trkpt>
      <trkpt lat="43.28083" lon="6.04064">
        <ele>580.75</ele>
        <time>2014-06-14T09:32:00Z</time>
      </trkpt>
      <trkpt lat="43.28077" lon="6.04063">
        <ele>580.6953125</ele>
        <time>2014-06-14T09:32:13Z</time>
      </trkpt>
      <trkpt lat="43.28064" lon="6.04051">
        <ele>578.46875</ele>
        <time>2014-06-14T09:32:36Z</time>
      </trkpt>
      <trkpt lat="43.28046" lon="6.04037">
        <ele>576</ele>
        <time>2014-06-14T09:32:40Z</time>
      </trkpt>
      <trkpt lat="43.28021" lon="6.04021">
        <ele>574.11328125</ele>
        <time>2014-06-14T09:32:45Z</time>
      </trkpt>
      <trkpt lat="43.28015" lon="6.04014">
        <ele>572.6015625</ele>
        <time>2014-06-14T09:32:48Z</time>
      </trkpt>
      <trkpt lat="43.28014" lon="6.04011">
        <ele>571.9375</ele>
        <time>2014-06-14T09:32:49Z</time>
      </trkpt>
      <trkpt lat="43.28014" lon="6.04008">
        <ele>571.20703125</ele>
        <time>2014-06-14T09:32:50Z</time>
      </trkpt>
      <trkpt lat="43.28014" lon="6.04004">
        <ele>570.421875</ele>
        <time>2014-06-14T09:32:51Z</time>
      </trkpt>
      <trkpt lat="43.28015" lon="6.04001">
        <ele>569.7578125</ele>
        <time>2014-06-14T09:32:52Z</time>
      </trkpt>
      <trkpt lat="43.28016" lon="6.03999">
        <ele>569.27734375</ele>
        <time>2014-06-14T09:32:53Z</time>
      </trkpt>
      <trkpt lat="43.28018" lon="6.03998">
        <ele>569.04296875</ele>
        <time>2014-06-14T09:32:54Z</time>
      </trkpt>
      <trkpt lat="43.28019" lon="6.03998">
        <ele>569.046875</ele>
        <time>2014-06-14T09:32:55Z</time>
      </trkpt>
      <trkpt lat="43.28021" lon="6.03998">
        <ele>569.05859375</ele>
        <time>2014-06-14T09:32:56Z</time>
      </trkpt>
      <trkpt lat="43.28023" lon="6.03998">
        <ele>569.078125</ele>
        <time>2014-06-14T09:32:57Z</time>
      </trkpt>
      <trkpt lat="43.28025" lon="6.03998">
        <ele>569.0625</ele>
        <time>2014-06-14T09:32:58Z</time>
      </trkpt>
      <trkpt lat="43.28028" lon="6.03998">
        <ele>568.953125</ele>
        <time>2014-06-14T09:32:59Z</time>
      </trkpt>
      <trkpt lat="43.2803" lon="6.03997">
        <ele>568.828125</ele>
        <time>2014-06-14T09:33:00Z</time>
      </trkpt>
      <trkpt lat="43.28033" lon="6.03997">
        <ele>568.6171875</ele>
        <time>2014-06-14T09:33:01Z</time>
      </trkpt>
      <trkpt lat="43.28035" lon="6.03996">
        <ele>568.359375</ele>
        <time>2014-06-14T09:33:02Z</time>
      </trkpt>
      <trkpt lat="43.28061" lon="6.03986">
        <ele>566.25</ele>
        <time>2014-06-14T09:33:08Z</time>
      </trkpt>
      <trkpt lat="43.28084" lon="6.03982">
        <ele>567.328125</ele>
        <time>2014-06-14T09:33:14Z</time>
      </trkpt>
      <trkpt lat="43.28099" lon="6.03972">
        <ele>568.24609375</ele>
        <time>2014-06-14T09:33:20Z</time>
      </trkpt>
      <trkpt lat="43.28104" lon="6.03948">
        <ele>566.53515625</ele>
        <time>2014-06-14T09:33:27Z</time>
      </trkpt>
      <trkpt lat="43.28105" lon="6.03916">
        <ele>563.265625</ele>
        <time>2014-06-14T09:33:31Z</time>
      </trkpt>
      <trkpt lat="43.28104" lon="6.03886">
        <ele>559.57421875</ele>
        <time>2014-06-14T09:33:35Z</time>
      </trkpt>
      <trkpt lat="43.28102" lon="6.0388">
        <ele>558.359375</ele>
        <time>2014-06-14T09:33:36Z</time>
      </trkpt>
      <trkpt lat="43.28099" lon="6.03874">
        <ele>557.03125</ele>
        <time>2014-06-14T09:33:37Z</time>
      </trkpt>
      <trkpt lat="43.28096" lon="6.03868">
        <ele>555.75</ele>
        <time>2014-06-14T09:33:38Z</time>
      </trkpt>
      <trkpt lat="43.28092" lon="6.03864">
        <ele>554.40234375</ele>
        <time>2014-06-14T09:33:39Z</time>
      </trkpt>
      <trkpt lat="43.28088" lon="6.03859">
        <ele>552.9296875</ele>
        <time>2014-06-14T09:33:40Z</time>
      </trkpt>
      <trkpt lat="43.28082" lon="6.03854">
        <ele>551.6640625</ele>
        <time>2014-06-14T09:33:41Z</time>
      </trkpt>
      <trkpt lat="43.28076" lon="6.03849">
        <ele>550.49609375</ele>
        <time>2014-06-14T09:33:42Z</time>
      </trkpt>
      <trkpt lat="43.28071" lon="6.03843">
        <ele>549.2109375</ele>
        <time>2014-06-14T09:33:43Z</time>
      </trkpt>
      <trkpt lat="43.28066" lon="6.03836">
        <ele>547.91796875</ele>
        <time>2014-06-14T09:33:44Z</time>
      </trkpt>
      <trkpt lat="43.28056" lon="6.0382">
        <ele>545.29296875</ele>
        <time>2014-06-14T09:33:46Z</time>
      </trkpt>
      <trkpt lat="43.28048" lon="6.03803">
        <ele>543.1484375</ele>
        <time>2014-06-14T09:33:48Z</time>
      </trkpt>
      <trkpt lat="43.2803" lon="6.03769">
        <ele>539.92578125</ele>
        <time>2014-06-14T09:33:56Z</time>
      </trkpt>
      <trkpt lat="43.28024" lon="6.03758">
        <ele>539.546875</ele>
        <time>2014-06-14T09:34:06Z</time>
      </trkpt>
      <trkpt lat="43.28021" lon="6.0375">
        <ele>539.25</ele>
        <time>2014-06-14T09:34:09Z</time>
      </trkpt>
      <trkpt lat="43.28019" lon="6.03737">
        <ele>538.62890625</ele>
        <time>2014-06-14T09:34:13Z</time>
      </trkpt>
      <trkpt lat="43.28018" lon="6.03736">
        <ele>538.609375</ele>
        <time>2014-06-14T09:34:14Z</time>
      </trkpt>
      <trkpt lat="43.28018" lon="6.03741">
        <ele>538.8515625</ele>
        <time>2014-06-14T09:34:18Z</time>
      </trkpt>
      <trkpt lat="43.28019" lon="6.03743">
        <ele>538.984375</ele>
        <time>2014-06-14T09:34:19Z</time>
      </trkpt>
      <trkpt lat="43.28019" lon="6.03746">
        <ele>539.09765625</ele>
        <time>2014-06-14T09:34:20Z</time>
      </trkpt>
      <trkpt lat="43.2802" lon="6.03749">
        <ele>539.20703125</ele>
        <time>2014-06-14T09:34:21Z</time>
      </trkpt>
      <trkpt lat="43.2802" lon="6.03752">
        <ele>539.3125</ele>
        <time>2014-06-14T09:34:22Z</time>
      </trkpt>
      <trkpt lat="43.28021" lon="6.03755">
        <ele>539.41015625</ele>
        <time>2014-06-14T09:34:23Z</time>
      </trkpt>
      <trkpt lat="43.28022" lon="6.03757">
        <ele>539.51171875</ele>
        <time>2014-06-14T09:34:24Z</time>
      </trkpt>
      <trkpt lat="43.28023" lon="6.0376">
        <ele>539.61328125</ele>
        <time>2014-06-14T09:34:25Z</time>
      </trkpt>
      <trkpt lat="43.28024" lon="6.03762">
        <ele>539.6796875</ele>
        <time>2014-06-14T09:34:26Z</time>
      </trkpt>
      <trkpt lat="43.28026" lon="6.03763">
        <ele>539.70703125</ele>
        <time>2014-06-14T09:34:27Z</time>
      </trkpt>
      <trkpt lat="43.28029" lon="6.03763">
        <ele>539.6953125</ele>
        <time>2014-06-14T09:34:28Z</time>
      </trkpt>
      <trkpt lat="43.28031" lon="6.03762">
        <ele>539.69921875</ele>
        <time>2014-06-14T09:34:29Z</time>
      </trkpt>
      <trkpt lat="43.28033" lon="6.0376">
        <ele>539.6953125</ele>
        <time>2014-06-14T09:34:30Z</time>
      </trkpt>
      <trkpt lat="43.28035" lon="6.03759">
        <ele>539.671875</ele>
        <time>2014-06-14T09:34:31Z</time>
      </trkpt>
      <trkpt lat="43.28037" lon="6.03756">
        <ele>539.60546875</ele>
        <time>2014-06-14T09:34:32Z</time>
      </trkpt>
      <trkpt lat="43.28039" lon="6.03754">
        <ele>539.50390625</ele>
        <time>2014-06-14T09:34:33Z</time>
      </trkpt>
      <trkpt lat="43.28042" lon="6.03751">
        <ele>539.421875</ele>
        <time>2014-06-14T09:34:34Z</time>
      </trkpt>
      <trkpt lat="43.28044" lon="6.0375">
        <ele>539.36328125</ele>
        <time>2014-06-14T09:34:35Z</time>
      </trkpt>
      <trkpt lat="43.28048" lon="6.03748">
        <ele>539.30859375</ele>
        <time>2014-06-14T09:34:36Z</time>
      </trkpt>
      <trkpt lat="43.28076" lon="6.03731">
        <ele>538.15234375</ele>
        <time>2014-06-14T09:34:44Z</time>
      </trkpt>
      <trkpt lat="43.28079" lon="6.03727">
        <ele>537.84765625</ele>
        <time>2014-06-14T09:34:45Z</time>
      </trkpt>
      <trkpt lat="43.28082" lon="6.03723">
        <ele>537.51171875</ele>
        <time>2014-06-14T09:34:46Z</time>
      </trkpt>
      <trkpt lat="43.28088" lon="6.03713">
        <ele>536.71484375</ele>
        <time>2014-06-14T09:34:48Z</time>
      </trkpt>
      <trkpt lat="43.28095" lon="6.03705">
        <ele>535.8671875</ele>
        <time>2014-06-14T09:34:50Z</time>
      </trkpt>
      <trkpt lat="43.28099" lon="6.03701">
        <ele>535.49609375</ele>
        <time>2014-06-14T09:34:51Z</time>
      </trkpt>
      <trkpt lat="43.28103" lon="6.03699">
        <ele>535.16796875</ele>
        <time>2014-06-14T09:34:52Z</time>
      </trkpt>
      <trkpt lat="43.28107" lon="6.03697">
        <ele>534.85546875</ele>
        <time>2014-06-14T09:34:53Z</time>
      </trkpt>
      <trkpt lat="43.28111" lon="6.03695">
        <ele>534.58203125</ele>
        <time>2014-06-14T09:34:54Z</time>
      </trkpt>
      <trkpt lat="43.28116" lon="6.03693">
        <ele>534.52734375</ele>
        <time>2014-06-14T09:34:55Z</time>
      </trkpt>
      <trkpt lat="43.2812" lon="6.03691">
        <ele>534.5078125</ele>
        <time>2014-06-14T09:34:56Z</time>
      </trkpt>
      <trkpt lat="43.28124" lon="6.03688">
        <ele>534.41796875</ele>
        <time>2014-06-14T09:34:57Z</time>
      </trkpt>
      <trkpt lat="43.28133" lon="6.03681">
        <ele>534.13671875</ele>
        <time>2014-06-14T09:34:59Z</time>
      </trkpt>
      <trkpt lat="43.28142" lon="6.03675">
        <ele>533.62109375</ele>
        <time>2014-06-14T09:35:01Z</time>
      </trkpt>
      <trkpt lat="43.28146" lon="6.03671">
        <ele>533.0546875</ele>
        <time>2014-06-14T09:35:02Z</time>
      </trkpt>
      <trkpt lat="43.28153" lon="6.0366">
        <ele>531.625</ele>
        <time>2014-06-14T09:35:04Z</time>
      </trkpt>
      <trkpt lat="43.28157" lon="6.03656">
        <ele>531.26953125</ele>
        <time>2014-06-14T09:35:05Z</time>
      </trkpt>
      <trkpt lat="43.28161" lon="6.03652">
        <ele>530.98046875</ele>
        <time>2014-06-14T09:35:06Z</time>
      </trkpt>
      <trkpt lat="43.28166" lon="6.03649">
        <ele>530.69140625</ele>
        <time>2014-06-14T09:35:07Z</time>
      </trkpt>
      <trkpt lat="43.28171" lon="6.03647">
        <ele>530.51953125</ele>
        <time>2014-06-14T09:35:08Z</time>
      </trkpt>
      <trkpt lat="43.28176" lon="6.03645">
        <ele>530.4453125</ele>
        <time>2014-06-14T09:35:09Z</time>
      </trkpt>
      <trkpt lat="43.28186" lon="6.03641">
        <ele>530.31640625</ele>
        <time>2014-06-14T09:35:11Z</time>
      </trkpt>
      <trkpt lat="43.28201" lon="6.03634">
        <ele>529.93359375</ele>
        <time>2014-06-14T09:35:14Z</time>
      </trkpt>
      <trkpt lat="43.28206" lon="6.03632">
        <ele>529.66796875</ele>
        <time>2014-06-14T09:35:15Z</time>
      </trkpt>
      <trkpt lat="43.28211" lon="6.0363">
        <ele>529.359375</ele>
        <time>2014-06-14T09:35:16Z</time>
      </trkpt>
      <trkpt lat="43.28215" lon="6.03627">
        <ele>529.0546875</ele>
        <time>2014-06-14T09:35:17Z</time>
      </trkpt>
      <trkpt lat="43.2822" lon="6.03624">
        <ele>528.78125</ele>
        <time>2014-06-14T09:35:18Z</time>
      </trkpt>
      <trkpt lat="43.28225" lon="6.03622">
        <ele>528.61328125</ele>
        <time>2014-06-14T09:35:19Z</time>
      </trkpt>
      <trkpt lat="43.2823" lon="6.03621">
        <ele>528.58203125</ele>
        <time>2014-06-14T09:35:20Z</time>
      </trkpt>
      <trkpt lat="43.28236" lon="6.03621">
        <ele>528.609375</ele>
        <time>2014-06-14T09:35:21Z</time>
      </trkpt>
      <trkpt lat="43.28243" lon="6.03623">
        <ele>528.65625</ele>
        <time>2014-06-14T09:35:22Z</time>
      </trkpt>
      <trkpt lat="43.28249" lon="6.03625">
        <ele>528.73828125</ele>
        <time>2014-06-14T09:35:23Z</time>
      </trkpt>
      <trkpt lat="43.28254" lon="6.03626">
        <ele>528.76953125</ele>
        <time>2014-06-14T09:35:24Z</time>
      </trkpt>
      <trkpt lat="43.28258" lon="6.03627">
        <ele>528.76171875</ele>
        <time>2014-06-14T09:35:25Z</time>
      </trkpt>
      <trkpt lat="43.28262" lon="6.03627">
        <ele>528.765625</ele>
        <time>2014-06-14T09:35:26Z</time>
      </trkpt>
      <trkpt lat="43.28266" lon="6.03627">
        <ele>528.703125</ele>
        <time>2014-06-14T09:35:28Z</time>
      </trkpt>
      <trkpt lat="43.28268" lon="6.03625">
        <ele>528.61328125</ele>
        <time>2014-06-14T09:35:29Z</time>
      </trkpt>
      <trkpt lat="43.28269" lon="6.03624">
        <ele>528.51953125</ele>
        <time>2014-06-14T09:35:30Z</time>
      </trkpt>
      <trkpt lat="43.28278" lon="6.03601">
        <ele>526.91796875</ele>
        <time>2014-06-14T09:35:41Z</time>
      </trkpt>
      <trkpt lat="43.28277" lon="6.03603">
        <ele>527.01953125</ele>
        <time>2014-06-14T09:35:45Z</time>
      </trkpt>
      <trkpt lat="43.28277" lon="6.03604">
        <ele>527.078125</ele>
        <time>2014-06-14T09:35:46Z</time>
      </trkpt>
      <trkpt lat="43.28277" lon="6.03606">
        <ele>527.19921875</ele>
        <time>2014-06-14T09:35:47Z</time>
      </trkpt>
      <trkpt lat="43.28277" lon="6.03608">
        <ele>527.3359375</ele>
        <time>2014-06-14T09:35:48Z</time>
      </trkpt>
      <trkpt lat="43.28277" lon="6.0361">
        <ele>527.48828125</ele>
        <time>2014-06-14T09:35:49Z</time>
      </trkpt>
      <trkpt lat="43.28277" lon="6.03613">
        <ele>527.65625</ele>
        <time>2014-06-14T09:35:50Z</time>
      </trkpt>
      <trkpt lat="43.28277" lon="6.03615">
        <ele>527.8359375</ele>
        <time>2014-06-14T09:35:51Z</time>
      </trkpt>
      <trkpt lat="43.28277" lon="6.03618">
        <ele>528.00390625</ele>
        <time>2014-06-14T09:35:52Z</time>
      </trkpt>
      <trkpt lat="43.28277" lon="6.03629">
        <ele>528.7890625</ele>
        <time>2014-06-14T09:35:57Z</time>
      </trkpt>
      <trkpt lat="43.28278" lon="6.03631">
        <ele>528.92578125</ele>
        <time>2014-06-14T09:35:58Z</time>
      </trkpt>
      <trkpt lat="43.28283" lon="6.03635">
        <ele>529.2265625</ele>
        <time>2014-06-14T09:36:01Z</time>
      </trkpt>
      <trkpt lat="43.28285" lon="6.03635">
        <ele>529.21875</ele>
        <time>2014-06-14T09:36:02Z</time>
      </trkpt>
      <trkpt lat="43.28287" lon="6.03635">
        <ele>529.2265625</ele>
        <time>2014-06-14T09:36:03Z</time>
      </trkpt>
      <trkpt lat="43.28292" lon="6.03636">
        <ele>529.28125</ele>
        <time>2014-06-14T09:36:05Z</time>
      </trkpt>
      <trkpt lat="43.28293" lon="6.03635">
        <ele>529.22265625</ele>
        <time>2014-06-14T09:36:06Z</time>
      </trkpt>
      <trkpt lat="43.28295" lon="6.03634">
        <ele>529.1640625</ele>
        <time>2014-06-14T09:36:07Z</time>
      </trkpt>
      <trkpt lat="43.28296" lon="6.03634">
        <ele>529.12109375</ele>
        <time>2014-06-14T09:36:08Z</time>
      </trkpt>
      <trkpt lat="43.28298" lon="6.03633">
        <ele>529.06640625</ele>
        <time>2014-06-14T09:36:09Z</time>
      </trkpt>
      <trkpt lat="43.28325" lon="6.03624">
        <ele>529.0390625</ele>
        <time>2014-06-14T09:36:23Z</time>
      </trkpt>
      <trkpt lat="43.2835" lon="6.03612">
        <ele>529.2109375</ele>
        <time>2014-06-14T09:36:35Z</time>
      </trkpt>
      <trkpt lat="43.28389" lon="6.03593">
        <ele>528.1484375</ele>
        <time>2014-06-14T09:36:46Z</time>
      </trkpt>
      <trkpt lat="43.28396" lon="6.03592">
        <ele>528.0390625</ele>
        <time>2014-06-14T09:36:48Z</time>
      </trkpt>
      <trkpt lat="43.28399" lon="6.03592">
        <ele>528.00390625</ele>
        <time>2014-06-14T09:36:49Z</time>
      </trkpt>
      <trkpt lat="43.28426" lon="6.03584">
        <ele>526.62109375</ele>
        <time>2014-06-14T09:36:58Z</time>
      </trkpt>
      <trkpt lat="43.28457" lon="6.03566">
        <ele>523.8125</ele>
        <time>2014-06-14T09:37:07Z</time>
      </trkpt>
      <trkpt lat="43.28488" lon="6.0356">
        <ele>522.734375</ele>
        <time>2014-06-14T09:37:16Z</time>
      </trkpt>
      <trkpt lat="43.28505" lon="6.03547">
        <ele>520.88671875</ele>
        <time>2014-06-14T09:37:24Z</time>
      </trkpt>
      <trkpt lat="43.28506" lon="6.03547">
        <ele>520.828125</ele>
        <time>2014-06-14T09:37:25Z</time>
      </trkpt>
      <trkpt lat="43.28521" lon="6.0354">
        <ele>520.3828125</ele>
        <time>2014-06-14T09:37:33Z</time>
      </trkpt>
      <trkpt lat="43.28562" lon="6.03536">
        <ele>521.3046875</ele>
        <time>2014-06-14T09:37:45Z</time>
      </trkpt>
      <trkpt lat="43.2858" lon="6.03535">
        <ele>522.22265625</ele>
        <time>2014-06-14T09:37:52Z</time>
      </trkpt>
      <trkpt lat="43.28581" lon="6.03533">
        <ele>522.21484375</ele>
        <time>2014-06-14T09:37:53Z</time>
      </trkpt>
      <trkpt lat="43.28582" lon="6.03531">
        <ele>522.1953125</ele>
        <time>2014-06-14T09:37:54Z</time>
      </trkpt>
      <trkpt lat="43.28584" lon="6.03529">
        <ele>522.19921875</ele>
        <time>2014-06-14T09:37:55Z</time>
      </trkpt>
      <trkpt lat="43.28586" lon="6.03527">
        <ele>522.2578125</ele>
        <time>2014-06-14T09:37:56Z</time>
      </trkpt>
      <trkpt lat="43.28588" lon="6.03526">
        <ele>522.3125</ele>
        <time>2014-06-14T09:37:57Z</time>
      </trkpt>
      <trkpt lat="43.2859" lon="6.03526">
        <ele>522.35546875</ele>
        <time>2014-06-14T09:37:58Z</time>
      </trkpt>
      <trkpt lat="43.28596" lon="6.03525">
        <ele>522.5859375</ele>
        <time>2014-06-14T09:38:04Z</time>
      </trkpt>
      <trkpt lat="43.28618" lon="6.0353">
        <ele>523.71484375</ele>
        <time>2014-06-14T09:38:16Z</time>
      </trkpt>
      <trkpt lat="43.2862" lon="6.0353">
        <ele>523.71875</ele>
        <time>2014-06-14T09:38:17Z</time>
      </trkpt>
      <trkpt lat="43.28625" lon="6.0353">
        <ele>523.76953125</ele>
        <time>2014-06-14T09:38:21Z</time>
      </trkpt>
      <trkpt lat="43.28629" lon="6.0353">
        <ele>523.8046875</ele>
        <time>2014-06-14T09:38:23Z</time>
      </trkpt>
      <trkpt lat="43.28631" lon="6.03528">
        <ele>523.6953125</ele>
        <time>2014-06-14T09:38:24Z</time>
      </trkpt>
      <trkpt lat="43.28634" lon="6.03527">
        <ele>523.546875</ele>
        <time>2014-06-14T09:38:25Z</time>
      </trkpt>
      <trkpt lat="43.28637" lon="6.03525">
        <ele>523.37109375</ele>
        <time>2014-06-14T09:38:26Z</time>
      </trkpt>
      <trkpt lat="43.2864" lon="6.03523">
        <ele>523.16015625</ele>
        <time>2014-06-14T09:38:27Z</time>
      </trkpt>
      <trkpt lat="43.28642" lon="6.03521">
        <ele>522.93359375</ele>
        <time>2014-06-14T09:38:28Z</time>
      </trkpt>
      <trkpt lat="43.28645" lon="6.0352">
        <ele>522.8671875</ele>
        <time>2014-06-14T09:38:29Z</time>
      </trkpt>
      <trkpt lat="43.28647" lon="6.03519">
        <ele>522.80078125</ele>
        <time>2014-06-14T09:38:30Z</time>
      </trkpt>
      <trkpt lat="43.28649" lon="6.03519">
        <ele>522.7265625</ele>
        <time>2014-06-14T09:38:31Z</time>
      </trkpt>
      <trkpt lat="43.28652" lon="6.03518">
        <ele>522.66015625</ele>
        <time>2014-06-14T09:38:32Z</time>
      </trkpt>
      <trkpt lat="43.2866" lon="6.03517">
        <ele>522.35546875</ele>
        <time>2014-06-14T09:38:37Z</time>
      </trkpt>
      <trkpt lat="43.28666" lon="6.03515">
        <ele>522.109375</ele>
        <time>2014-06-14T09:38:40Z</time>
      </trkpt>
      <trkpt lat="43.28668" lon="6.03515">
        <ele>522.01953125</ele>
        <time>2014-06-14T09:38:41Z</time>
      </trkpt>
      <trkpt lat="43.2867" lon="6.03516">
        <ele>521.92578125</ele>
        <time>2014-06-14T09:38:42Z</time>
      </trkpt>
      <trkpt lat="43.28671" lon="6.03516">
        <ele>521.8671875</ele>
        <time>2014-06-14T09:38:43Z</time>
      </trkpt>
      <trkpt lat="43.28673" lon="6.03515">
        <ele>521.80078125</ele>
        <time>2014-06-14T09:38:44Z</time>
      </trkpt>
      <trkpt lat="43.28674" lon="6.03513">
        <ele>521.734375</ele>
        <time>2014-06-14T09:38:45Z</time>
      </trkpt>
      <trkpt lat="43.28675" lon="6.03511">
        <ele>521.6640625</ele>
        <time>2014-06-14T09:38:46Z</time>
      </trkpt>
      <trkpt lat="43.28676" lon="6.0351">
        <ele>521.57421875</ele>
        <time>2014-06-14T09:38:47Z</time>
      </trkpt>
      <trkpt lat="43.28688" lon="6.03501">
        <ele>520.80078125</ele>
        <time>2014-06-14T09:38:54Z</time>
      </trkpt>
      <trkpt lat="43.28689" lon="6.03501">
        <ele>520.69921875</ele>
        <time>2014-06-14T09:38:55Z</time>
      </trkpt>
      <trkpt lat="43.28691" lon="6.03501">
        <ele>520.59375</ele>
        <time>2014-06-14T09:38:56Z</time>
      </trkpt>
      <trkpt lat="43.28692" lon="6.03501">
        <ele>520.5</ele>
        <time>2014-06-14T09:38:57Z</time>
      </trkpt>
      <trkpt lat="43.28694" lon="6.03502">
        <ele>520.40234375</ele>
        <time>2014-06-14T09:38:58Z</time>
      </trkpt>
      <trkpt lat="43.28706" lon="6.03506">
        <ele>519.89453125</ele>
        <time>2014-06-14T09:39:03Z</time>
      </trkpt>
      <trkpt lat="43.28707" lon="6.03508">
        <ele>519.9375</ele>
        <time>2014-06-14T09:39:04Z</time>
      </trkpt>
      <trkpt lat="43.28708" lon="6.03509">
        <ele>519.921875</ele>
        <time>2014-06-14T09:39:17Z</time>
      </trkpt>
      <trkpt lat="43.2871" lon="6.03509">
        <ele>519.796875</ele>
        <time>2014-06-14T09:39:39Z</time>
      </trkpt>
      <trkpt lat="43.2871" lon="6.03511">
        <ele>519.91796875</ele>
        <time>2014-06-14T09:40:07Z</time>
      </trkpt>
      <trkpt lat="43.28709" lon="6.0351">
        <ele>519.9296875</ele>
        <time>2014-06-14T09:40:36Z</time>
      </trkpt>
      <trkpt lat="43.2871" lon="6.03511">
        <ele>519.9296875</ele>
        <time>2014-06-14T09:40:44Z</time>
      </trkpt>
      <trkpt lat="43.28712" lon="6.03512">
        <ele>519.9296875</ele>
        <time>2014-06-14T09:40:45Z</time>
      </trkpt>
      <trkpt lat="43.28713" lon="6.03513">
        <ele>519.87890625</ele>
        <time>2014-06-14T09:40:46Z</time>
      </trkpt>
      <trkpt lat="43.28715" lon="6.03513">
        <ele>519.82421875</ele>
        <time>2014-06-14T09:40:47Z</time>
      </trkpt>
      <trkpt lat="43.28718" lon="6.03514">
        <ele>519.76171875</ele>
        <time>2014-06-14T09:40:48Z</time>
      </trkpt>
      <trkpt lat="43.2872" lon="6.03514">
        <ele>519.66796875</ele>
        <time>2014-06-14T09:40:49Z</time>
      </trkpt>
      <trkpt lat="43.28723" lon="6.03514">
        <ele>519.5546875</ele>
        <time>2014-06-14T09:40:50Z</time>
      </trkpt>
      <trkpt lat="43.28726" lon="6.03514">
        <ele>519.28515625</ele>
        <time>2014-06-14T09:40:51Z</time>
      </trkpt>
      <trkpt lat="43.28728" lon="6.03512">
        <ele>518.90234375</ele>
        <time>2014-06-14T09:40:52Z</time>
      </trkpt>
      <trkpt lat="43.2873" lon="6.0351">
        <ele>518.48046875</ele>
        <time>2014-06-14T09:40:53Z</time>
      </trkpt>
      <trkpt lat="43.28733" lon="6.03508">
        <ele>518.0703125</ele>
        <time>2014-06-14T09:40:54Z</time>
      </trkpt>
      <trkpt lat="43.28736" lon="6.03507">
        <ele>517.65234375</ele>
        <time>2014-06-14T09:40:55Z</time>
      </trkpt>
      <trkpt lat="43.28739" lon="6.03505">
        <ele>517.16796875</ele>
        <time>2014-06-14T09:40:56Z</time>
      </trkpt>
      <trkpt lat="43.28743" lon="6.03503">
        <ele>516.6015625</ele>
        <time>2014-06-14T09:40:57Z</time>
      </trkpt>
      <trkpt lat="43.28747" lon="6.03501">
        <ele>516.05078125</ele>
        <time>2014-06-14T09:40:58Z</time>
      </trkpt>
      <trkpt lat="43.28749" lon="6.03498">
        <ele>515.53125</ele>
        <time>2014-06-14T09:40:59Z</time>
      </trkpt>
      <trkpt lat="43.28752" lon="6.03496">
        <ele>515.06640625</ele>
        <time>2014-06-14T09:41:00Z</time>
      </trkpt>
      <trkpt lat="43.28755" lon="6.03494">
        <ele>514.68359375</ele>
        <time>2014-06-14T09:41:01Z</time>
      </trkpt>
      <trkpt lat="43.28757" lon="6.03493">
        <ele>514.3671875</ele>
        <time>2014-06-14T09:41:02Z</time>
      </trkpt>
      <trkpt lat="43.28771" lon="6.03485">
        <ele>512.56640625</ele>
        <time>2014-06-14T09:41:09Z</time>
      </trkpt>
      <trkpt lat="43.28773" lon="6.03485">
        <ele>512.33203125</ele>
        <time>2014-06-14T09:41:10Z</time>
      </trkpt>
      <trkpt lat="43.28775" lon="6.03484">
        <ele>512.05078125</ele>
        <time>2014-06-14T09:41:11Z</time>
      </trkpt>
      <trkpt lat="43.28799" lon="6.03463">
        <ele>507.40234375</ele>
        <time>2014-06-14T09:41:21Z</time>
      </trkpt>
      <trkpt lat="43.28815" lon="6.03447">
        <ele>505.1171875</ele>
        <time>2014-06-14T09:41:28Z</time>
      </trkpt>
      <trkpt lat="43.28817" lon="6.03442">
        <ele>504.87890625</ele>
        <time>2014-06-14T09:41:37Z</time>
      </trkpt>
      <trkpt lat="43.2882" lon="6.03441">
        <ele>504.6328125</ele>
        <time>2014-06-14T09:41:40Z</time>
      </trkpt>
      <trkpt lat="43.28821" lon="6.0344">
        <ele>504.4765625</ele>
        <time>2014-06-14T09:41:41Z</time>
      </trkpt>
      <trkpt lat="43.28843" lon="6.03428">
        <ele>502.1171875</ele>
        <time>2014-06-14T09:41:51Z</time>
      </trkpt>
      <trkpt lat="43.28862" lon="6.03412">
        <ele>500.09765625</ele>
        <time>2014-06-14T09:41:59Z</time>
      </trkpt>
      <trkpt lat="43.28892" lon="6.03378">
        <ele>496.80078125</ele>
        <time>2014-06-14T09:42:10Z</time>
      </trkpt>
      <trkpt lat="43.28909" lon="6.03337">
        <ele>494.60546875</ele>
        <time>2014-06-14T09:42:21Z</time>
      </trkpt>
      <trkpt lat="43.28913" lon="6.03331">
        <ele>493.7890625</ele>
        <time>2014-06-14T09:42:24Z</time>
      </trkpt>
      <trkpt lat="43.28919" lon="6.03323">
        <ele>492.8125</ele>
        <time>2014-06-14T09:42:28Z</time>
      </trkpt>
      <trkpt lat="43.28921" lon="6.03321">
        <ele>492.5546875</ele>
        <time>2014-06-14T09:42:29Z</time>
      </trkpt>
      <trkpt lat="43.28923" lon="6.03318">
        <ele>492.30078125</ele>
        <time>2014-06-14T09:42:30Z</time>
      </trkpt>
      <trkpt lat="43.28939" lon="6.03303">
        <ele>489.984375</ele>
        <time>2014-06-14T09:42:38Z</time>
      </trkpt>
      <trkpt lat="43.2896" lon="6.03289">
        <ele>488.3046875</ele>
        <time>2014-06-14T09:42:44Z</time>
      </trkpt>
      <trkpt lat="43.28969" lon="6.03287">
        <ele>487.80078125</ele>
        <time>2014-06-14T09:42:46Z</time>
      </trkpt>
      <trkpt lat="43.28974" lon="6.03286">
        <ele>487.515625</ele>
        <time>2014-06-14T09:42:47Z</time>
      </trkpt>
      <trkpt lat="43.28978" lon="6.03285">
        <ele>487.15625</ele>
        <time>2014-06-14T09:42:48Z</time>
      </trkpt>
      <trkpt lat="43.28988" lon="6.03284">
        <ele>486.38671875</ele>
        <time>2014-06-14T09:42:50Z</time>
      </trkpt>
      <trkpt lat="43.28993" lon="6.03282">
        <ele>485.97265625</ele>
        <time>2014-06-14T09:42:51Z</time>
      </trkpt>
      <trkpt lat="43.28999" lon="6.03282">
        <ele>485.55078125</ele>
        <time>2014-06-14T09:42:52Z</time>
      </trkpt>
      <trkpt lat="43.29004" lon="6.03281">
        <ele>485.234375</ele>
        <time>2014-06-14T09:42:53Z</time>
      </trkpt>
      <trkpt lat="43.2901" lon="6.0328">
        <ele>485.01171875</ele>
        <time>2014-06-14T09:42:54Z</time>
      </trkpt>
      <trkpt lat="43.29015" lon="6.03279">
        <ele>484.7890625</ele>
        <time>2014-06-14T09:42:55Z</time>
      </trkpt>
      <trkpt lat="43.2902" lon="6.03277">
        <ele>484.53515625</ele>
        <time>2014-06-14T09:42:56Z</time>
      </trkpt>
      <trkpt lat="43.29024" lon="6.03274">
        <ele>484.26953125</ele>
        <time>2014-06-14T09:42:57Z</time>
      </trkpt>
      <trkpt lat="43.29029" lon="6.03272">
        <ele>484.03515625</ele>
        <time>2014-06-14T09:42:58Z</time>
      </trkpt>
      <trkpt lat="43.29034" lon="6.03271">
        <ele>483.8125</ele>
        <time>2014-06-14T09:42:59Z</time>
      </trkpt>
      <trkpt lat="43.29044" lon="6.0327">
        <ele>483.3828125</ele>
        <time>2014-06-14T09:43:01Z</time>
      </trkpt>
      <trkpt lat="43.29049" lon="6.03268">
        <ele>483.15234375</ele>
        <time>2014-06-14T09:43:02Z</time>
      </trkpt>
      <trkpt lat="43.29054" lon="6.03266">
        <ele>482.90625</ele>
        <time>2014-06-14T09:43:03Z</time>
      </trkpt>
      <trkpt lat="43.29071" lon="6.03258">
        <ele>481.71875</ele>
        <time>2014-06-14T09:43:07Z</time>
      </trkpt>
      <trkpt lat="43.29075" lon="6.03255">
        <ele>481.33203125</ele>
        <time>2014-06-14T09:43:08Z</time>
      </trkpt>
      <trkpt lat="43.29079" lon="6.03252">
        <ele>480.90625</ele>
        <time>2014-06-14T09:43:09Z</time>
      </trkpt>
      <trkpt lat="43.29083" lon="6.03248">
        <ele>480.4140625</ele>
        <time>2014-06-14T09:43:10Z</time>
      </trkpt>
      <trkpt lat="43.29086" lon="6.03243">
        <ele>479.87890625</ele>
        <time>2014-06-14T09:43:11Z</time>
      </trkpt>
      <trkpt lat="43.2909" lon="6.03239">
        <ele>479.49609375</ele>
        <time>2014-06-14T09:43:12Z</time>
      </trkpt>
      <trkpt lat="43.29094" lon="6.03236">
        <ele>479.15234375</ele>
        <time>2014-06-14T09:43:13Z</time>
      </trkpt>
      <trkpt lat="43.29098" lon="6.03233">
        <ele>478.8125</ele>
        <time>2014-06-14T09:43:14Z</time>
      </trkpt>
      <trkpt lat="43.29103" lon="6.0323">
        <ele>478.5</ele>
        <time>2014-06-14T09:43:15Z</time>
      </trkpt>
      <trkpt lat="43.2912" lon="6.03212">
        <ele>477.42578125</ele>
        <time>2014-06-14T09:43:23Z</time>
      </trkpt>
      <trkpt lat="43.29122" lon="6.03212">
        <ele>477.3125</ele>
        <time>2014-06-14T09:43:24Z</time>
      </trkpt>
      <trkpt lat="43.29123" lon="6.03211">
        <ele>477.2109375</ele>
        <time>2014-06-14T09:43:25Z</time>
      </trkpt>
      <trkpt lat="43.29125" lon="6.0321">
        <ele>477.11328125</ele>
        <time>2014-06-14T09:43:26Z</time>
      </trkpt>
      <trkpt lat="43.29126" lon="6.0321">
        <ele>477.0078125</ele>
        <time>2014-06-14T09:43:27Z</time>
      </trkpt>
      <trkpt lat="43.29128" lon="6.03209">
        <ele>476.890625</ele>
        <time>2014-06-14T09:43:28Z</time>
      </trkpt>
      <trkpt lat="43.29138" lon="6.03208">
        <ele>476.1328125</ele>
        <time>2014-06-14T09:43:35Z</time>
      </trkpt>
      <trkpt lat="43.2914" lon="6.03208">
        <ele>476.0234375</ele>
        <time>2014-06-14T09:43:36Z</time>
      </trkpt>
      <trkpt lat="43.29143" lon="6.03206">
        <ele>475.87890625</ele>
        <time>2014-06-14T09:43:49Z</time>
      </trkpt>
      <trkpt lat="43.29146" lon="6.03205">
        <ele>475.7734375</ele>
        <time>2014-06-14T09:44:16Z</time>
      </trkpt>
      <trkpt lat="43.29149" lon="6.03205">
        <ele>475.69140625</ele>
        <time>2014-06-14T09:44:18Z</time>
      </trkpt>
      <trkpt lat="43.2915" lon="6.03205">
        <ele>475.6328125</ele>
        <time>2014-06-14T09:44:19Z</time>
      </trkpt>
      <trkpt lat="43.29152" lon="6.03205">
        <ele>475.5625</ele>
        <time>2014-06-14T09:44:20Z</time>
      </trkpt>
      <trkpt lat="43.29196" lon="6.03208">
        <ele>474.7109375</ele>
        <time>2014-06-14T09:44:35Z</time>
      </trkpt>
      <trkpt lat="43.29199" lon="6.03204">
        <ele>474.58203125</ele>
        <time>2014-06-14T09:44:36Z</time>
      </trkpt>
      <trkpt lat="43.29201" lon="6.032">
        <ele>474.4296875</ele>
        <time>2014-06-14T09:44:37Z</time>
      </trkpt>
      <trkpt lat="43.29203" lon="6.03196">
        <ele>474.2890625</ele>
        <time>2014-06-14T09:44:38Z</time>
      </trkpt>
      <trkpt lat="43.29206" lon="6.03193">
        <ele>474.1640625</ele>
        <time>2014-06-14T09:44:39Z</time>
      </trkpt>
      <trkpt lat="43.29208" lon="6.0319">
        <ele>474.0546875</ele>
        <time>2014-06-14T09:44:40Z</time>
      </trkpt>
      <trkpt lat="43.29231" lon="6.03172">
        <ele>474</ele>
        <time>2014-06-14T09:44:47Z</time>
      </trkpt>
      <trkpt lat="43.29235" lon="6.0317">
        <ele>474</ele>
        <time>2014-06-14T09:44:48Z</time>
      </trkpt>
      <trkpt lat="43.29239" lon="6.03169">
        <ele>474</ele>
        <time>2014-06-14T09:44:49Z</time>
      </trkpt>
      <trkpt lat="43.29243" lon="6.03167">
        <ele>474</ele>
        <time>2014-06-14T09:44:50Z</time>
      </trkpt>
      <trkpt lat="43.29247" lon="6.03166">
        <ele>474</ele>
        <time>2014-06-14T09:44:51Z</time>
      </trkpt>
      <trkpt lat="43.29252" lon="6.03165">
        <ele>474.00390625</ele>
        <time>2014-06-14T09:44:52Z</time>
      </trkpt>
      <trkpt lat="43.29257" lon="6.03165">
        <ele>474.03515625</ele>
        <time>2014-06-14T09:44:53Z</time>
      </trkpt>
      <trkpt lat="43.29262" lon="6.03164">
        <ele>474.05078125</ele>
        <time>2014-06-14T09:44:54Z</time>
      </trkpt>
      <trkpt lat="43.29277" lon="6.03159">
        <ele>473.99609375</ele>
        <time>2014-06-14T09:44:57Z</time>
      </trkpt>
      <trkpt lat="43.29281" lon="6.03157">
        <ele>474</ele>
        <time>2014-06-14T09:44:58Z</time>
      </trkpt>
      <trkpt lat="43.29286" lon="6.03157">
        <ele>474</ele>
        <time>2014-06-14T09:44:59Z</time>
      </trkpt>
      <trkpt lat="43.29291" lon="6.03155">
        <ele>474</ele>
        <time>2014-06-14T09:45:00Z</time>
      </trkpt>
      <trkpt lat="43.29296" lon="6.03152">
        <ele>474</ele>
        <time>2014-06-14T09:45:01Z</time>
      </trkpt>
      <trkpt lat="43.29305" lon="6.03148">
        <ele>474</ele>
        <time>2014-06-14T09:45:03Z</time>
      </trkpt>
      <trkpt lat="43.29309" lon="6.03147">
        <ele>474</ele>
        <time>2014-06-14T09:45:04Z</time>
      </trkpt>
      <trkpt lat="43.29314" lon="6.03146">
        <ele>474</ele>
        <time>2014-06-14T09:45:05Z</time>
      </trkpt>
      <trkpt lat="43.29319" lon="6.03146">
        <ele>474</ele>
        <time>2014-06-14T09:45:06Z</time>
      </trkpt>
      <trkpt lat="43.29324" lon="6.03147">
        <ele>474</ele>
        <time>2014-06-14T09:45:07Z</time>
      </trkpt>
      <trkpt lat="43.29327" lon="6.03147">
        <ele>474</ele>
        <time>2014-06-14T09:45:08Z</time>
      </trkpt>
      <trkpt lat="43.29331" lon="6.03146">
        <ele>474</ele>
        <time>2014-06-14T09:45:09Z</time>
      </trkpt>
      <trkpt lat="43.29335" lon="6.03144">
        <ele>474</ele>
        <time>2014-06-14T09:45:10Z</time>
      </trkpt>
      <trkpt lat="43.29339" lon="6.03141">
        <ele>474</ele>
        <time>2014-06-14T09:45:11Z</time>
      </trkpt>
      <trkpt lat="43.29343" lon="6.03138">
        <ele>474</ele>
        <time>2014-06-14T09:45:12Z</time>
      </trkpt>
      <trkpt lat="43.29359" lon="6.03131">
        <ele>474.0703125</ele>
        <time>2014-06-14T09:45:16Z</time>
      </trkpt>
      <trkpt lat="43.29363" lon="6.03131">
        <ele>474.04296875</ele>
        <time>2014-06-14T09:45:17Z</time>
      </trkpt>
      <trkpt lat="43.29367" lon="6.03132">
        <ele>474.00390625</ele>
        <time>2014-06-14T09:45:18Z</time>
      </trkpt>
      <trkpt lat="43.29372" lon="6.03133">
        <ele>474</ele>
        <time>2014-06-14T09:45:19Z</time>
      </trkpt>
      <trkpt lat="43.29376" lon="6.03133">
        <ele>474</ele>
        <time>2014-06-14T09:45:20Z</time>
      </trkpt>
      <trkpt lat="43.29379" lon="6.03132">
        <ele>474.03125</ele>
        <time>2014-06-14T09:45:21Z</time>
      </trkpt>
      <trkpt lat="43.29398" lon="6.03115">
        <ele>474.640625</ele>
        <time>2014-06-14T09:45:29Z</time>
      </trkpt>
      <trkpt lat="43.29402" lon="6.03112">
        <ele>474.7421875</ele>
        <time>2014-06-14T09:45:31Z</time>
      </trkpt>
      <trkpt lat="43.29405" lon="6.03112">
        <ele>474.75</ele>
        <time>2014-06-14T09:45:32Z</time>
      </trkpt>
      <trkpt lat="43.29407" lon="6.03112">
        <ele>474.73828125</ele>
        <time>2014-06-14T09:45:33Z</time>
      </trkpt>
      <trkpt lat="43.2941" lon="6.03113">
        <ele>474.6953125</ele>
        <time>2014-06-14T09:45:34Z</time>
      </trkpt>
      <trkpt lat="43.29413" lon="6.03114">
        <ele>474.65625</ele>
        <time>2014-06-14T09:45:35Z</time>
      </trkpt>
      <trkpt lat="43.29417" lon="6.03115">
        <ele>474.62890625</ele>
        <time>2014-06-14T09:45:36Z</time>
      </trkpt>
      <trkpt lat="43.29456" lon="6.03117">
        <ele>472.80859375</ele>
        <time>2014-06-14T09:45:48Z</time>
      </trkpt>
      <trkpt lat="43.29475" lon="6.03114">
        <ele>471.515625</ele>
        <time>2014-06-14T09:45:54Z</time>
      </trkpt>
      <trkpt lat="43.29478" lon="6.03115">
        <ele>471.30078125</ele>
        <time>2014-06-14T09:45:55Z</time>
      </trkpt>
      <trkpt lat="43.29479" lon="6.03118">
        <ele>471.08984375</ele>
        <time>2014-06-14T09:45:56Z</time>
      </trkpt>
      <trkpt lat="43.2948" lon="6.03121">
        <ele>470.8984375</ele>
        <time>2014-06-14T09:45:57Z</time>
      </trkpt>
      <trkpt lat="43.2948" lon="6.03126">
        <ele>470.76953125</ele>
        <time>2014-06-14T09:45:58Z</time>
      </trkpt>
      <trkpt lat="43.29479" lon="6.0313">
        <ele>470.65234375</ele>
        <time>2014-06-14T09:45:59Z</time>
      </trkpt>
      <trkpt lat="43.29479" lon="6.03135">
        <ele>470.61328125</ele>
        <time>2014-06-14T09:46:00Z</time>
      </trkpt>
      <trkpt lat="43.29479" lon="6.0314">
        <ele>470.66015625</ele>
        <time>2014-06-14T09:46:01Z</time>
      </trkpt>
      <trkpt lat="43.29482" lon="6.03155">
        <ele>470.625</ele>
        <time>2014-06-14T09:46:04Z</time>
      </trkpt>
      <trkpt lat="43.29485" lon="6.03158">
        <ele>470.5546875</ele>
        <time>2014-06-14T09:46:05Z</time>
      </trkpt>
      <trkpt lat="43.29488" lon="6.0316">
        <ele>470.45703125</ele>
        <time>2014-06-14T09:46:06Z</time>
      </trkpt>
      <trkpt lat="43.29491" lon="6.0316">
        <ele>470.34375</ele>
        <time>2014-06-14T09:46:07Z</time>
      </trkpt>
      <trkpt lat="43.29494" lon="6.0316">
        <ele>470.2421875</ele>
        <time>2014-06-14T09:46:08Z</time>
      </trkpt>
      <trkpt lat="43.29498" lon="6.03161">
        <ele>470.15625</ele>
        <time>2014-06-14T09:46:09Z</time>
      </trkpt>
      <trkpt lat="43.29516" lon="6.03175">
        <ele>469.98046875</ele>
        <time>2014-06-14T09:46:15Z</time>
      </trkpt>
      <trkpt lat="43.2953" lon="6.03199">
        <ele>470.87109375</ele>
        <time>2014-06-14T09:46:19Z</time>
      </trkpt>
      <trkpt lat="43.29531" lon="6.03208">
        <ele>471.60546875</ele>
        <time>2014-06-14T09:46:20Z</time>
      </trkpt>
      <trkpt lat="43.29532" lon="6.03216">
        <ele>472.19921875</ele>
        <time>2014-06-14T09:46:21Z</time>
      </trkpt>
      <trkpt lat="43.29531" lon="6.03223">
        <ele>472.6484375</ele>
        <time>2014-06-14T09:46:22Z</time>
      </trkpt>
      <trkpt lat="43.29529" lon="6.0323">
        <ele>473.0234375</ele>
        <time>2014-06-14T09:46:23Z</time>
      </trkpt>
      <trkpt lat="43.29528" lon="6.03236">
        <ele>473.34765625</ele>
        <time>2014-06-14T09:46:24Z</time>
      </trkpt>
      <trkpt lat="43.29526" lon="6.03241">
        <ele>473.59765625</ele>
        <time>2014-06-14T09:46:25Z</time>
      </trkpt>
      <trkpt lat="43.29524" lon="6.03245">
        <ele>473.7109375</ele>
        <time>2014-06-14T09:46:26Z</time>
      </trkpt>
      <trkpt lat="43.29512" lon="6.0328">
        <ele>474.8125</ele>
        <time>2014-06-14T09:46:38Z</time>
      </trkpt>
      <trkpt lat="43.29513" lon="6.03283">
        <ele>474.98828125</ele>
        <time>2014-06-14T09:46:39Z</time>
      </trkpt>
      <trkpt lat="43.29514" lon="6.03285">
        <ele>475.19921875</ele>
        <time>2014-06-14T09:46:40Z</time>
      </trkpt>
      <trkpt lat="43.29527" lon="6.03294">
        <ele>476.5234375</ele>
        <time>2014-06-14T09:46:50Z</time>
      </trkpt>
      <trkpt lat="43.29529" lon="6.03294">
        <ele>476.6484375</ele>
        <time>2014-06-14T09:46:51Z</time>
      </trkpt>
      <trkpt lat="43.29534" lon="6.03295">
        <ele>477.3515625</ele>
        <time>2014-06-14T09:46:55Z</time>
      </trkpt>
      <trkpt lat="43.29544" lon="6.03307">
        <ele>479.4140625</ele>
        <time>2014-06-14T09:47:04Z</time>
      </trkpt>
      <trkpt lat="43.29549" lon="6.0331">
        <ele>480.0390625</ele>
        <time>2014-06-14T09:47:08Z</time>
      </trkpt>
      <trkpt lat="43.29564" lon="6.03297">
        <ele>480.3984375</ele>
        <time>2014-06-14T09:47:23Z</time>
      </trkpt>
      <trkpt lat="43.29565" lon="6.03296">
        <ele>480.4375</ele>
        <time>2014-06-14T09:47:24Z</time>
      </trkpt>
      <trkpt lat="43.2957" lon="6.03295">
        <ele>480.67578125</ele>
        <time>2014-06-14T09:47:28Z</time>
      </trkpt>
      <trkpt lat="43.29575" lon="6.03292">
        <ele>480.8828125</ele>
        <time>2014-06-14T09:47:32Z</time>
      </trkpt>
      <trkpt lat="43.296" lon="6.03276">
        <ele>481.56640625</ele>
        <time>2014-06-14T09:47:48Z</time>
      </trkpt>
      <trkpt lat="43.29624" lon="6.03265">
        <ele>482.18359375</ele>
        <time>2014-06-14T09:48:00Z</time>
      </trkpt>
      <trkpt lat="43.29651" lon="6.03232">
        <ele>480.94140625</ele>
        <time>2014-06-14T09:48:11Z</time>
      </trkpt>
      <trkpt lat="43.29691" lon="6.03205">
        <ele>481.04296875</ele>
        <time>2014-06-14T09:48:24Z</time>
      </trkpt>
      <trkpt lat="43.29707" lon="6.03181">
        <ele>479.59375</ele>
        <time>2014-06-14T09:48:31Z</time>
      </trkpt>
      <trkpt lat="43.29732" lon="6.0317">
        <ele>479.76953125</ele>
        <time>2014-06-14T09:48:39Z</time>
      </trkpt>
      <trkpt lat="43.29758" lon="6.03173">
        <ele>481.34765625</ele>
        <time>2014-06-14T09:48:49Z</time>
      </trkpt>
      <trkpt lat="43.29761" lon="6.03174">
        <ele>481.51953125</ele>
        <time>2014-06-14T09:49:07Z</time>
      </trkpt>
      <trkpt lat="43.29763" lon="6.03174">
        <ele>481.65625</ele>
        <time>2014-06-14T09:49:25Z</time>
      </trkpt>
      <trkpt lat="43.29762" lon="6.03174">
        <ele>481.59375</ele>
        <time>2014-06-14T09:49:41Z</time>
      </trkpt>
      <trkpt lat="43.29762" lon="6.03173">
        <ele>481.53125</ele>
        <time>2014-06-14T09:50:00Z</time>
      </trkpt>
      <trkpt lat="43.29764" lon="6.03164">
        <ele>481.12109375</ele>
        <time>2014-06-14T09:50:06Z</time>
      </trkpt>
      <trkpt lat="43.29773" lon="6.0315">
        <ele>480.921875</ele>
        <time>2014-06-14T09:50:15Z</time>
      </trkpt>
      <trkpt lat="43.29783" lon="6.03139">
        <ele>480.7421875</ele>
        <time>2014-06-14T09:50:26Z</time>
      </trkpt>
      <trkpt lat="43.29784" lon="6.03138">
        <ele>480.7421875</ele>
        <time>2014-06-14T09:50:27Z</time>
      </trkpt>
      <trkpt lat="43.29789" lon="6.03124">
        <ele>480.734375</ele>
        <time>2014-06-14T09:50:35Z</time>
      </trkpt>
      <trkpt lat="43.29794" lon="6.03116">
        <ele>481.140625</ele>
        <time>2014-06-14T09:50:44Z</time>
      </trkpt>
      <trkpt lat="43.298" lon="6.03116">
        <ele>481.578125</ele>
        <time>2014-06-14T09:50:49Z</time>
      </trkpt>
      <trkpt lat="43.29805" lon="6.03108">
        <ele>481.91015625</ele>
        <time>2014-06-14T09:51:00Z</time>
      </trkpt>
      <trkpt lat="43.29807" lon="6.03103">
        <ele>481.9609375</ele>
        <time>2014-06-14T09:51:07Z</time>
      </trkpt>
      <trkpt lat="43.2981" lon="6.03099">
        <ele>481.85546875</ele>
        <time>2014-06-14T09:51:10Z</time>
      </trkpt>
      <trkpt lat="43.29817" lon="6.03096">
        <ele>481.62890625</ele>
        <time>2014-06-14T09:51:15Z</time>
      </trkpt>
      <trkpt lat="43.29827" lon="6.03087">
        <ele>481.25</ele>
        <time>2014-06-14T09:51:23Z</time>
      </trkpt>
      <trkpt lat="43.29828" lon="6.03077">
        <ele>481.2109375</ele>
        <time>2014-06-14T09:51:28Z</time>
      </trkpt>
      <trkpt lat="43.29829" lon="6.03066">
        <ele>481.19140625</ele>
        <time>2014-06-14T09:51:34Z</time>
      </trkpt>
      <trkpt lat="43.29837" lon="6.03056">
        <ele>480.78125</ele>
        <time>2014-06-14T09:51:43Z</time>
      </trkpt>
      <trkpt lat="43.2984" lon="6.03042">
        <ele>480.27734375</ele>
        <time>2014-06-14T09:51:49Z</time>
      </trkpt>
      <trkpt lat="43.2986" lon="6.03024">
        <ele>478.17578125</ele>
        <time>2014-06-14T09:52:00Z</time>
      </trkpt>
      <trkpt lat="43.29873" lon="6.03024">
        <ele>476.45703125</ele>
        <time>2014-06-14T09:52:05Z</time>
      </trkpt>
      <trkpt lat="43.29888" lon="6.03013">
        <ele>473.8984375</ele>
        <time>2014-06-14T09:52:16Z</time>
      </trkpt>
      <trkpt lat="43.29895" lon="6.03013">
        <ele>472.97265625</ele>
        <time>2014-06-14T09:52:20Z</time>
      </trkpt>
      <trkpt lat="43.29899" lon="6.03011">
        <ele>472.3046875</ele>
        <time>2014-06-14T09:52:22Z</time>
      </trkpt>
      <trkpt lat="43.29903" lon="6.03003">
        <ele>471.48828125</ele>
        <time>2014-06-14T09:52:26Z</time>
      </trkpt>
      <trkpt lat="43.29908" lon="6.02991">
        <ele>470.16796875</ele>
        <time>2014-06-14T09:52:30Z</time>
      </trkpt>
      <trkpt lat="43.29913" lon="6.02987">
        <ele>469.21484375</ele>
        <time>2014-06-14T09:52:32Z</time>
      </trkpt>
      <trkpt lat="43.29919" lon="6.02988">
        <ele>468.28125</ele>
        <time>2014-06-14T09:52:36Z</time>
      </trkpt>
      <trkpt lat="43.29928" lon="6.02989">
        <ele>466.3125</ele>
        <time>2014-06-14T09:52:43Z</time>
      </trkpt>
      <trkpt lat="43.29931" lon="6.02986">
        <ele>465.51953125</ele>
        <time>2014-06-14T09:52:45Z</time>
      </trkpt>
      <trkpt lat="43.29936" lon="6.02986">
        <ele>464.3203125</ele>
        <time>2014-06-14T09:52:48Z</time>
      </trkpt>
      <trkpt lat="43.29949" lon="6.02983">
        <ele>461.265625</ele>
        <time>2014-06-14T09:52:55Z</time>
      </trkpt>
      <trkpt lat="43.29951" lon="6.02979">
        <ele>460.59765625</ele>
        <time>2014-06-14T09:52:58Z</time>
      </trkpt>
      <trkpt lat="43.29956" lon="6.02971">
        <ele>458.84375</ele>
        <time>2014-06-14T09:53:03Z</time>
      </trkpt>
      <trkpt lat="43.29957" lon="6.02969">
        <ele>458.375</ele>
        <time>2014-06-14T09:53:04Z</time>
      </trkpt>
      <trkpt lat="43.29961" lon="6.02964">
        <ele>456.859375</ele>
        <time>2014-06-14T09:53:06Z</time>
      </trkpt>
      <trkpt lat="43.29966" lon="6.02947">
        <ele>454.328125</ele>
        <time>2014-06-14T09:53:11Z</time>
      </trkpt>
      <trkpt lat="43.29969" lon="6.02933">
        <ele>453.03515625</ele>
        <time>2014-06-14T09:53:16Z</time>
      </trkpt>
      <trkpt lat="43.29969" lon="6.02924">
        <ele>452.91015625</ele>
        <time>2014-06-14T09:53:19Z</time>
      </trkpt>
      <trkpt lat="43.2998" lon="6.02906">
        <ele>449.90625</ele>
        <time>2014-06-14T09:53:27Z</time>
      </trkpt>
      <trkpt lat="43.29983" lon="6.02897">
        <ele>448.97265625</ele>
        <time>2014-06-14T09:53:30Z</time>
      </trkpt>
      <trkpt lat="43.29988" lon="6.02892">
        <ele>447.7265625</ele>
        <time>2014-06-14T09:53:32Z</time>
      </trkpt>
      <trkpt lat="43.29999" lon="6.02887">
        <ele>445.1328125</ele>
        <time>2014-06-14T09:53:36Z</time>
      </trkpt>
      <trkpt lat="43.30028" lon="6.0285">
        <ele>439.00390625</ele>
        <time>2014-06-14T09:53:48Z</time>
      </trkpt>
      <trkpt lat="43.30033" lon="6.02847">
        <ele>438.05078125</ele>
        <time>2014-06-14T09:53:50Z</time>
      </trkpt>
      <trkpt lat="43.30042" lon="6.02847">
        <ele>435.3984375</ele>
        <time>2014-06-14T09:53:56Z</time>
      </trkpt>
      <trkpt lat="43.30042" lon="6.02847">
        <ele>435.20703125</ele>
        <time>2014-06-14T09:53:57Z</time>
      </trkpt>
      <trkpt lat="43.30051" lon="6.02849">
        <ele>432.0234375</ele>
        <time>2014-06-14T09:54:02Z</time>
      </trkpt>
      <trkpt lat="43.30055" lon="6.02847">
        <ele>431.38671875</ele>
        <time>2014-06-14T09:54:05Z</time>
      </trkpt>
      <trkpt lat="43.30064" lon="6.0285">
        <ele>426.6875</ele>
        <time>2014-06-14T09:54:11Z</time>
      </trkpt>
      <trkpt lat="43.30072" lon="6.02849">
        <ele>423.18359375</ele>
        <time>2014-06-14T09:54:14Z</time>
      </trkpt>
      <trkpt lat="43.30074" lon="6.02849">
        <ele>422.25390625</ele>
        <time>2014-06-14T09:54:15Z</time>
      </trkpt>
      <trkpt lat="43.30091" lon="6.0284">
        <ele>416.1953125</ele>
        <time>2014-06-14T09:54:21Z</time>
      </trkpt>
      <trkpt lat="43.30094" lon="6.02837">
        <ele>415.3203125</ele>
        <time>2014-06-14T09:54:22Z</time>
      </trkpt>
      <trkpt lat="43.30108" lon="6.0282">
        <ele>410.9375</ele>
        <time>2014-06-14T09:54:28Z</time>
      </trkpt>
      <trkpt lat="43.30126" lon="6.02788">
        <ele>407.94140625</ele>
        <time>2014-06-14T09:54:37Z</time>
      </trkpt>
      <trkpt lat="43.30131" lon="6.02781">
        <ele>407.4453125</ele>
        <time>2014-06-14T09:54:39Z</time>
      </trkpt>
      <trkpt lat="43.30145" lon="6.02764">
        <ele>406.58203125</ele>
        <time>2014-06-14T09:54:46Z</time>
      </trkpt>
      <trkpt lat="43.30161" lon="6.02746">
        <ele>407.65625</ele>
        <time>2014-06-14T09:54:55Z</time>
      </trkpt>
      <trkpt lat="43.30165" lon="6.02737">
        <ele>408.44140625</ele>
        <time>2014-06-14T09:55:00Z</time>
      </trkpt>
      <trkpt lat="43.30169" lon="6.02732">
        <ele>408.453125</ele>
        <time>2014-06-14T09:55:06Z</time>
      </trkpt>
      <trkpt lat="43.30174" lon="6.02728">
        <ele>408.25</ele>
        <time>2014-06-14T09:55:09Z</time>
      </trkpt>
      <trkpt lat="43.30178" lon="6.02725">
        <ele>408.17578125</ele>
        <time>2014-06-14T09:55:18Z</time>
      </trkpt>
      <trkpt lat="43.30177" lon="6.02723">
        <ele>408.515625</ele>
        <time>2014-06-14T09:55:22Z</time>
      </trkpt>
      <trkpt lat="43.30175" lon="6.02719">
        <ele>409.4296875</ele>
        <time>2014-06-14T09:55:36Z</time>
      </trkpt>
      <trkpt lat="43.30176" lon="6.0272">
        <ele>409.13671875</ele>
        <time>2014-06-14T09:55:41Z</time>
      </trkpt>
      <trkpt lat="43.3018" lon="6.0272">
        <ele>408.5625</ele>
        <time>2014-06-14T09:55:51Z</time>
      </trkpt>
      <trkpt lat="43.30198" lon="6.02726">
        <ele>405.59375</ele>
        <time>2014-06-14T09:55:58Z</time>
      </trkpt>
      <trkpt lat="43.302" lon="6.02739">
        <ele>403.56640625</ele>
        <time>2014-06-14T09:56:10Z</time>
      </trkpt>
      <trkpt lat="43.30201" lon="6.02744">
        <ele>402.68359375</ele>
        <time>2014-06-14T09:56:14Z</time>
      </trkpt>
      <trkpt lat="43.30206" lon="6.02743">
        <ele>402.66015625</ele>
        <time>2014-06-14T09:56:24Z</time>
      </trkpt>
      <trkpt lat="43.30209" lon="6.02738">
        <ele>403.41796875</ele>
        <time>2014-06-14T09:56:30Z</time>
      </trkpt>
      <trkpt lat="43.30215" lon="6.02735">
        <ele>403.8515625</ele>
        <time>2014-06-14T09:56:44Z</time>
      </trkpt>
      <trkpt lat="43.30217" lon="6.02736">
        <ele>403.6171875</ele>
        <time>2014-06-14T09:57:01Z</time>
      </trkpt>
      <trkpt lat="43.30218" lon="6.02736">
        <ele>403.5859375</ele>
        <time>2014-06-14T09:57:27Z</time>
      </trkpt>
      <trkpt lat="43.30223" lon="6.02736">
        <ele>403.36328125</ele>
        <time>2014-06-14T09:57:40Z</time>
      </trkpt>
      <trkpt lat="43.30228" lon="6.02731">
        <ele>404.01953125</ele>
        <time>2014-06-14T09:57:44Z</time>
      </trkpt>
      <trkpt lat="43.30229" lon="6.0273">
        <ele>404.1015625</ele>
        <time>2014-06-14T09:57:46Z</time>
      </trkpt>
      <trkpt lat="43.3025" lon="6.0274">
        <ele>400.95703125</ele>
        <time>2014-06-14T09:57:55Z</time>
      </trkpt>
      <trkpt lat="43.30255" lon="6.02741">
        <ele>399.78515625</ele>
        <time>2014-06-14T09:57:57Z</time>
      </trkpt>
      <trkpt lat="43.30274" lon="6.02744">
        <ele>395.69140625</ele>
        <time>2014-06-14T09:58:05Z</time>
      </trkpt>
      <trkpt lat="43.30287" lon="6.02734">
        <ele>395.69140625</ele>
        <time>2014-06-14T09:58:11Z</time>
      </trkpt>
      <trkpt lat="43.30297" lon="6.02732">
        <ele>394.078125</ele>
        <time>2014-06-14T09:58:16Z</time>
      </trkpt>
      <trkpt lat="43.30302" lon="6.02729">
        <ele>393.796875</ele>
        <time>2014-06-14T09:58:18Z</time>
      </trkpt>
      <trkpt lat="43.30317" lon="6.02721">
        <ele>391.79296875</ele>
        <time>2014-06-14T09:58:24Z</time>
      </trkpt>
      <trkpt lat="43.30327" lon="6.02711">
        <ele>389.94921875</ele>
        <time>2014-06-14T09:58:28Z</time>
      </trkpt>
      <trkpt lat="43.30343" lon="6.0272">
        <ele>384.60546875</ele>
        <time>2014-06-14T09:58:33Z</time>
      </trkpt>
      <trkpt lat="43.30354" lon="6.02721">
        <ele>381.3671875</ele>
        <time>2014-06-14T09:58:37Z</time>
      </trkpt>
      <trkpt lat="43.30358" lon="6.02713">
        <ele>381.0625</ele>
        <time>2014-06-14T09:58:40Z</time>
      </trkpt>
      <trkpt lat="43.30357" lon="6.0269">
        <ele>381.47265625</ele>
        <time>2014-06-14T09:58:45Z</time>
      </trkpt>
      <trkpt lat="43.30367" lon="6.02694">
        <ele>378.5625</ele>
        <time>2014-06-14T09:58:50Z</time>
      </trkpt>
      <trkpt lat="43.30372" lon="6.02714">
        <ele>376.91015625</ele>
        <time>2014-06-14T09:58:55Z</time>
      </trkpt>
      <trkpt lat="43.30377" lon="6.02716">
        <ele>375.49609375</ele>
        <time>2014-06-14T09:58:58Z</time>
      </trkpt>
      <trkpt lat="43.30388" lon="6.02711">
        <ele>372.33984375</ele>
        <time>2014-06-14T09:59:03Z</time>
      </trkpt>
      <trkpt lat="43.3039" lon="6.0271">
        <ele>371.70703125</ele>
        <time>2014-06-14T09:59:04Z</time>
      </trkpt>
      <trkpt lat="43.30399" lon="6.02711">
        <ele>369.109375</ele>
        <time>2014-06-14T09:59:08Z</time>
      </trkpt>
      <trkpt lat="43.30408" lon="6.02708">
        <ele>366.6875</ele>
        <time>2014-06-14T09:59:12Z</time>
      </trkpt>
      <trkpt lat="43.3041" lon="6.02708">
        <ele>365.97265625</ele>
        <time>2014-06-14T09:59:20Z</time>
      </trkpt>
      <trkpt lat="43.30426" lon="6.02715">
        <ele>362.078125</ele>
        <time>2014-06-14T09:59:27Z</time>
      </trkpt>
      <trkpt lat="43.30437" lon="6.02715">
        <ele>359.59765625</ele>
        <time>2014-06-14T09:59:31Z</time>
      </trkpt>
      <trkpt lat="43.30442" lon="6.02712">
        <ele>358.64453125</ele>
        <time>2014-06-14T09:59:33Z</time>
      </trkpt>
      <trkpt lat="43.30445" lon="6.02707">
        <ele>357.95703125</ele>
        <time>2014-06-14T09:59:35Z</time>
      </trkpt>
      <trkpt lat="43.30453" lon="6.02707">
        <ele>356.765625</ele>
        <time>2014-06-14T09:59:40Z</time>
      </trkpt>
      <trkpt lat="43.3046" lon="6.02697">
        <ele>355.7734375</ele>
        <time>2014-06-14T09:59:43Z</time>
      </trkpt>
      <trkpt lat="43.30466" lon="6.02694">
        <ele>354.9921875</ele>
        <time>2014-06-14T09:59:45Z</time>
      </trkpt>
      <trkpt lat="43.30477" lon="6.02684">
        <ele>353.55078125</ele>
        <time>2014-06-14T09:59:49Z</time>
      </trkpt>
      <trkpt lat="43.30482" lon="6.02672">
        <ele>353.14453125</ele>
        <time>2014-06-14T09:59:53Z</time>
      </trkpt>
      <trkpt lat="43.30496" lon="6.02646">
        <ele>352.83203125</ele>
        <time>2014-06-14T10:00:02Z</time>
      </trkpt>
      <trkpt lat="43.30501" lon="6.02642">
        <ele>352.59765625</ele>
        <time>2014-06-14T10:00:04Z</time>
      </trkpt>
      <trkpt lat="43.30504" lon="6.02639">
        <ele>352.3828125</ele>
        <time>2014-06-14T10:00:05Z</time>
      </trkpt>
      <trkpt lat="43.30508" lon="6.02637">
        <ele>352.0703125</ele>
        <time>2014-06-14T10:00:06Z</time>
      </trkpt>
      <trkpt lat="43.30512" lon="6.02636">
        <ele>351.71875</ele>
        <time>2014-06-14T10:00:07Z</time>
      </trkpt>
      <trkpt lat="43.30535" lon="6.0263">
        <ele>349.8359375</ele>
        <time>2014-06-14T10:00:12Z</time>
      </trkpt>
      <trkpt lat="43.3054" lon="6.02629">
        <ele>349.6640625</ele>
        <time>2014-06-14T10:00:13Z</time>
      </trkpt>
      <trkpt lat="43.30544" lon="6.02628">
        <ele>349.4921875</ele>
        <time>2014-06-14T10:00:14Z</time>
      </trkpt>
      <trkpt lat="43.30561" lon="6.02619">
        <ele>348.6640625</ele>
        <time>2014-06-14T10:00:18Z</time>
      </trkpt>
      <trkpt lat="43.30563" lon="6.02616">
        <ele>348.51171875</ele>
        <time>2014-06-14T10:00:19Z</time>
      </trkpt>
      <trkpt lat="43.30564" lon="6.02612">
        <ele>348.421875</ele>
        <time>2014-06-14T10:00:20Z</time>
      </trkpt>
      <trkpt lat="43.30564" lon="6.02608">
        <ele>348.4296875</ele>
        <time>2014-06-14T10:00:21Z</time>
      </trkpt>
      <trkpt lat="43.30563" lon="6.02604">
        <ele>348.5078125</ele>
        <time>2014-06-14T10:00:22Z</time>
      </trkpt>
      <trkpt lat="43.30555" lon="6.02552">
        <ele>348.2109375</ele>
        <time>2014-06-14T10:00:36Z</time>
      </trkpt>
      <trkpt lat="43.30553" lon="6.02487">
        <ele>347.05859375</ele>
        <time>2014-06-14T10:00:49Z</time>
      </trkpt>
      <trkpt lat="43.30559" lon="6.02412">
        <ele>343.8125</ele>
        <time>2014-06-14T10:00:59Z</time>
      </trkpt>
      <trkpt lat="43.30567" lon="6.02383">
        <ele>342.7890625</ele>
        <time>2014-06-14T10:01:03Z</time>
      </trkpt>
      <trkpt lat="43.30586" lon="6.0236">
        <ele>340.82421875</ele>
        <time>2014-06-14T10:01:12Z</time>
      </trkpt>
      <trkpt lat="43.30593" lon="6.02349">
        <ele>340.546875</ele>
        <time>2014-06-14T10:01:21Z</time>
      </trkpt>
      <trkpt lat="43.30595" lon="6.02348">
        <ele>340.4453125</ele>
        <time>2014-06-14T10:01:22Z</time>
      </trkpt>
      <trkpt lat="43.30598" lon="6.02347">
        <ele>340.28515625</ele>
        <time>2014-06-14T10:01:23Z</time>
      </trkpt>
      <trkpt lat="43.30625" lon="6.02343">
        <ele>338.953125</ele>
        <time>2014-06-14T10:01:33Z</time>
      </trkpt>
      <trkpt lat="43.30629" lon="6.02339">
        <ele>338.9609375</ele>
        <time>2014-06-14T10:01:45Z</time>
      </trkpt>
      <trkpt lat="43.30631" lon="6.02331">
        <ele>339.18359375</ele>
        <time>2014-06-14T10:01:56Z</time>
      </trkpt>
      <trkpt lat="43.30632" lon="6.02327">
        <ele>339.3203125</ele>
        <time>2014-06-14T10:01:59Z</time>
      </trkpt>
      <trkpt lat="43.30632" lon="6.02325">
        <ele>339.4609375</ele>
        <time>2014-06-14T10:02:01Z</time>
      </trkpt>
      <trkpt lat="43.30654" lon="6.02322">
        <ele>339.421875</ele>
        <time>2014-06-14T10:02:11Z</time>
      </trkpt>
      <trkpt lat="43.30694" lon="6.02322">
        <ele>337.21484375</ele>
        <time>2014-06-14T10:02:23Z</time>
      </trkpt>
      <trkpt lat="43.30702" lon="6.02311">
        <ele>337.328125</ele>
        <time>2014-06-14T10:02:29Z</time>
      </trkpt>
      <trkpt lat="43.30703" lon="6.0231">
        <ele>337.33984375</ele>
        <time>2014-06-14T10:02:30Z</time>
      </trkpt>
      <trkpt lat="43.30709" lon="6.02302">
        <ele>337.40234375</ele>
        <time>2014-06-14T10:02:36Z</time>
      </trkpt>
      <trkpt lat="43.30719" lon="6.02289">
        <ele>337.99609375</ele>
        <time>2014-06-14T10:02:47Z</time>
      </trkpt>
      <trkpt lat="43.30722" lon="6.02288">
        <ele>337.93359375</ele>
        <time>2014-06-14T10:02:53Z</time>
      </trkpt>
      <trkpt lat="43.30724" lon="6.02285">
        <ele>338.0234375</ele>
        <time>2014-06-14T10:02:55Z</time>
      </trkpt>
      <trkpt lat="43.30727" lon="6.02282">
        <ele>338.23828125</ele>
        <time>2014-06-14T10:02:58Z</time>
      </trkpt>
      <trkpt lat="43.30729" lon="6.02281">
        <ele>338.37109375</ele>
        <time>2014-06-14T10:02:59Z</time>
      </trkpt>
      <trkpt lat="43.30731" lon="6.02279">
        <ele>338.45703125</ele>
        <time>2014-06-14T10:03:00Z</time>
      </trkpt>
      <trkpt lat="43.30732" lon="6.02279">
        <ele>338.5</ele>
        <time>2014-06-14T10:03:01Z</time>
      </trkpt>
      <trkpt lat="43.30735" lon="6.02279">
        <ele>338.52734375</ele>
        <time>2014-06-14T10:03:02Z</time>
      </trkpt>
      <trkpt lat="43.30737" lon="6.02279">
        <ele>338.4921875</ele>
        <time>2014-06-14T10:03:03Z</time>
      </trkpt>
      <trkpt lat="43.3074" lon="6.0228">
        <ele>338.43359375</ele>
        <time>2014-06-14T10:03:04Z</time>
      </trkpt>
      <trkpt lat="43.30743" lon="6.0228">
        <ele>338.40625</ele>
        <time>2014-06-14T10:03:05Z</time>
      </trkpt>
      <trkpt lat="43.30746" lon="6.02281">
        <ele>338.3828125</ele>
        <time>2014-06-14T10:03:06Z</time>
      </trkpt>
      <trkpt lat="43.30749" lon="6.02281">
        <ele>338.36328125</ele>
        <time>2014-06-14T10:03:07Z</time>
      </trkpt>
      <trkpt lat="43.30752" lon="6.02281">
        <ele>338.3046875</ele>
        <time>2014-06-14T10:03:08Z</time>
      </trkpt>
      <trkpt lat="43.30756" lon="6.0228">
        <ele>338.23046875</ele>
        <time>2014-06-14T10:03:09Z</time>
      </trkpt>
      <trkpt lat="43.30785" lon="6.02272">
        <ele>337.953125</ele>
        <time>2014-06-14T10:03:18Z</time>
      </trkpt>
      <trkpt lat="43.30789" lon="6.02274">
        <ele>337.84375</ele>
        <time>2014-06-14T10:03:20Z</time>
      </trkpt>
      <trkpt lat="43.30791" lon="6.02274">
        <ele>337.84765625</ele>
        <time>2014-06-14T10:03:21Z</time>
      </trkpt>
      <trkpt lat="43.30792" lon="6.02274">
        <ele>337.83203125</ele>
        <time>2014-06-14T10:03:22Z</time>
      </trkpt>
      <trkpt lat="43.30794" lon="6.02274">
        <ele>337.78125</ele>
        <time>2014-06-14T10:03:23Z</time>
      </trkpt>
      <trkpt lat="43.30796" lon="6.02275">
        <ele>337.67578125</ele>
        <time>2014-06-14T10:03:24Z</time>
      </trkpt>
      <trkpt lat="43.30798" lon="6.02277">
        <ele>337.5</ele>
        <time>2014-06-14T10:03:25Z</time>
      </trkpt>
      <trkpt lat="43.30801" lon="6.0228">
        <ele>337.2265625</ele>
        <time>2014-06-14T10:03:26Z</time>
      </trkpt>
      <trkpt lat="43.30803" lon="6.02282">
        <ele>336.9296875</ele>
        <time>2014-06-14T10:03:27Z</time>
      </trkpt>
      <trkpt lat="43.30806" lon="6.02284">
        <ele>336.73046875</ele>
        <time>2014-06-14T10:03:28Z</time>
      </trkpt>
      <trkpt lat="43.30808" lon="6.02285">
        <ele>336.48046875</ele>
        <time>2014-06-14T10:03:29Z</time>
      </trkpt>
      <trkpt lat="43.30811" lon="6.02285">
        <ele>336.25390625</ele>
        <time>2014-06-14T10:03:30Z</time>
      </trkpt>
      <trkpt lat="43.30814" lon="6.02286">
        <ele>336.0625</ele>
        <time>2014-06-14T10:03:31Z</time>
      </trkpt>
      <trkpt lat="43.30817" lon="6.02286">
        <ele>335.83203125</ele>
        <time>2014-06-14T10:03:32Z</time>
      </trkpt>
      <trkpt lat="43.3082" lon="6.02288">
        <ele>335.51953125</ele>
        <time>2014-06-14T10:03:33Z</time>
      </trkpt>
      <trkpt lat="43.30851" lon="6.02282">
        <ele>334.23046875</ele>
        <time>2014-06-14T10:03:42Z</time>
      </trkpt>
      <trkpt lat="43.30862" lon="6.02269">
        <ele>334.046875</ele>
        <time>2014-06-14T10:03:49Z</time>
      </trkpt>
      <trkpt lat="43.30863" lon="6.02268">
        <ele>333.984375</ele>
        <time>2014-06-14T10:03:50Z</time>
      </trkpt>
      <trkpt lat="43.30865" lon="6.02267">
        <ele>333.90234375</ele>
        <time>2014-06-14T10:03:51Z</time>
      </trkpt>
      <trkpt lat="43.30867" lon="6.02265">
        <ele>333.84375</ele>
        <time>2014-06-14T10:03:52Z</time>
      </trkpt>
      <trkpt lat="43.30868" lon="6.02263">
        <ele>333.79296875</ele>
        <time>2014-06-14T10:03:53Z</time>
      </trkpt>
      <trkpt lat="43.30885" lon="6.02251">
        <ele>333.02734375</ele>
        <time>2014-06-14T10:04:04Z</time>
      </trkpt>
      <trkpt lat="43.30886" lon="6.0225">
        <ele>333.01953125</ele>
        <time>2014-06-14T10:04:05Z</time>
      </trkpt>
      <trkpt lat="43.30887" lon="6.02248">
        <ele>333.01171875</ele>
        <time>2014-06-14T10:04:06Z</time>
      </trkpt>
      <trkpt lat="43.30888" lon="6.02246">
        <ele>332.99609375</ele>
        <time>2014-06-14T10:04:07Z</time>
      </trkpt>
      <trkpt lat="43.30899" lon="6.02226">
        <ele>333.3671875</ele>
        <time>2014-06-14T10:04:17Z</time>
      </trkpt>
      <trkpt lat="43.30913" lon="6.02185">
        <ele>333.68359375</ele>
        <time>2014-06-14T10:04:30Z</time>
      </trkpt>
      <trkpt lat="43.30924" lon="6.02151">
        <ele>332.8984375</ele>
        <time>2014-06-14T10:04:41Z</time>
      </trkpt>
      <trkpt lat="43.30926" lon="6.02147">
        <ele>332.64453125</ele>
        <time>2014-06-14T10:04:47Z</time>
      </trkpt>
      <trkpt lat="43.30928" lon="6.02146">
        <ele>332.453125</ele>
        <time>2014-06-14T10:04:48Z</time>
      </trkpt>
      <trkpt lat="43.30929" lon="6.02144">
        <ele>332.24609375</ele>
        <time>2014-06-14T10:04:49Z</time>
      </trkpt>
      <trkpt lat="43.3093" lon="6.02142">
        <ele>332.06640625</ele>
        <time>2014-06-14T10:04:50Z</time>
      </trkpt>
      <trkpt lat="43.30932" lon="6.0214">
        <ele>331.875</ele>
        <time>2014-06-14T10:04:51Z</time>
      </trkpt>
      <trkpt lat="43.30933" lon="6.02138">
        <ele>331.609375</ele>
        <time>2014-06-14T10:04:52Z</time>
      </trkpt>
      <trkpt lat="43.30943" lon="6.02111">
        <ele>330.296875</ele>
        <time>2014-06-14T10:05:02Z</time>
      </trkpt>
      <trkpt lat="43.30944" lon="6.02107">
        <ele>330.1015625</ele>
        <time>2014-06-14T10:05:03Z</time>
      </trkpt>
      <trkpt lat="43.3095" lon="6.02073">
        <ele>329.9140625</ele>
        <time>2014-06-14T10:05:13Z</time>
      </trkpt>
      <trkpt lat="43.30956" lon="6.02059">
        <ele>329.97265625</ele>
        <time>2014-06-14T10:05:24Z</time>
      </trkpt>
      <trkpt lat="43.30957" lon="6.02054">
        <ele>330.00390625</ele>
        <time>2014-06-14T10:05:28Z</time>
      </trkpt>
      <trkpt lat="43.30961" lon="6.02038">
        <ele>329.84375</ele>
        <time>2014-06-14T10:05:35Z</time>
      </trkpt>
      <trkpt lat="43.30961" lon="6.02034">
        <ele>329.83984375</ele>
        <time>2014-06-14T10:05:36Z</time>
      </trkpt>
      <trkpt lat="43.3096" lon="6.02031">
        <ele>329.8515625</ele>
        <time>2014-06-14T10:05:37Z</time>
      </trkpt>
      <trkpt lat="43.30961" lon="6.02029">
        <ele>329.84765625</ele>
        <time>2014-06-14T10:05:38Z</time>
      </trkpt>
      <trkpt lat="43.30961" lon="6.02027">
        <ele>329.81640625</ele>
        <time>2014-06-14T10:05:39Z</time>
      </trkpt>
      <trkpt lat="43.30961" lon="6.02024">
        <ele>329.78125</ele>
        <time>2014-06-14T10:05:40Z</time>
      </trkpt>
      <trkpt lat="43.30962" lon="6.02021">
        <ele>329.75</ele>
        <time>2014-06-14T10:05:41Z</time>
      </trkpt>
      <trkpt lat="43.30963" lon="6.02009">
        <ele>329.6953125</ele>
        <time>2014-06-14T10:05:45Z</time>
      </trkpt>
      <trkpt lat="43.30963" lon="6.02007">
        <ele>329.66796875</ele>
        <time>2014-06-14T10:05:46Z</time>
      </trkpt>
      <trkpt lat="43.30962" lon="6.02004">
        <ele>329.70703125</ele>
        <time>2014-06-14T10:05:47Z</time>
      </trkpt>
      <trkpt lat="43.30962" lon="6.02002">
        <ele>329.75390625</ele>
        <time>2014-06-14T10:05:48Z</time>
      </trkpt>
      <trkpt lat="43.30962" lon="6.02">
        <ele>329.765625</ele>
        <time>2014-06-14T10:05:49Z</time>
      </trkpt>
      <trkpt lat="43.30962" lon="6.01998">
        <ele>329.76953125</ele>
        <time>2014-06-14T10:05:51Z</time>
      </trkpt>
      <trkpt lat="43.30963" lon="6.01995">
        <ele>329.640625</ele>
        <time>2014-06-14T10:05:54Z</time>
      </trkpt>
      <trkpt lat="43.30964" lon="6.01993">
        <ele>329.58984375</ele>
        <time>2014-06-14T10:05:55Z</time>
      </trkpt>
      <trkpt lat="43.30965" lon="6.01991">
        <ele>329.53125</ele>
        <time>2014-06-14T10:05:56Z</time>
      </trkpt>
      <trkpt lat="43.30967" lon="6.01983">
        <ele>329.4609375</ele>
        <time>2014-06-14T10:06:07Z</time>
      </trkpt>
      <trkpt lat="43.30963" lon="6.01981">
        <ele>329.8203125</ele>
        <time>2014-06-14T10:06:26Z</time>
      </trkpt>
      <trkpt lat="43.30964" lon="6.01978">
        <ele>329.796875</ele>
        <time>2014-06-14T10:06:43Z</time>
      </trkpt>
      <trkpt lat="43.30976" lon="6.01954">
        <ele>329.27734375</ele>
        <time>2014-06-14T10:06:57Z</time>
      </trkpt>
      <trkpt lat="43.30982" lon="6.01893">
        <ele>329.6796875</ele>
        <time>2014-06-14T10:07:09Z</time>
      </trkpt>
      <trkpt lat="43.30983" lon="6.01889">
        <ele>329.5625</ele>
        <time>2014-06-14T10:07:10Z</time>
      </trkpt>
      <trkpt lat="43.30984" lon="6.01885">
        <ele>329.3984375</ele>
        <time>2014-06-14T10:07:11Z</time>
      </trkpt>
      <trkpt lat="43.3099" lon="6.01859">
        <ele>328.5</ele>
        <time>2014-06-14T10:07:18Z</time>
      </trkpt>
      <trkpt lat="43.3099" lon="6.01853">
        <ele>328.453125</ele>
        <time>2014-06-14T10:07:19Z</time>
      </trkpt>
      <trkpt lat="43.3099" lon="6.01829">
        <ele>328.4453125</ele>
        <time>2014-06-14T10:07:23Z</time>
      </trkpt>
      <trkpt lat="43.30991" lon="6.01777">
        <ele>328.87109375</ele>
        <time>2014-06-14T10:07:33Z</time>
      </trkpt>
      <trkpt lat="43.3099" lon="6.01713">
        <ele>328.2734375</ele>
        <time>2014-06-14T10:07:47Z</time>
      </trkpt>
      <trkpt lat="43.30982" lon="6.01658">
        <ele>327.83203125</ele>
        <time>2014-06-14T10:07:57Z</time>
      </trkpt>
      <trkpt lat="43.30972" lon="6.01635">
        <ele>328.05859375</ele>
        <time>2014-06-14T10:08:01Z</time>
      </trkpt>
      <trkpt lat="43.30969" lon="6.01629">
        <ele>328.34375</ele>
        <time>2014-06-14T10:08:02Z</time>
      </trkpt>
      <trkpt lat="43.30965" lon="6.01624">
        <ele>328.66796875</ele>
        <time>2014-06-14T10:08:03Z</time>
      </trkpt>
      <trkpt lat="43.30957" lon="6.01616">
        <ele>329.25</ele>
        <time>2014-06-14T10:08:05Z</time>
      </trkpt>
      <trkpt lat="43.30953" lon="6.01612">
        <ele>329.55078125</ele>
        <time>2014-06-14T10:08:06Z</time>
      </trkpt>
      <trkpt lat="43.30927" lon="6.01596">
        <ele>331.78515625</ele>
        <time>2014-06-14T10:08:13Z</time>
      </trkpt>
      <trkpt lat="43.30924" lon="6.01594">
        <ele>331.90625</ele>
        <time>2014-06-14T10:08:14Z</time>
      </trkpt>
      <trkpt lat="43.30922" lon="6.01589">
        <ele>331.703125</ele>
        <time>2014-06-14T10:08:15Z</time>
      </trkpt>
      <trkpt lat="43.30921" lon="6.01583">
        <ele>331.234375</ele>
        <time>2014-06-14T10:08:16Z</time>
      </trkpt>
      <trkpt lat="43.30921" lon="6.01578">
        <ele>330.6953125</ele>
        <time>2014-06-14T10:08:17Z</time>
      </trkpt>
      <trkpt lat="43.30922" lon="6.01572">
        <ele>330.78515625</ele>
        <time>2014-06-14T10:08:18Z</time>
      </trkpt>
      <trkpt lat="43.30924" lon="6.01567">
        <ele>330.734375</ele>
        <time>2014-06-14T10:08:19Z</time>
      </trkpt>
      <trkpt lat="43.30927" lon="6.01564">
        <ele>330.5390625</ele>
        <time>2014-06-14T10:08:20Z</time>
      </trkpt>
      <trkpt lat="43.30931" lon="6.01561">
        <ele>330.25390625</ele>
        <time>2014-06-14T10:08:21Z</time>
      </trkpt>
      <trkpt lat="43.30958" lon="6.01541">
        <ele>328.37109375</ele>
        <time>2014-06-14T10:08:28Z</time>
      </trkpt>
      <trkpt lat="43.30962" lon="6.01537">
        <ele>328.24609375</ele>
        <time>2014-06-14T10:08:29Z</time>
      </trkpt>
      <trkpt lat="43.30965" lon="6.01533">
        <ele>328.1640625</ele>
        <time>2014-06-14T10:08:30Z</time>
      </trkpt>
      <trkpt lat="43.3097" lon="6.01523">
        <ele>328.1328125</ele>
        <time>2014-06-14T10:08:32Z</time>
      </trkpt>
      <trkpt lat="43.30972" lon="6.01517">
        <ele>328.19921875</ele>
        <time>2014-06-14T10:08:33Z</time>
      </trkpt>
      <trkpt lat="43.30973" lon="6.01511">
        <ele>328.3203125</ele>
        <time>2014-06-14T10:08:34Z</time>
      </trkpt>
      <trkpt lat="43.30974" lon="6.01505">
        <ele>328.47265625</ele>
        <time>2014-06-14T10:08:35Z</time>
      </trkpt>
      <trkpt lat="43.30975" lon="6.01499">
        <ele>328.65625</ele>
        <time>2014-06-14T10:08:36Z</time>
      </trkpt>
      <trkpt lat="43.30975" lon="6.01493">
        <ele>328.859375</ele>
        <time>2014-06-14T10:08:37Z</time>
      </trkpt>
      <trkpt lat="43.30975" lon="6.01487">
        <ele>329.078125</ele>
        <time>2014-06-14T10:08:38Z</time>
      </trkpt>
      <trkpt lat="43.30975" lon="6.01482">
        <ele>329.296875</ele>
        <time>2014-06-14T10:08:39Z</time>
      </trkpt>
      <trkpt lat="43.30965" lon="6.01419">
        <ele>332.25</ele>
        <time>2014-06-14T10:08:53Z</time>
      </trkpt>
      <trkpt lat="43.30961" lon="6.01367">
        <ele>333.39453125</ele>
        <time>2014-06-14T10:09:07Z</time>
      </trkpt>
      <trkpt lat="43.30988" lon="6.01352">
        <ele>333.0546875</ele>
        <time>2014-06-14T10:09:18Z</time>
      </trkpt>
      <trkpt lat="43.31027" lon="6.01338">
        <ele>332.046875</ele>
        <time>2014-06-14T10:09:33Z</time>
      </trkpt>
      <trkpt lat="43.31063" lon="6.01332">
        <ele>332</ele>
        <time>2014-06-14T10:09:47Z</time>
      </trkpt>
      <trkpt lat="43.31067" lon="6.01333">
        <ele>332</ele>
        <time>2014-06-14T10:09:50Z</time>
      </trkpt>
      <trkpt lat="43.31072" lon="6.01338">
        <ele>332</ele>
        <time>2014-06-14T10:10:04Z</time>
      </trkpt>
      <trkpt lat="43.31073" lon="6.01338">
        <ele>332</ele>
        <time>2014-06-14T10:10:22Z</time>
      </trkpt>
      <trkpt lat="43.31072" lon="6.01338">
        <ele>332</ele>
        <time>2014-06-14T10:10:23Z</time>
      </trkpt>
      <trkpt lat="43.31065" lon="6.01337">
        <ele>332</ele>
        <time>2014-06-14T10:10:33Z</time>
      </trkpt>
      <trkpt lat="43.31067" lon="6.01333">
        <ele>332</ele>
        <time>2014-06-14T10:10:47Z</time>
      </trkpt>
      <trkpt lat="43.31068" lon="6.01334">
        <ele>332</ele>
        <time>2014-06-14T10:11:13Z</time>
      </trkpt>
    </trkseg>
  </trk>
</gpx>